GFSNW_925_spd_003.txt.gz
Wind_Speed
11 13 16 18 17 3 5 4 3 4 5 4 1 3 5 2 2 5 4 4 4 3 3 4 3 3 1 4 2 2 2 2 1 2 1 1 1 3 3 2 2 1 1 8
9 12 15 18 19 5 3 3 1 4 2 3 1 1 3 3 2 4 3 3 3 3 3 4 3 3 1 5 2 1 1 2 2 2 2 2 1 2 4 4 2 7 3 6
8 11 13 16 17 10 2 3 2 4 4 1 7 5 2 4 3 4 5 4 4 4 4 5 3 2 1 2 2 6 4 2 4 4 3 2 5 4 5 5 4 6 13 19
6 9 11 13 15 10 2 3 1 1 1 3 4 3 3 4 3 3 3 4 3 5 3 2 2 1 2 2 1 3 2 3 3 4 8 6 10 12 11 12 12 7 13 14
5 8 10 12 13 8 5 4 4 3 2 2 4 4 1 4 3 2 2 6 3 4 5 5 4 3 2 3 1 2 2 2 1 3 5 5 9 12 12 12 12 12 17 19
3 6 8 10 12 6 4 3 3 4 4 2 4 2 5 5 5 4 3 9 5 3 5 4 1 2 3 2 3 2 0 3 1 3 5 9 6 3 4 3 5 4 5 7
2 4 7 9 11 8 3 3 4 4 1 2 3 4 3 5 2 7 3 4 5 2 5 4 4 6 5 3 4 1 4 3 1 2 5 1 2 2 6 7 12 7 7 5
1 2 5 7 8 9 2 4 3 3 2 1 3 6 5 5 4 4 4 3 1 4 5 3 5 4 5 3 7 4 2 4 2 2 3 7 10 6 3 5 6 2 2 7
2 1 3 5 6 6 5 8 5 4 6 4 4 4 3 4 3 3 3 3 4 6 3 3 2 1 3 3 2 4 4 3 2 2 3 5 5 1 2 3 6 3 8 17
4 2 1 3 5 4 3 5 4 4 4 2 4 3 5 5 3 3 1 2 3 3 2 2 2 3 0 2 1 2 1 1 5 5 5 8 8 5 2 1 3 4 10 14
5 3 1 1 3 3 2 5 4 2 3 2 3 5 5 3 2 4 4 3 2 3 3 3 3 2 3 2 2 3 3 3 4 2 4 7 2 2 2 3 2 6 8 9
7 5 3 0 2 1 3 3 5 6 7 3 3 4 5 2 8 5 1 3 4 4 4 2 3 3 2 3 3 0 4 6 2 7 6 3 1 1 3 1 2 2 3 2
10 8 6 3 1 2 2 5 5 4 3 3 3 2 3 4 4 4 4 2 3 3 2 3 2 4 4 4 6 2 3 4 4 1 5 8 4 2 3 2 4 3 3 2
11 10 8 6 3 1 2 3 6 6 7 4 3 1 2 3 4 4 4 10 8 8 2 3 3 2 4 4 3 6 5 3 4 5 14 6 2 1 5 3 4 4 5 6
15 13 11 8 6 3 2 3 3 4 3 4 2 5 1 3 5 9 9 17 6 3 2 2 3 2 3 1 1 3 5 7 3 6 3 2 3 4 3 6 3 1 4 8
19 15 14 11 9 5 1 3 7 6 4 4 1 3 3 3 2 6 7 10 3 3 4 3 3 2 3 2 3 6 5 7 5 3 3 2 5 6 6 3 2 4 7 11
20 17 14 13 10 8 3 3 0 10 7 3 2 3 3 3 4 4 3 3 1 2 3 3 3 3 4 2 5 3 2 2 3 2 8 6 4 2 1 5 7 9 11 13
23 18 15 14 15 14 7 5 7 13 7 4 3 3 3 1 1 1 2 1 0 0 1 1 2 1 1 4 3 3 4 2 6 7 8 7 8 4 4 7 9 9 10 12
26 19 15 11 7 6 5 11 14 8 2 4 3 5 3 3 2 1 1 1 1 1 1 1 1 2 4 1 2 4 4 1 9 8 8 4 2 6 8 8 9 9 11 13
27 19 6 1 6 14 16 4 1 2 2 2 2 2 2 1 1 2 2 2 2 2 0 1 2 2 3 2 1 1 7 11 9 4 2 3 5 7 8 9 12 12 15 18
5 3 2 7 14 3 4 2 2 1 1 1 1 1 2 2 2 2 1 2 1 2 0 1 1 2 2 2 6 4 6 7 5 2 1 4 6 8 9 9 13 16 18 17
8 14 10 3 3 3 3 3 2 2 3 1 2 1 2 2 1 2 1 2 1 2 1 2 2 2 2 3 3 3 5 4 1 2 4 7 8 10 12 13 15 19 24 27
8 4 4 2 2 3 5 5 1 3 3 2 2 2 2 1 2 3 2 2 2 0 1 3 2 3 2 2 2 3 4 3 5 8 11 12 15 18 17 18 23 25 24 26
3 3 3 2 1 2 3 3 3 1 3 4 3 2 1 1 2 1 3 1 1 1 2 5 2 5 4 3 2 1 4 9 9 11 13 14 17 19 22 22 22 22 23 27
3 3 3 1 0 1 2 2 3 2 3 3 3 3 1 1 3 2 3 2 3 4 4 2 3 4 4 3 1 4 5 10 11 13 13 18 21 20 22 24 24 23 24 24
3 4 4 1 2 1 1 2 3 1 2 2 3 3 2 1 3 3 5 5 5 3 3 2 1 3 3 3 6 12 15 15 15 16 18 19 20 19 20 24 24 23 22 25
3 2 2 2 2 2 2 2 2 5 2 2 2 3 3 3 2 3 4 4 3 3 2 2 3 4 4 8 13 16 17 16 16 19 20 20 21 19 20 16 22 25 24 24

GFSNW_925_spd_009.txt.gz
Wind_Speed
3 6 9 4 13 16 11 5 5 2 5 6 4 5 6 1 8 3 3 2 4 5 4 3 3 4 5 3 5 4 6 2 2 4 3 3 4 4 4 2 2 3 3 7
3 5 8 6 12 16 8 3 5 2 3 4 3 4 6 2 7 3 4 3 1 4 5 3 6 5 5 4 4 7 6 1 3 5 6 4 4 1 2 1 2 9 6 5
3 4 7 8 5 11 4 3 3 4 5 3 9 9 9 7 2 4 4 6 6 8 6 4 7 7 3 2 5 4 2 1 3 5 9 8 8 9 9 10 7 10 11 16
2 4 7 7 3 7 3 2 2 2 7 6 9 10 10 11 6 3 6 4 4 7 4 6 4 6 6 3 3 2 3 2 5 10 12 11 12 13 13 15 14 13 15 16
2 4 6 7 5 5 3 2 3 3 2 6 9 5 10 13 5 9 7 7 8 5 6 2 6 4 3 2 4 1 2 1 4 4 7 10 14 16 18 16 10 13 13 15
1 3 5 7 6 2 2 2 1 3 2 8 8 7 9 10 10 2 4 11 8 9 9 10 9 7 5 4 2 2 2 1 4 4 11 13 6 3 1 4 7 7 10 10
2 3 5 6 6 4 2 2 2 3 4 7 8 8 9 11 7 8 10 7 8 6 9 10 8 9 5 2 3 2 4 1 2 3 7 3 5 9 13 10 9 9 8 7
3 2 4 5 6 4 4 2 2 3 3 5 5 9 12 9 10 13 11 6 6 9 2 2 2 1 3 1 4 3 1 3 2 2 5 14 10 5 6 8 13 10 6 9
4 2 3 5 6 5 5 4 3 2 6 5 9 10 13 11 8 7 5 5 4 2 2 2 2 2 0 5 6 4 4 2 3 3 3 4 2 7 5 6 9 7 6 11
4 2 2 4 5 5 4 3 3 2 3 3 6 7 10 5 9 6 7 7 3 2 2 1 3 3 2 3 3 4 2 2 5 6 5 8 8 3 5 4 3 7 9 6
4 3 1 2 3 3 5 1 4 3 3 5 2 2 7 4 6 5 8 5 2 2 2 3 3 1 4 3 2 4 6 5 4 3 3 6 4 4 3 8 11 6 4 5
4 3 1 1 2 2 3 1 4 7 2 4 3 3 2 3 4 4 9 0 6 6 3 3 3 2 0 1 3 4 4 6 3 8 6 9 6 8 10 4 5 6 2 5
5 3 3 1 1 1 3 2 2 3 2 3 4 4 2 3 2 1 3 2 3 5 3 4 3 3 5 5 6 7 6 10 7 8 7 13 8 9 7 6 2 4 5 12
7 5 4 2 1 1 3 1 0 2 4 4 3 2 3 2 1 2 1 9 6 8 4 3 3 3 8 5 7 7 8 8 10 14 17 14 11 6 3 2 3 4 8 6
8 7 6 4 2 3 4 3 2 2 3 3 2 2 0 0 2 4 5 12 6 3 2 2 3 3 2 2 2 8 9 14 10 10 7 5 6 5 5 5 5 3 5 8
11 8 6 6 5 4 2 3 1 1 2 3 3 2 3 1 4 6 8 9 4 4 4 3 3 6 5 5 4 6 7 9 12 10 0 2 3 2 6 3 2 4 7 12
15 11 7 6 5 2 3 1 1 4 2 2 2 3 2 1 5 3 4 2 3 3 3 4 4 5 4 3 7 8 9 8 3 2 6 3 6 4 3 2 4 6 11 16
16 13 10 9 7 4 4 1 4 5 3 2 2 2 2 5 3 3 2 2 1 4 2 2 3 2 1 4 9 11 5 5 4 6 4 4 6 4 4 3 7 10 12 16
20 16 14 10 6 5 3 6 5 1 1 2 3 6 4 5 2 2 2 2 2 1 1 2 2 3 6 8 9 8 8 6 8 7 8 8 3 2 4 7 10 11 13 15
23 17 7 2 6 11 13 3 1 2 2 1 4 3 4 4 3 2 3 0 3 3 2 2 2 3 8 4 4 3 7 9 9 9 7 3 3 4 7 9 11 13 15 16
8 2 1 3 18 4 1 3 2 2 2 3 2 4 4 2 3 3 1 2 1 3 3 3 3 3 8 10 7 6 9 11 8 4 5 1 3 6 8 9 11 13 14 16
8 10 7 5 2 2 3 2 2 4 5 3 3 2 2 2 1 3 2 3 2 3 5 2 3 3 7 10 11 10 11 10 7 3 1 4 7 9 10 11 13 15 15 20
9 6 3 2 1 2 6 9 3 3 4 3 3 2 2 2 2 2 3 5 2 1 2 3 4 7 7 10 11 10 11 8 2 2 5 8 11 11 10 13 15 18 16 16
2 2 3 2 2 2 2 3 2 2 3 5 4 2 2 1 2 2 3 2 2 3 3 4 1 6 8 9 7 8 8 7 1 6 10 10 11 13 15 17 20 19 18 19
2 1 2 2 1 3 3 3 2 2 3 2 4 3 2 2 2 1 3 3 3 4 2 3 2 6 7 7 6 6 2 2 5 10 12 13 16 15 15 15 16 14 19 22
2 2 2 1 1 2 2 3 2 3 2 2 2 2 2 2 1 3 3 2 4 1 1 1 5 5 5 6 5 6 5 8 12 15 15 15 14 16 16 16 19 21 18 19
3 2 2 2 3 3 2 0 2 2 1 1 1 2 2 2 2 2 2 3 2 2 3 3 5 4 2 5 8 7 9 12 15 15 15 14 14 15 14 14 16 12 14 17

GFSNW_925_spd_012.txt.gz
Wind_Speed
3 5 6 7 13 17 11 6 5 6 9 5 6 8 2 1 7 2 2 4 2 3 4 2 4 7 8 4 5 4 4 2 1 8 6 3 2 4 3 0 2 1 1 6
2 4 6 4 15 19 6 5 4 4 5 5 4 4 5 4 7 8 5 2 1 2 5 3 6 8 5 5 7 4 4 1 3 8 5 5 1 3 2 4 2 4 3 4
1 4 6 3 12 18 4 4 3 4 5 7 11 7 7 5 3 4 1 5 4 5 5 3 6 9 4 5 7 3 3 1 1 2 6 8 8 11 10 10 4 6 7 14
1 3 5 5 5 12 6 4 5 7 6 7 6 10 9 10 6 5 6 5 6 6 3 6 5 11 8 4 3 2 3 1 5 7 9 8 10 12 12 13 12 9 10 15
1 3 5 6 1 8 5 4 2 3 3 10 9 5 6 11 8 8 9 5 7 7 6 3 6 5 4 3 4 2 4 2 3 3 5 11 14 15 14 14 14 11 11 14
1 3 5 6 4 5 6 2 2 2 2 4 6 6 9 10 9 2 5 7 8 10 12 12 11 10 8 6 4 3 2 1 2 2 11 10 2 3 7 8 8 9 6 9
1 3 5 6 5 1 3 4 3 3 1 5 9 9 8 8 9 6 7 7 9 9 13 11 11 11 8 5 5 4 4 2 2 2 5 3 4 13 11 9 7 8 9 8
2 3 5 6 6 5 5 2 4 3 2 7 7 8 8 10 5 9 13 9 10 9 3 3 2 2 4 2 4 3 3 4 2 1 3 9 9 4 6 5 11 10 7 10
2 3 4 6 6 6 5 5 4 3 5 3 7 8 12 7 8 7 5 4 5 1 2 2 3 3 2 6 6 7 4 5 1 2 2 3 2 7 5 8 7 9 8 9
3 2 4 5 5 5 6 3 3 2 2 4 4 6 8 8 7 5 7 5 2 2 2 2 3 3 2 5 5 4 3 2 4 4 4 6 9 4 4 3 2 7 5 8
4 3 3 4 4 4 6 2 5 3 2 3 5 3 6 3 7 4 8 4 1 2 3 3 3 1 4 1 4 7 7 6 4 3 3 6 1 1 2 6 9 5 6 5
4 3 2 3 4 3 2 1 5 8 2 3 5 5 6 6 7 4 7 2 7 5 3 2 1 2 2 3 3 7 4 6 4 9 5 7 3 4 2 1 3 3 3 4
4 3 1 3 4 3 3 4 2 3 2 3 3 3 3 3 5 4 3 1 4 6 3 4 3 3 4 4 4 3 4 7 3 3 8 10 7 2 6 6 4 3 2 5
4 3 1 2 3 4 5 2 2 2 5 4 3 2 2 2 2 1 3 5 8 6 4 3 3 3 8 5 6 4 5 4 6 8 12 10 6 10 9 5 1 3 8 4
5 3 2 1 2 3 5 2 3 2 3 3 1 0 2 1 2 4 5 10 6 3 2 2 4 2 1 3 1 3 5 9 7 8 6 1 5 8 3 2 2 5 3 5
6 4 2 1 1 1 1 3 3 2 4 3 2 2 2 2 3 6 6 7 3 4 4 3 3 6 3 3 3 7 9 7 6 6 5 7 8 5 3 4 3 2 5 8
8 5 3 2 1 2 2 1 2 1 3 2 1 2 2 4 5 2 2 3 2 1 1 3 2 2 4 4 5 7 8 8 5 6 9 6 3 4 4 4 2 4 6 10
11 8 4 3 1 1 2 2 2 3 1 1 2 2 1 4 1 2 4 2 2 1 1 1 2 2 1 4 8 10 13 8 8 6 4 7 9 7 9 6 1 5 7 11
13 9 6 3 2 3 2 3 2 2 1 2 2 5 4 4 2 2 2 1 1 0 1 1 1 3 6 6 7 8 7 7 9 8 6 9 10 5 2 2 4 6 8 11
17 12 4 1 3 6 9 2 1 2 2 2 3 3 3 4 2 1 2 2 1 2 2 2 2 3 10 10 8 4 8 9 10 8 8 7 4 1 2 4 6 8 9 10
4 2 1 1 9 4 1 2 3 2 2 3 3 6 5 3 3 2 0 3 2 3 2 4 3 3 6 11 7 3 4 9 8 8 6 8 3 2 3 4 6 5 7 9
7 10 7 4 3 2 4 5 1 4 4 3 3 1 3 2 0 3 2 3 2 4 6 2 3 3 6 9 7 6 8 11 10 10 7 4 2 5 5 6 7 8 10 17
7 7 4 2 2 2 2 4 2 2 2 2 2 2 2 2 2 3 2 6 5 1 3 3 2 6 5 8 7 8 13 15 10 6 5 6 5 7 9 11 13 15 15 18
3 2 3 2 2 2 1 2 2 2 2 2 3 3 2 1 2 2 3 1 2 3 3 4 1 5 5 7 5 7 10 10 7 4 3 5 8 11 13 15 17 17 18 19
2 0 2 2 1 1 2 2 1 3 1 2 2 2 2 2 3 0 3 4 3 2 2 3 4 7 9 7 7 8 6 5 2 3 7 10 12 13 15 16 16 17 17 21
2 2 2 1 1 1 2 2 1 1 1 0 2 2 1 2 2 2 1 1 0 2 2 2 5 6 6 4 4 4 1 2 4 7 10 13 14 15 16 15 17 23 21 18
1 2 1 2 3 2 1 1 2 4 2 2 1 2 4 1 0 1 1 1 2 2 2 4 5 5 3 1 1 3 4 7 9 12 14 14 15 16 17 15 19 18 18 16

GFSNW_925_spd_015.txt.gz
Wind_Speed
0 4 5 5 12 15 15 2 1 6 8 3 3 2 3 1 3 3 3 4 5 4 5 6 6 4 4 8 6 3 3 4 3 3 2 2 1 3 4 4 3 1 4 5
1 3 4 4 14 20 6 3 3 3 2 3 3 5 3 1 6 4 1 5 6 5 4 5 9 5 5 8 5 1 3 2 3 4 4 5 1 3 5 6 3 4 4 5
1 2 4 2 14 21 1 1 2 2 1 2 5 5 3 2 5 2 4 5 3 4 4 4 4 4 2 4 3 2 3 3 5 5 3 0 2 5 4 6 3 4 6 6
2 2 4 3 9 12 6 1 4 7 3 4 5 5 8 6 2 2 2 1 4 5 3 5 5 5 4 2 1 2 3 3 4 4 5 4 4 6 7 4 5 5 7 6
2 3 4 5 4 11 6 2 2 2 4 4 3 5 5 8 8 6 4 4 5 8 4 1 6 8 5 4 5 3 3 1 2 2 7 7 4 7 7 7 6 4 4 4
3 3 4 5 5 10 4 5 3 5 4 3 3 3 1 2 8 3 3 4 12 14 6 9 6 8 5 6 4 2 3 4 3 2 5 5 4 3 5 3 3 2 2 1
4 4 5 5 5 5 2 3 3 4 2 2 4 6 5 5 6 6 7 9 8 4 6 6 8 11 11 9 7 5 4 3 3 2 4 2 4 3 4 5 4 6 10 10
4 4 5 6 5 5 3 3 3 3 1 2 3 3 3 9 13 9 11 8 6 7 6 4 4 5 7 5 6 5 4 4 3 3 1 6 5 2 3 4 3 7 8 6
5 5 5 7 6 6 7 7 5 4 5 4 6 3 9 6 4 4 4 5 8 7 3 4 4 4 5 4 3 8 7 6 4 2 4 6 5 4 5 2 3 3 7 5
5 5 6 7 7 6 5 6 5 3 3 4 6 2 6 6 5 4 4 1 3 6 3 2 3 3 2 5 7 3 3 3 4 4 3 7 8 4 3 3 6 5 6 5
6 5 6 7 7 6 6 6 7 4 3 3 6 7 4 4 5 5 5 4 4 3 3 3 3 2 4 2 6 7 7 6 4 3 3 7 6 4 7 5 3 6 6 5
6 5 6 6 7 5 5 4 8 8 5 3 5 7 9 6 1 5 4 7 4 5 4 1 3 1 0 2 3 4 2 7 6 9 6 7 6 7 5 5 5 4 4 4
5 5 5 6 7 7 9 6 6 5 3 4 4 3 6 4 10 5 5 2 5 4 3 3 3 3 4 4 5 1 3 6 3 4 6 6 5 5 5 6 7 7 6 5
5 5 5 6 7 8 9 6 5 6 6 4 3 2 3 4 5 5 5 7 9 8 4 3 3 3 5 4 4 4 5 2 1 3 3 4 5 7 8 8 7 6 4 4
6 5 4 5 6 8 9 8 7 6 4 4 2 2 3 3 2 4 6 15 6 3 3 2 3 3 2 1 2 2 3 5 3 5 4 4 5 6 6 7 8 6 3 5
7 5 4 4 4 5 4 2 3 5 4 4 1 1 2 2 1 1 5 4 2 3 4 3 3 3 4 3 3 4 6 7 5 3 3 7 10 8 8 6 7 8 7 2
7 5 4 4 4 5 5 3 1 2 3 3 2 1 5 4 3 5 4 7 2 2 3 2 3 2 3 3 4 6 8 5 7 12 10 5 5 4 6 10 10 8 6 12
8 6 5 6 6 5 2 4 3 3 5 5 3 2 3 3 2 2 5 2 3 3 2 1 1 3 2 3 7 8 11 8 9 7 5 6 9 7 5 6 9 7 6 9
10 8 5 3 3 2 2 2 3 2 2 3 2 5 4 2 2 1 3 2 1 1 0 1 2 2 5 6 6 7 6 8 11 9 9 8 7 7 5 8 8 7 5 6
12 7 3 1 1 2 3 1 3 4 3 2 2 3 2 4 1 1 2 2 2 1 3 1 1 3 5 6 5 3 6 12 13 11 8 8 6 8 7 7 8 6 2 4
4 3 1 2 6 2 3 1 2 1 2 2 3 4 4 2 3 3 1 2 1 2 3 4 2 3 5 7 2 5 7 10 6 10 14 14 10 7 6 5 3 2 4 6
7 11 7 3 4 2 3 3 1 2 3 3 1 2 2 2 1 3 1 3 2 5 3 2 3 3 5 9 8 7 10 16 16 19 15 16 16 12 7 3 6 8 8 11
6 6 4 2 3 2 4 5 1 1 2 1 1 2 2 2 3 2 2 5 5 2 3 3 3 2 5 7 10 12 18 22 20 16 16 12 7 5 5 8 10 11 12 14
3 2 3 1 2 2 1 1 1 1 0 1 2 2 2 1 2 2 4 1 2 3 3 3 2 5 6 6 8 10 7 11 12 8 6 3 4 8 9 10 12 12 13 16
3 2 2 2 2 0 0 0 0 3 0 2 1 2 1 1 2 1 3 1 1 1 1 2 2 2 6 7 6 7 6 7 6 4 1 5 8 9 11 12 13 13 16 16
3 3 3 1 1 1 0 1 1 1 1 1 2 1 1 2 1 1 0 2 1 2 1 2 2 3 3 5 5 6 6 6 2 4 7 8 9 11 14 15 16 20 21 20
2 2 2 1 2 2 1 0 1 1 1 1 1 3 1 0 1 1 2 2 1 2 0 1 3 4 3 5 5 2 3 5 6 7 8 11 13 15 16 16 21 21 22 22

GFSNW_925_spd_018.txt.gz
Wind_Speed
8 5 6 13 18 18 15 5 2 3 6 3 1 2 4 2 3 5 4 3 4 4 4 5 3 3 2 6 2 3 2 5 3 1 3 1 2 3 4 4 2 2 4 4
8 6 6 15 19 21 9 4 2 3 1 3 2 4 3 2 2 1 1 2 4 3 4 6 3 4 2 7 4 2 3 2 3 6 6 5 4 2 5 6 3 4 5 5
9 7 6 14 20 20 6 3 2 3 3 1 6 2 1 3 3 2 4 3 6 5 4 5 4 3 3 4 3 2 2 3 5 6 4 3 1 2 4 5 3 3 6 5
10 8 6 11 18 23 3 2 4 5 4 3 3 3 5 3 2 2 3 4 3 5 3 3 4 3 2 4 3 2 3 3 2 3 4 2 0 2 2 5 4 5 6 7
10 8 8 10 18 19 4 3 3 2 3 6 5 5 6 8 3 4 0 3 3 5 4 5 7 7 3 4 2 2 3 0 2 1 4 6 3 4 4 4 3 3 4 4
10 9 9 9 20 18 3 3 1 5 3 5 4 4 6 8 8 1 4 10 8 10 3 6 5 4 6 6 6 2 3 4 3 3 4 5 5 5 3 1 3 3 5 6
10 9 10 10 17 15 3 1 3 4 1 3 6 3 3 5 3 7 3 5 6 4 6 2 6 11 11 10 8 4 4 4 3 2 3 1 4 3 4 7 3 8 9 6
10 9 9 9 10 11 7 2 3 3 1 1 2 2 9 8 7 6 5 5 2 7 6 5 5 5 6 4 6 6 4 5 3 3 3 5 2 5 5 5 5 7 9 7
10 9 9 10 9 9 9 8 6 5 5 3 2 5 8 6 4 5 4 5 5 7 3 4 4 4 5 3 2 5 6 6 4 2 4 6 5 3 6 5 4 8 7 7
9 9 9 9 9 8 8 7 6 5 4 3 2 4 6 6 4 4 2 1 4 4 2 3 3 4 4 5 6 4 3 3 4 2 2 8 7 4 4 5 7 7 8 7
9 9 9 9 9 8 8 9 7 3 3 2 4 3 4 4 3 5 4 4 4 3 4 3 4 3 5 3 5 6 7 6 4 3 2 8 7 5 7 6 4 7 6 7
9 9 9 9 9 8 8 6 7 8 4 3 4 9 8 3 5 6 1 6 4 5 4 2 3 1 1 2 3 3 2 7 6 10 7 5 7 7 5 7 6 7 8 6
9 9 9 9 9 9 9 9 6 5 3 4 4 3 7 7 7 5 5 2 5 4 3 4 3 2 4 4 5 4 4 5 2 3 6 9 7 0 5 4 5 7 5 6
9 9 9 10 11 10 8 8 6 7 5 4 3 3 4 6 7 6 3 10 9 8 3 3 3 3 4 3 3 4 5 4 5 4 5 2 3 1 6 7 8 7 8 8
8 8 9 9 11 12 12 13 11 7 5 4 2 1 4 5 6 9 12 19 6 3 3 3 3 2 3 1 2 3 4 7 4 6 6 5 5 8 8 8 7 9 7 6
9 8 8 7 9 12 4 3 5 6 4 4 1 4 5 9 6 9 6 5 3 3 4 3 2 3 4 4 4 6 6 5 5 5 5 4 7 8 7 7 9 8 9 15
10 9 9 8 7 6 6 3 2 4 4 3 2 3 4 5 4 4 3 6 2 3 2 1 3 2 3 2 4 6 8 8 3 6 9 5 4 5 8 11 12 17 18 16
10 11 11 10 11 10 6 9 7 5 9 5 3 2 4 5 2 2 4 2 3 3 2 1 2 1 2 3 8 7 9 8 6 8 1 6 8 8 8 12 16 10 8 8
11 11 9 5 4 3 2 4 5 6 4 4 2 5 4 2 2 1 3 2 1 2 1 2 2 2 5 7 6 5 6 6 8 6 7 10 11 10 8 9 6 8 5 5
12 6 5 2 3 2 3 2 4 5 3 3 2 2 1 3 1 2 2 2 1 1 3 1 1 3 5 7 7 3 5 8 14 12 8 8 9 10 6 6 7 7 5 2
3 3 1 1 3 1 4 2 2 0 2 1 0 3 3 2 3 2 1 2 0 2 4 3 2 3 4 8 3 3 6 10 8 11 11 17 11 8 6 5 5 4 1 2
8 12 7 3 4 3 3 2 1 1 2 3 1 1 1 1 2 3 1 3 2 5 2 1 2 2 4 6 8 12 15 20 19 24 17 15 11 11 8 4 4 4 5 7
6 5 4 2 3 2 3 6 1 2 2 2 1 1 1 2 3 2 2 5 4 2 2 2 1 4 6 7 10 12 18 22 19 14 16 12 8 6 6 4 5 7 9 10
3 3 3 1 2 2 1 1 1 0 1 1 1 2 1 1 2 1 3 1 1 2 1 2 1 5 5 4 3 8 7 8 13 12 9 8 6 4 5 7 9 10 11 12
3 3 2 1 1 2 1 1 1 2 0 1 2 2 1 1 2 1 2 2 1 0 2 2 1 4 3 5 6 6 5 6 9 6 4 3 5 6 9 10 11 12 15 16
3 3 3 1 2 1 1 1 1 1 0 1 1 2 2 2 1 0 1 3 3 2 1 2 1 3 6 5 3 5 3 3 3 4 6 6 8 9 10 13 14 15 16 17
2 2 2 2 3 3 1 1 0 1 1 0 1 3 3 1 1 1 2 2 2 2 2 1 3 3 3 3 3 3 3 4 6 6 7 8 9 10 12 13 18 18 20 21

GFSNW_925_spd_021.txt.gz
Wind_Speed
19 16 16 20 25 25 18 6 3 1 5 4 1 3 4 3 2 6 4 4 2 5 4 4 3 4 1 4 1 2 2 5 3 1 5 3 1 3 4 4 2 1 3 5
18 15 16 22 27 28 11 4 2 3 1 4 2 4 3 1 2 3 3 2 2 2 5 6 2 3 0 4 3 3 2 2 3 6 6 5 3 3 5 5 3 4 4 5
17 14 16 25 30 27 11 4 3 3 3 1 7 3 2 1 4 3 3 3 5 4 5 6 4 3 2 2 3 2 4 3 5 6 4 3 3 2 4 5 3 3 6 3
16 14 17 26 31 24 8 2 4 5 4 2 4 4 3 3 2 1 3 3 2 4 4 3 4 2 2 3 1 3 4 3 2 3 4 2 1 3 5 6 5 5 5 7
15 14 18 25 31 21 4 4 4 3 2 6 6 4 5 6 2 4 1 5 3 2 6 6 8 6 3 3 3 3 4 1 1 1 4 5 3 5 7 6 4 7 5 5
15 13 17 25 31 21 4 3 2 5 3 4 5 5 6 8 6 5 3 9 5 4 2 4 5 3 5 5 5 3 3 4 3 3 4 4 6 8 8 5 4 6 6 8
14 12 16 26 31 24 5 4 4 4 2 3 6 7 3 6 5 7 2 5 6 4 6 4 6 11 11 10 8 3 5 4 2 2 3 2 6 3 4 6 4 3 2 7
14 12 16 23 32 19 5 5 4 3 2 1 3 7 6 7 6 4 3 4 0 9 5 5 5 5 6 5 7 6 3 5 3 4 3 5 4 5 7 7 7 7 6 5
14 12 15 19 24 20 11 5 5 4 6 3 4 5 4 5 4 4 3 5 8 6 4 4 4 4 4 1 1 4 5 6 4 2 4 6 6 3 5 4 5 8 8 8
14 13 15 15 18 18 9 4 4 5 4 2 2 4 6 6 5 4 2 4 2 3 3 3 3 3 3 4 5 3 2 3 5 2 4 8 6 4 3 5 7 7 10 10
13 13 14 14 17 18 11 8 5 3 3 1 2 1 5 4 3 5 5 4 4 3 4 3 4 3 5 2 4 6 7 6 4 3 1 8 7 3 8 6 2 9 9 9
13 13 13 13 13 13 11 6 11 13 5 3 4 10 9 3 6 6 1 5 4 5 4 1 3 2 2 2 3 2 3 7 5 9 6 4 6 4 5 6 6 7 8 5
14 13 13 12 11 9 8 12 7 7 4 4 4 3 7 12 3 4 5 2 5 4 2 4 3 3 4 4 5 3 4 4 2 2 5 8 8 5 3 6 5 5 6 7
14 13 13 12 11 11 11 9 7 9 4 4 4 5 4 9 6 3 3 11 8 7 3 3 3 3 4 3 3 4 4 5 5 5 7 5 7 7 5 5 6 7 9 7
13 13 13 13 13 14 16 18 14 8 5 4 2 3 8 11 7 11 14 19 6 3 2 2 3 2 3 1 2 3 5 7 4 7 8 5 5 5 7 9 10 10 9 6
13 12 12 11 13 12 4 4 8 9 5 4 2 4 5 11 12 14 10 6 3 3 4 3 2 2 3 4 4 7 5 5 6 6 5 4 3 5 6 7 8 7 9 12
13 12 11 8 7 4 7 4 2 5 4 3 3 3 4 5 5 4 3 6 2 2 2 2 3 1 3 3 5 7 8 8 7 4 6 1 4 5 7 7 10 18 18 19
14 14 16 17 16 12 8 10 8 6 9 4 3 3 3 7 2 2 4 2 2 4 2 1 2 1 2 3 9 6 7 5 2 6 3 3 6 7 8 18 19 13 10 8
15 14 12 6 5 4 2 5 8 12 7 3 2 4 3 3 2 1 3 2 2 2 1 1 3 1 4 4 4 5 4 4 3 4 3 6 8 11 12 12 12 10 5 3
12 5 5 3 4 3 3 2 4 5 3 3 2 1 1 2 1 2 2 2 1 1 3 1 2 3 4 3 7 7 7 5 7 5 5 8 10 11 13 10 6 5 4 4
3 3 2 2 3 2 4 3 3 1 3 3 1 2 3 2 3 2 1 1 0 2 3 2 2 2 4 10 9 8 8 10 10 13 17 16 14 11 6 5 7 2 4 3
7 12 7 3 4 3 5 2 1 2 2 2 1 0 1 0 1 3 0 2 1 5 2 1 2 1 5 9 10 12 16 21 19 24 20 17 15 11 6 3 0 3 3 3
6 5 4 2 3 2 4 6 1 2 1 2 2 1 1 2 3 3 2 3 3 1 2 2 1 3 6 6 5 9 13 20 18 15 14 13 9 6 4 1 2 5 7 7
3 3 3 1 2 2 1 2 2 1 1 1 1 2 2 1 2 1 2 0 0 2 1 2 2 5 5 7 6 6 7 9 11 9 9 6 5 3 3 4 5 7 9 10
3 3 2 2 2 2 2 1 2 1 1 1 2 2 1 1 2 1 2 1 1 2 1 2 2 4 5 4 6 7 7 8 6 1 3 3 3 2 4 6 7 8 11 12
3 3 3 1 3 2 2 1 1 1 1 1 1 2 2 1 1 2 1 2 1 1 1 1 3 3 4 4 4 4 5 2 2 2 3 4 6 6 7 9 10 12 13 15
3 2 2 2 3 2 1 1 1 1 1 1 1 3 2 2 2 1 1 2 1 1 2 1 1 1 3 5 4 2 1 2 5 6 6 6 7 8 8 9 14 16 17 17

GFSNW_925_spd_027.txt.gz
Wind_Speed
42 39 34 30 25 23 29 6 3 5 12 3 0 4 5 3 3 2 2 4 3 5 3 3 3 5 1 1 1 4 1 4 3 1 1 1 1 3 4 3 4 1 0 5
42 40 35 31 27 31 19 4 2 2 4 4 1 2 3 2 1 1 3 3 3 3 4 4 3 3 1 1 3 5 5 1 3 2 2 1 2 3 4 5 2 5 3 4
43 40 36 32 31 35 20 3 3 3 3 0 8 5 4 2 2 1 4 5 4 4 3 4 5 3 1 1 2 6 5 2 4 7 3 2 4 4 4 4 3 4 6 4
43 40 36 32 33 40 11 1 3 3 4 2 5 4 6 5 3 2 2 4 3 5 4 2 3 2 2 3 3 3 2 4 2 1 1 1 2 4 8 8 4 6 3 8
42 38 34 32 35 42 4 4 4 3 2 5 7 2 7 7 3 2 1 6 3 2 5 5 8 6 4 4 2 2 2 3 2 3 1 3 3 5 7 7 4 10 5 14
39 36 33 33 37 41 5 4 3 4 3 3 5 6 6 7 7 2 3 6 5 4 1 3 3 6 7 5 5 3 2 5 3 3 3 2 5 9 12 6 6 9 10 9
35 33 31 31 39 37 6 6 5 4 2 3 5 8 4 7 4 7 3 3 4 1 10 8 8 11 12 12 9 3 5 4 2 2 2 1 4 2 3 12 7 14 5 4
31 30 28 32 41 41 3 7 5 4 3 2 3 6 5 6 5 4 3 3 1 8 3 4 4 4 5 5 7 6 3 4 3 3 3 5 5 4 6 7 6 12 14 6
28 27 29 35 43 42 7 9 8 4 7 5 5 5 4 5 4 3 3 3 5 5 3 3 4 3 3 1 1 3 5 6 3 3 3 5 5 2 2 3 4 2 8 7
24 25 29 36 43 39 8 8 7 5 4 1 4 4 6 5 4 4 4 5 2 2 2 3 3 3 1 3 5 2 2 2 3 2 3 7 6 2 2 2 5 1 6 7
21 23 28 36 43 37 8 8 7 3 3 1 1 2 5 3 2 5 5 4 2 2 3 3 3 3 4 2 3 4 5 6 3 3 1 6 5 3 4 4 2 2 5 8
18 21 28 36 42 36 11 6 7 9 4 3 7 13 8 1 5 6 1 3 4 4 4 1 3 2 1 2 3 1 3 4 3 8 5 3 6 4 2 2 3 2 3 4
17 20 28 35 39 29 11 12 11 5 3 3 4 3 5 10 3 4 5 2 4 3 2 4 2 3 3 4 5 2 4 4 3 1 3 8 10 7 7 6 9 5 6 6
19 23 29 35 32 22 17 4 6 5 4 4 2 5 5 12 3 1 2 10 8 7 2 3 3 3 3 3 2 3 3 6 3 4 8 5 8 8 11 9 6 7 3 3
23 26 28 29 26 26 21 11 7 5 4 4 1 1 9 14 10 15 17 16 6 2 3 2 2 3 4 1 1 3 5 6 4 5 5 3 5 4 3 3 4 4 5 4
29 32 31 31 33 31 16 2 9 8 6 4 3 3 5 12 15 20 12 6 4 2 3 2 2 1 3 3 3 3 2 4 3 4 2 4 7 7 4 5 3 3 7 11
18 19 19 15 11 8 7 4 0 5 6 3 3 2 4 7 5 4 4 6 3 2 2 2 2 2 2 2 3 8 10 10 10 5 3 3 6 5 8 10 16 22 22 23
26 26 27 26 24 17 12 18 11 9 12 4 4 1 3 8 3 2 3 2 2 4 2 2 2 2 1 2 7 12 13 14 2 11 4 3 8 12 13 17 20 17 14 15
18 15 11 6 9 4 2 7 13 19 10 4 3 4 3 3 2 1 2 2 3 1 2 2 2 1 2 4 7 10 11 6 10 8 12 13 15 14 15 17 16 16 11 9
6 1 6 3 4 3 4 5 4 5 4 4 3 1 2 2 1 2 2 2 1 2 0 0 2 3 5 5 5 5 8 10 6 3 8 11 10 13 13 13 12 10 5 3
4 3 3 3 5 3 4 4 4 3 3 3 1 1 3 3 2 2 1 2 0 3 1 2 1 2 2 4 6 7 10 15 16 19 17 16 11 9 7 5 6 5 6 4
7 12 8 3 5 4 6 2 2 4 2 1 2 1 2 1 1 3 0 2 1 2 2 1 2 2 4 5 6 7 10 15 16 19 16 14 13 10 7 4 1 1 1 2
5 5 4 3 3 6 4 5 1 2 2 1 1 2 1 1 2 3 2 3 2 1 2 2 2 3 3 5 4 6 7 9 9 8 6 5 4 4 4 4 4 3 4 5
4 3 5 3 2 2 2 2 2 1 1 2 2 2 2 1 3 1 3 1 1 3 3 3 2 4 4 3 2 6 5 3 4 5 6 6 6 7 7 8 7 8 9 9
4 4 4 3 2 3 2 1 2 2 1 1 2 2 2 2 3 2 3 2 1 2 3 2 4 7 5 5 4 4 3 3 3 4 5 7 7 8 9 11 11 11 12 14
3 4 3 1 3 2 2 2 2 1 1 0 2 3 2 2 2 2 2 4 2 2 2 3 5 6 5 4 4 4 1 2 4 7 8 8 10 9 8 10 15 18 18 19
3 3 2 2 3 3 1 1 1 2 2 2 2 3 1 1 2 2 1 3 3 5 5 4 5 6 7 5 4 1 4 7 8 9 11 11 10 11 16 16 17 19 17 19

GFSNW_925_spd_030.txt.gz
Wind_Speed
34 39 45 41 38 32 31 12 8 13 22 8 5 12 7 4 6 5 7 5 5 12 10 8 9 10 2 4 3 5 2 2 4 5 3 2 2 4 7 4 4 1 2 3
33 37 46 44 42 41 21 10 5 5 7 10 8 5 6 5 6 8 7 7 3 4 8 5 5 6 2 3 5 5 6 4 4 5 4 5 7 8 5 4 1 6 3 2
33 30 45 47 43 43 25 9 7 5 6 4 16 12 13 8 3 4 3 5 3 7 5 0 7 7 3 2 2 3 3 3 6 8 1 1 6 11 11 10 4 4 9 9
34 36 47 47 44 45 16 6 7 10 12 11 13 15 14 11 7 3 5 4 6 7 5 5 5 5 5 3 5 3 3 6 4 1 1 3 4 7 13 16 13 7 8 11
34 34 44 45 45 46 15 8 5 4 14 13 14 13 11 15 6 6 6 7 8 7 4 7 9 9 7 4 6 5 2 3 2 3 2 2 7 9 11 15 15 15 18 19
36 41 43 43 44 40 10 4 3 9 5 12 12 12 14 14 11 2 3 9 7 5 4 4 7 7 7 5 6 6 4 5 4 2 2 3 7 15 17 12 12 14 14 16
34 45 43 41 43 41 15 5 5 5 7 11 14 14 11 13 10 7 4 4 4 5 16 16 14 14 12 10 9 3 5 5 1 1 2 3 1 1 3 13 16 15 18 13
43 40 38 39 39 43 6 6 4 4 4 10 11 13 11 10 6 5 6 4 3 15 3 4 4 2 2 4 7 5 1 4 3 2 4 6 11 3 3 4 6 5 12 12
36 36 37 37 38 49 5 7 7 3 7 7 9 13 12 7 6 5 4 6 12 2 2 2 4 4 3 4 4 3 4 3 1 3 3 4 3 3 1 2 5 6 4 5
35 35 35 36 41 50 5 6 8 4 4 4 8 12 12 5 5 5 6 8 3 1 2 2 2 3 1 5 5 4 2 1 3 3 4 6 1 2 3 3 3 7 5 5
33 33 33 35 45 52 7 6 7 2 3 5 1 3 6 5 6 6 8 6 2 2 2 2 3 2 4 3 2 4 5 6 3 3 3 4 6 6 3 4 4 6 6 5
29 30 32 36 45 50 10 5 11 13 6 4 6 8 5 3 2 6 11 1 6 6 3 1 3 2 1 1 2 3 3 3 1 6 1 3 7 6 4 5 7 8 7 6
27 29 33 38 46 44 7 11 15 8 4 4 4 4 5 6 3 1 5 2 4 4 3 4 2 3 4 4 4 3 4 4 3 1 1 6 7 8 10 9 11 12 11 10
26 31 35 41 49 35 10 10 12 7 4 4 3 3 4 9 2 0 2 9 9 7 2 2 3 3 3 2 0 3 2 7 4 4 10 6 5 3 5 9 9 9 8 7
27 32 37 42 45 26 16 14 8 4 1 4 4 4 8 11 7 11 12 15 8 3 3 2 2 3 4 1 0 2 2 2 2 3 7 5 7 10 10 10 10 11 9 5
31 35 38 41 35 25 11 4 3 5 6 4 4 2 4 9 12 16 13 7 4 3 3 3 3 2 1 4 4 4 6 6 7 5 13 10 9 7 11 10 10 10 10 11
35 40 39 36 32 21 7 2 2 7 5 3 4 3 3 6 4 4 4 6 3 3 3 3 3 2 2 3 3 8 8 8 6 9 9 4 13 7 10 13 17 22 24 23
30 30 28 25 23 23 9 5 5 6 5 3 4 2 2 7 3 2 4 2 2 5 3 2 2 2 1 2 5 8 9 9 6 10 9 8 10 12 13 17 19 18 14 14
26 24 22 13 8 3 3 4 10 14 7 3 3 4 3 2 2 2 2 2 3 1 2 2 2 2 1 2 4 5 8 6 2 8 11 12 14 14 14 14 13 12 8 8
12 7 7 3 3 4 4 4 3 5 5 5 3 1 3 0 1 2 2 2 2 3 2 1 2 2 4 3 2 3 5 6 9 10 10 12 13 12 11 11 12 11 9 7
7 4 3 3 4 2 4 3 4 3 3 3 2 2 4 2 2 3 2 2 0 3 3 2 2 3 2 3 4 4 8 10 14 19 15 15 13 10 8 7 6 4 3 3
8 13 8 4 4 3 6 3 1 3 2 1 2 2 3 2 1 3 1 2 1 3 4 2 3 3 7 6 7 11 14 16 16 15 13 10 9 7 6 4 2 3 4 5
5 4 4 3 4 5 3 5 1 2 1 1 1 3 2 2 3 3 2 3 2 3 2 1 2 6 6 5 6 9 9 10 10 9 7 6 6 6 6 5 5 5 5 6
5 4 4 3 2 3 2 2 3 2 2 2 3 3 2 1 3 1 3 1 2 4 4 3 4 7 6 5 4 8 8 5 6 7 7 7 6 7 8 8 9 10 9 9
4 3 3 3 1 3 2 2 2 2 1 1 3 3 2 2 3 2 3 4 3 2 1 3 6 8 7 7 8 7 5 4 4 5 7 7 7 7 9 10 10 11 12 13
3 5 3 2 2 2 1 2 2 1 1 1 2 3 2 2 2 3 2 2 2 3 3 5 9 10 7 7 5 5 3 4 6 7 8 8 9 9 7 7 11 11 10 11
3 3 3 2 3 2 1 2 2 3 2 2 1 2 2 3 2 3 1 1 3 5 6 6 8 9 8 8 7 4 8 8 8 10 9 8 7 6 8 9 12 12 10 11

GFSNW_925_spd_033.txt.gz
Wind_Speed
38 38 38 34 37 39 35 20 12 23 34 10 10 15 22 16 12 9 9 6 9 12 11 12 12 12 8 8 6 10 3 4 5 13 5 5 9 8 9 5 5 3 3 4
36 39 36 34 40 47 33 13 8 18 28 13 14 18 23 15 14 13 12 11 9 10 10 9 11 11 6 3 7 4 6 7 8 7 7 8 8 9 8 4 1 8 3 3
37 36 30 31 47 49 34 11 11 6 10 16 21 23 22 18 13 11 13 12 8 10 9 6 9 8 3 4 3 3 1 11 9 9 6 3 8 11 11 11 6 8 10 12
37 41 30 31 51 52 34 13 13 13 16 19 21 23 18 22 13 10 13 11 15 11 8 10 7 10 6 5 5 5 4 9 13 14 5 6 8 8 11 16 15 13 12 13
34 39 36 32 54 55 23 11 13 15 17 24 20 21 23 24 19 15 16 13 16 13 9 10 10 12 9 8 9 7 5 5 3 6 8 7 10 11 13 14 16 17 17 17
36 37 35 31 53 54 14 16 7 13 18 24 18 18 22 23 16 2 8 16 10 11 4 7 8 8 4 4 7 10 5 4 4 5 3 5 6 15 17 17 17 12 15 15
33 31 35 33 55 58 25 14 6 10 16 18 20 22 22 21 16 10 5 8 9 6 13 13 12 10 8 7 5 3 5 6 1 0 2 1 2 2 4 6 12 14 13 14
31 29 43 38 54 61 23 9 4 7 5 18 23 21 23 17 9 12 12 6 5 15 8 4 4 2 3 3 3 3 4 5 2 2 6 9 11 5 1 2 4 9 8 10
30 35 43 41 49 56 32 13 9 8 8 13 22 20 17 12 11 7 5 7 8 4 3 2 5 5 6 5 6 3 4 1 4 3 3 4 4 4 1 2 5 7 9 10
37 40 41 42 44 46 44 8 11 7 8 14 14 15 13 13 13 7 7 8 4 3 3 2 3 4 2 5 5 4 3 1 5 5 3 6 5 3 2 5 3 8 10 9
43 42 40 40 43 45 45 9 6 5 5 7 2 6 14 8 12 8 10 7 2 3 3 3 3 1 4 2 2 5 6 7 3 3 2 5 6 6 2 5 7 8 9 9
41 40 38 40 42 43 45 7 3 12 5 7 8 9 9 3 4 6 12 2 11 7 5 1 3 2 1 2 3 3 4 4 1 6 1 5 4 4 4 5 7 8 10 10
34 35 37 38 39 40 33 2 4 8 4 5 5 6 7 5 4 2 4 2 4 5 2 4 2 3 4 4 4 2 3 2 2 1 3 1 3 3 3 7 8 11 11 11
35 36 35 35 36 41 31 4 0 5 5 4 4 4 3 6 1 3 2 11 7 9 4 2 3 3 4 3 2 3 3 6 4 5 8 4 1 7 9 10 9 10 11 10
33 32 32 33 33 36 21 3 4 8 2 4 6 10 7 4 5 7 8 13 9 5 3 2 2 3 4 2 0 3 2 1 3 3 5 4 7 11 9 8 10 10 10 10
30 32 33 35 37 40 16 4 5 8 4 4 4 4 5 9 12 12 8 5 3 3 3 3 3 2 2 3 4 4 4 2 3 3 8 4 5 10 11 12 13 15 16 17
32 34 37 40 45 18 1 2 6 8 6 3 4 4 4 3 5 3 4 5 3 2 3 2 3 3 3 2 4 5 2 2 3 5 7 8 11 7 12 14 17 21 23 23
35 35 35 42 31 8 4 10 8 9 1 1 4 3 3 4 2 3 3 2 2 5 3 2 2 3 1 3 5 4 5 8 7 7 10 10 11 12 13 17 19 16 13 12
43 41 36 23 4 2 5 8 9 4 3 1 3 5 4 2 3 2 2 2 3 1 2 2 3 2 2 4 4 5 6 3 5 10 10 10 12 12 13 13 11 11 7 7
38 26 6 3 3 6 6 12 3 0 2 4 3 1 4 0 2 2 2 2 3 3 2 3 2 2 5 4 3 2 2 2 11 11 8 11 12 12 12 10 9 8 7 7
4 3 3 5 10 4 1 1 0 1 3 3 3 2 5 2 3 3 2 2 1 3 3 3 3 3 4 4 4 3 3 6 9 14 12 13 12 9 7 7 8 6 5 7
8 17 10 3 2 3 4 1 1 3 2 2 2 3 3 2 1 3 2 3 2 3 6 2 3 3 8 8 9 10 14 17 16 15 13 12 9 7 7 6 6 7 7 8
6 4 4 3 4 5 3 3 2 3 2 1 2 3 2 3 3 3 2 3 2 4 2 2 2 7 7 10 11 11 12 13 12 11 10 9 9 9 8 8 8 5 7 8
5 5 5 4 3 4 3 3 3 2 1 2 4 3 2 1 3 0 2 1 2 3 4 3 4 9 9 7 11 11 11 4 8 9 9 8 9 10 11 12 9 9 8 9
5 5 4 4 2 3 2 0 2 2 1 1 3 3 2 2 3 2 3 3 3 3 0 3 6 9 8 8 11 11 9 5 6 8 9 8 8 9 9 7 7 7 8 9
3 5 2 2 2 3 3 4 3 4 2 1 2 3 2 2 3 3 3 3 2 3 3 6 9 9 9 10 8 9 8 8 8 9 10 10 9 7 6 5 8 9 7 8
3 3 3 2 4 3 2 2 2 4 2 2 1 2 3 2 2 3 1 2 3 5 6 6 11 11 10 10 10 7 9 9 9 9 8 7 6 5 4 5 7 8 6 8

GFSNW_925_spd_036.txt.gz
Wind_Speed
30 36 36 35 32 29 32 10 8 27 39 11 10 14 22 22 20 10 10 14 16 13 12 13 13 15 14 11 7 9 10 4 3 9 3 5 7 10 11 3 5 2 1 5
37 36 39 39 36 36 24 7 8 31 36 13 13 18 26 25 22 15 15 11 14 10 12 7 10 6 6 7 5 1 1 3 5 10 6 8 8 11 10 6 3 4 3 3
38 37 40 41 39 39 27 7 9 5 11 12 20 23 21 24 22 17 14 15 13 9 11 9 8 7 3 3 3 4 4 4 9 7 10 4 13 11 10 10 3 4 8 11
43 40 41 41 41 40 28 5 10 10 12 17 19 20 20 24 23 18 16 15 17 11 9 13 8 9 7 4 3 3 2 8 11 14 16 2 10 9 7 11 11 11 10 13
42 45 42 41 41 40 26 9 9 12 8 19 22 22 27 26 24 18 18 13 14 14 10 10 11 12 8 7 7 7 5 5 4 8 10 10 12 14 13 14 13 13 14 13
46 44 42 41 36 40 14 20 15 6 12 23 20 21 22 25 18 18 18 18 15 16 6 13 11 7 1 7 10 9 7 3 2 2 6 7 5 10 16 15 14 10 11 9
39 41 45 39 39 42 18 26 12 6 15 19 24 25 25 23 23 11 12 14 15 10 14 14 12 11 8 7 4 7 5 5 2 1 2 1 7 4 5 5 7 9 8 11
38 38 43 43 45 45 35 27 6 3 7 18 25 28 23 21 17 15 10 7 10 14 11 4 4 2 3 2 3 3 3 4 2 3 4 7 10 1 2 2 5 11 10 10
34 37 38 38 35 46 47 36 14 4 9 17 29 23 20 14 8 1 6 10 6 5 3 2 4 4 6 7 6 1 2 3 3 3 2 4 2 5 3 2 2 8 9 8
34 33 36 35 38 42 38 27 25 5 6 13 20 20 15 10 12 5 11 6 3 3 2 2 2 4 3 6 6 4 2 0 4 3 1 6 6 5 1 2 3 4 5 7
33 32 28 34 39 29 32 37 34 9 5 14 21 14 12 10 14 6 11 6 3 3 2 3 2 2 3 2 6 7 6 6 3 2 2 5 6 5 2 4 5 8 7 7
32 29 29 35 33 28 29 19 39 30 8 4 13 17 15 9 5 7 9 6 10 5 4 1 3 2 2 2 2 6 3 4 3 7 3 5 3 4 5 6 4 5 7 8
31 35 35 32 28 32 39 40 34 14 6 5 6 8 12 11 8 9 4 3 8 6 2 3 2 3 3 3 3 3 4 4 2 2 2 5 5 3 10 10 8 8 8 9
41 38 35 34 36 39 36 29 31 19 5 5 4 4 5 7 6 5 4 7 6 6 5 2 3 3 4 3 1 3 2 7 5 5 3 3 14 13 10 7 10 10 10 15
38 38 35 33 34 33 35 35 30 16 3 4 4 8 7 3 4 6 7 10 8 4 3 2 2 2 3 2 1 1 4 1 3 1 8 3 11 10 10 11 12 11 13 16
31 33 34 32 28 27 15 4 6 8 10 4 3 2 4 6 8 10 8 6 5 3 3 1 3 3 0 3 3 6 8 7 6 4 4 9 12 16 15 13 12 14 14 15
34 33 32 31 32 29 3 4 3 6 4 3 3 4 1 7 8 4 4 3 3 3 3 1 3 2 2 3 2 10 6 5 8 4 3 8 8 9 13 15 15 17 18 17
33 31 31 31 27 18 1 5 7 7 2 4 3 0 3 2 2 2 4 2 3 5 3 1 2 3 2 2 9 9 6 10 8 10 13 13 14 15 12 14 15 13 11 11
34 36 38 28 3 4 4 10 14 14 10 2 2 4 3 3 3 1 2 2 3 2 2 2 3 2 2 6 9 9 5 5 10 10 10 11 13 12 11 12 11 10 6 7
44 44 8 3 1 14 5 3 4 5 2 3 2 1 3 1 2 2 2 2 3 3 1 2 2 2 6 5 7 6 4 10 11 12 9 11 12 12 11 10 8 10 13 13
19 3 3 4 6 3 3 3 3 2 2 2 1 4 5 3 3 3 1 2 0 3 3 4 3 3 5 6 6 5 5 11 7 10 13 11 12 8 7 9 12 11 12 10
9 19 9 5 4 3 5 2 1 1 1 1 2 3 3 2 0 3 2 3 2 2 5 2 3 3 10 8 8 9 10 14 13 17 14 16 13 10 12 12 11 11 12 11
10 7 4 2 4 3 2 4 1 2 0 0 1 3 2 2 3 3 3 3 2 4 1 3 2 7 7 9 10 10 14 14 15 15 15 15 14 14 14 12 8 11 13 11
4 4 5 3 2 2 2 2 2 0 2 2 3 2 2 1 3 2 4 1 2 3 4 3 4 10 8 10 9 11 11 5 11 13 14 14 14 14 16 14 12 11 10 9
5 4 4 3 2 1 0 1 1 3 2 1 2 3 3 3 3 2 4 3 3 4 0 2 6 10 9 10 9 11 6 5 9 13 11 13 15 13 13 11 10 9 10 11
4 5 3 2 1 3 3 4 2 4 3 3 2 2 3 3 2 2 2 4 2 2 3 4 8 10 9 8 10 11 12 9 15 13 12 11 11 12 10 9 9 7 10 10
3 3 3 2 4 3 2 3 3 4 2 2 2 3 4 2 2 2 3 2 2 4 5 5 8 10 8 10 12 12 12 13 14 14 13 11 9 10 7 6 8 7 6 8

GFSNW_925_spd_039.txt.gz
Wind_Speed
40 35 39 39 37 31 29 6 6 24 35 6 5 15 17 13 20 17 10 4 1 7 7 7 9 8 2 5 10 9 8 5 4 18 17 9 5 5 2 4 4 2 5 5
42 38 36 39 38 38 26 5 4 25 33 12 12 7 18 22 20 20 7 3 3 3 7 7 10 5 5 7 5 6 3 2 3 3 3 4 3 4 4 3 3 4 5 5
44 40 33 38 40 42 26 4 6 6 10 8 18 17 17 22 14 21 18 8 7 5 5 3 7 3 2 4 4 2 4 1 6 6 6 2 5 5 5 5 4 3 5 5
37 40 40 32 39 43 26 5 8 8 12 18 13 18 13 19 17 16 9 8 9 7 5 3 5 4 3 3 0 2 4 4 1 5 5 3 4 5 6 4 6 7 8 7
38 41 35 37 40 43 28 3 6 6 4 16 15 20 21 24 19 17 16 13 10 8 6 7 7 8 5 6 2 5 1 2 3 2 6 7 3 5 8 6 5 1 4 6
41 43 40 42 39 44 8 15 10 5 8 18 17 21 23 22 15 12 15 9 7 8 6 6 5 6 7 8 8 6 6 4 3 2 4 6 6 6 6 6 4 3 4 4
42 45 44 46 42 50 13 21 5 4 9 14 20 21 22 21 24 14 13 9 7 3 11 9 8 12 10 11 8 3 6 5 3 3 3 1 9 1 5 6 6 8 9 7
45 44 44 47 45 48 33 14 8 2 3 16 15 22 24 20 15 19 6 2 8 11 6 4 4 5 6 0 3 4 4 5 2 4 4 5 6 2 2 4 4 6 8 8
43 42 43 47 48 44 32 34 16 4 4 11 21 25 19 13 10 2 1 7 4 5 4 3 5 4 6 4 2 8 7 5 5 2 4 6 6 3 4 3 2 4 8 8
40 43 45 46 45 40 27 18 25 5 4 5 8 18 23 13 5 5 2 4 5 3 3 3 3 2 7 5 8 4 3 3 5 2 2 7 5 5 0 6 5 4 7 6
32 37 43 42 41 35 34 29 28 8 4 6 4 11 12 6 7 7 6 4 5 1 3 4 3 3 5 4 8 7 6 6 3 4 3 5 6 3 6 6 3 7 6 5
35 37 40 42 36 40 38 15 25 23 2 5 23 9 9 11 12 9 2 9 6 6 4 3 4 2 2 3 2 3 2 6 6 7 6 6 4 9 6 9 7 5 7 8
31 36 33 35 40 37 36 25 16 12 3 7 5 2 9 21 33 34 6 2 9 2 4 4 3 4 4 3 4 3 2 4 3 5 3 5 12 10 9 11 13 14 12 8
30 31 33 33 33 37 36 22 21 7 3 2 1 1 3 8 23 24 23 9 3 6 4 3 3 4 3 4 4 4 5 4 5 3 10 14 10 7 11 12 16 16 16 14
30 31 28 29 28 28 22 18 20 19 3 2 3 3 11 7 13 18 23 11 6 3 3 3 2 3 4 1 3 1 1 4 4 4 4 10 6 10 13 16 14 12 15 14
27 27 26 26 23 23 12 3 30 33 16 2 2 3 8 4 10 11 9 4 3 3 4 2 2 2 4 3 3 1 6 9 4 4 12 16 14 14 14 15 13 13 13 14
25 27 26 25 30 29 10 6 8 12 22 5 0 3 3 6 6 4 5 6 3 3 2 2 3 2 3 3 4 6 10 9 9 10 17 9 3 8 11 14 17 21 20 19
27 30 31 26 18 12 12 34 13 11 3 4 3 2 4 8 3 3 4 3 3 5 2 3 3 3 3 3 5 8 12 13 12 11 12 14 16 15 11 16 16 12 10 10
32 30 31 26 7 5 8 7 7 21 8 4 3 4 3 3 3 3 4 3 3 2 2 2 4 0 2 3 10 8 8 7 10 13 15 14 14 13 11 11 8 9 6 9
43 36 7 3 5 4 2 2 4 5 4 4 3 2 2 3 2 2 2 1 3 3 2 2 3 2 4 6 7 7 9 12 13 15 8 11 11 12 12 9 9 12 12 14
5 3 3 5 5 5 4 3 4 2 4 3 2 2 3 3 3 3 0 2 0 3 3 4 1 2 4 5 6 4 9 10 6 9 11 11 12 13 13 12 15 16 16 13
7 14 8 5 5 4 6 4 3 5 2 3 3 3 2 1 2 3 1 3 1 2 3 3 3 1 7 7 6 5 11 11 11 17 15 18 17 19 18 16 16 17 18 15
10 6 5 3 4 7 3 2 2 3 2 2 1 2 0 3 3 2 2 3 1 2 2 3 1 5 5 6 8 9 13 18 19 18 21 22 20 22 21 18 20 21 20 16
5 4 6 4 3 3 2 2 2 1 1 2 4 1 1 0 3 1 4 1 2 2 2 4 3 7 5 8 8 12 12 12 13 16 18 18 19 19 22 23 21 20 17 15
5 5 4 4 1 1 0 1 2 3 2 3 2 2 2 2 3 2 3 2 3 4 3 2 4 6 10 10 10 10 12 11 10 15 16 18 19 19 18 17 18 18 16 14
4 6 3 2 1 3 4 3 2 3 3 1 1 2 3 3 3 2 1 5 3 1 2 3 7 9 9 10 10 11 14 17 15 16 17 18 19 18 18 16 16 14 14 12
4 4 3 3 4 4 2 2 2 2 1 2 2 3 2 1 2 3 3 2 2 3 4 4 8 9 12 10 13 12 18 18 17 17 17 18 20 21 19 13 10 11 12 12

GFSNW_925_spd_042.txt.gz
Wind_Speed
39 39 36 38 37 35 31 9 7 29 35 6 4 15 14 9 20 4 5 5 6 8 10 8 9 11 8 5 10 9 7 5 4 8 6 5 1 4 5 4 4 1 4 5
42 41 38 41 39 45 31 6 5 27 29 11 13 7 20 18 10 6 5 5 7 5 6 4 6 3 3 2 6 10 7 1 2 6 6 2 5 5 4 4 3 6 5 5
42 40 41 45 40 48 35 4 9 5 9 5 20 19 15 20 13 20 9 9 6 8 3 5 6 5 2 1 4 2 8 5 7 7 7 4 3 2 1 5 3 4 6 5
42 42 41 45 42 51 39 5 8 8 14 17 16 20 15 20 15 11 10 9 17 12 5 5 2 5 3 1 3 3 4 5 5 5 4 2 3 5 3 5 4 5 9 8
43 40 42 44 46 52 30 6 4 6 4 17 18 20 23 26 18 12 17 12 12 7 8 8 7 7 4 5 1 4 2 3 2 2 3 2 2 4 4 5 3 5 5 2
39 40 36 52 44 46 9 15 5 3 10 18 17 21 23 25 20 12 24 11 13 6 10 5 5 6 8 10 8 5 6 5 3 4 3 3 5 7 7 5 3 5 5 5
39 33 42 48 47 33 9 19 2 3 9 14 19 22 18 27 21 21 12 19 14 5 7 6 9 12 10 10 6 5 6 5 3 3 3 2 7 4 5 9 5 7 8 5
38 37 39 39 42 39 29 8 7 2 4 13 11 24 21 19 17 16 22 8 7 11 4 4 6 5 5 3 7 3 5 5 3 4 3 4 5 5 6 6 1 1 7 5
39 44 39 42 40 40 38 29 7 3 2 8 16 15 20 16 9 15 7 2 3 2 3 3 5 5 5 4 3 6 7 4 4 3 4 7 7 3 5 5 2 5 7 5
43 42 41 43 43 40 32 20 25 2 3 4 17 15 16 10 6 4 3 5 2 3 3 3 3 3 7 6 9 5 3 3 5 2 3 7 7 6 3 6 6 6 7 7
41 42 42 42 44 39 33 26 22 12 3 6 6 6 9 12 13 8 4 4 2 2 4 4 3 3 5 4 6 7 7 6 3 3 3 6 6 4 7 6 4 7 6 6
39 41 42 42 37 39 39 11 20 23 3 5 19 23 23 17 12 6 1 3 5 4 4 1 3 2 2 4 3 3 1 7 6 8 5 3 3 5 5 7 8 4 8 6
39 39 40 39 39 42 39 12 16 13 5 7 3 6 7 13 32 29 5 2 6 6 4 3 3 4 4 4 4 4 2 4 4 5 5 5 7 8 7 7 10 7 7 9
32 42 41 41 40 33 30 14 12 16 3 2 5 6 8 7 25 34 19 12 4 6 5 2 2 4 3 4 4 5 5 7 6 4 1 9 8 6 11 13 12 14 12 12
31 34 36 34 34 31 25 21 20 19 3 2 5 12 8 3 15 14 23 17 7 4 4 1 2 3 4 1 3 1 4 7 5 5 11 5 4 4 8 13 11 11 15 12
27 29 27 27 25 23 17 4 19 29 3 2 3 5 5 9 9 7 6 5 4 3 4 1 3 1 3 3 3 3 0 2 6 6 7 13 13 9 8 14 12 13 14 15
24 23 22 21 24 33 8 6 3 33 10 1 3 6 1 4 1 2 3 4 2 3 3 2 2 2 3 3 4 6 4 10 14 19 18 10 1 7 11 16 18 22 21 20
18 18 19 24 27 26 16 14 7 14 12 3 1 4 2 4 2 1 1 3 3 4 2 2 3 3 2 1 3 10 9 13 10 6 8 13 16 15 14 19 20 15 13 12
22 24 24 19 14 5 12 20 10 4 8 3 2 2 2 3 1 2 3 3 3 2 2 2 3 1 2 2 11 12 11 6 13 14 17 16 16 15 13 13 12 14 10 11
29 20 7 1 6 5 16 4 2 2 3 1 2 1 1 1 2 3 3 2 2 3 2 1 3 1 2 3 5 8 12 17 17 17 9 13 13 14 13 12 9 11 11 14
15 5 2 14 26 4 1 2 2 1 4 3 1 2 3 5 4 2 2 1 1 3 2 4 2 1 3 2 7 8 11 10 5 9 12 12 16 15 14 12 15 17 16 15
8 16 8 6 3 2 4 1 3 4 1 2 2 3 3 3 3 3 2 3 3 2 2 3 3 2 4 7 7 8 9 12 12 17 14 18 21 20 19 18 17 16 18 18
11 5 4 3 3 7 4 2 1 2 2 2 1 3 2 3 4 3 2 3 3 1 2 4 2 4 5 6 8 9 12 17 18 16 21 23 21 21 25 20 19 21 19 19
4 4 5 4 4 4 2 2 3 2 2 2 3 2 3 1 3 1 3 1 1 2 2 4 2 6 5 7 10 15 14 14 15 15 20 21 22 20 20 21 23 23 18 16
5 5 5 4 1 1 1 1 2 1 1 2 2 2 2 2 4 1 2 2 3 3 3 1 3 5 9 10 12 13 13 12 13 18 19 19 20 20 17 19 20 22 21 18
4 6 3 2 2 4 4 4 3 4 2 1 1 3 3 3 3 2 1 4 3 0 1 1 6 9 9 12 11 12 16 17 17 18 19 18 17 18 18 20 18 17 17 16
4 3 2 1 3 2 0 2 2 3 2 2 1 4 2 2 3 3 3 2 2 1 2 3 7 10 11 12 12 15 18 17 18 18 17 17 19 23 19 14 14 13 14 15

GFSNW_925_spd_045.txt.gz
Wind_Speed
48 47 46 44 41 37 33 9 5 28 35 10 4 13 5 4 15 2 4 2 5 5 7 8 9 10 10 9 10 9 7 6 5 9 3 1 3 5 5 4 4 1 4 6
48 52 50 45 44 42 28 8 5 26 33 12 16 8 15 9 8 7 6 6 5 4 4 5 6 8 6 5 9 10 8 1 2 7 4 2 4 4 4 4 3 6 5 6
46 55 51 48 44 43 24 5 7 6 12 14 20 21 14 20 13 15 2 3 3 1 4 4 8 6 4 6 7 7 7 4 8 9 9 4 3 4 4 5 3 4 6 6
53 54 50 48 45 49 26 5 8 7 14 21 17 19 15 20 16 13 6 5 7 2 2 2 4 3 2 3 6 2 6 4 4 4 4 3 4 4 7 6 6 6 8 7
54 55 50 44 48 53 26 7 5 4 4 18 24 18 21 24 23 7 12 15 4 14 9 8 7 6 4 6 2 4 3 4 3 2 3 4 4 6 6 6 3 6 5 5
57 53 53 52 47 50 14 18 4 3 11 19 19 28 23 23 19 17 15 16 12 6 12 9 14 7 4 9 10 6 5 6 4 4 2 2 5 8 8 6 5 6 6 8
56 55 51 47 50 56 22 28 3 4 9 14 24 19 20 22 25 20 16 23 11 5 4 2 5 8 9 8 6 3 7 6 3 3 3 3 7 3 4 5 2 4 5 6
54 50 52 49 50 50 43 17 5 2 4 13 14 17 23 15 19 19 19 8 18 8 2 2 3 5 4 3 7 5 3 5 3 5 4 5 3 3 7 6 2 3 7 8
49 48 47 45 45 47 46 10 25 2 2 11 8 18 18 13 16 10 14 9 5 4 3 3 6 5 5 4 3 4 6 6 5 3 5 7 8 4 5 6 2 5 5 7
47 45 44 42 44 44 43 9 18 3 2 3 12 9 15 13 8 6 5 11 3 3 3 3 4 4 6 7 10 6 3 3 6 3 3 7 7 5 5 6 7 8 7 7
44 40 39 37 41 38 39 16 13 4 1 5 4 5 4 6 12 12 4 6 2 2 4 4 5 3 6 4 5 7 7 7 4 3 3 6 5 4 8 6 3 7 6 5
36 34 34 36 33 34 36 9 14 11 1 3 10 16 25 14 9 8 5 4 6 6 4 2 3 2 2 4 3 2 3 7 6 8 6 3 3 4 1 4 9 5 7 6
34 34 35 34 33 32 30 11 13 6 2 6 3 7 14 20 28 24 7 2 2 3 3 4 2 3 4 4 5 4 2 3 4 4 1 1 3 3 3 4 5 7 8 14
33 32 32 31 30 31 32 23 11 9 1 1 6 10 8 11 16 23 20 8 6 4 2 3 3 2 2 3 4 5 5 7 7 3 2 3 5 3 5 9 10 14 11 9
33 32 31 32 31 28 27 22 18 17 3 1 5 16 5 8 10 19 25 10 5 3 2 2 2 3 3 2 2 2 5 7 6 5 12 5 5 7 7 10 9 10 16 12
37 32 33 32 29 28 21 2 23 15 11 1 4 5 4 6 3 8 10 9 3 3 4 3 1 3 4 2 3 2 2 3 4 6 12 6 11 7 5 11 9 11 13 14
33 34 34 33 35 27 4 4 3 36 20 2 2 4 4 3 1 2 3 3 2 2 3 1 3 3 1 4 3 4 4 7 11 15 17 9 4 6 10 13 16 19 18 18
30 25 27 30 27 23 13 14 8 38 9 2 2 4 4 3 1 3 0 3 1 3 2 2 3 2 2 3 1 5 9 13 10 5 7 11 17 14 13 18 18 15 13 13
29 30 29 24 9 5 6 14 22 16 5 3 2 2 3 3 2 2 2 2 2 1 2 0 2 0 4 1 8 11 14 6 13 13 16 17 17 16 15 15 13 16 11 9
27 25 4 3 12 17 18 8 3 2 2 2 3 2 2 3 1 3 3 3 1 2 2 2 3 2 2 4 4 7 10 15 17 19 11 13 14 14 15 14 12 12 12 15
9 3 3 18 28 7 2 3 1 2 2 2 3 4 3 2 2 3 1 3 4 4 3 3 1 3 3 3 7 9 11 10 5 10 11 8 16 17 16 14 14 17 17 15
16 14 17 5 3 3 3 3 2 2 3 2 1 1 2 1 2 3 2 3 2 3 2 4 3 2 3 6 9 10 9 10 12 16 16 16 18 20 18 17 18 17 18 21
3 5 5 1 1 3 3 3 1 1 3 3 2 1 1 2 3 3 3 4 1 1 2 2 2 1 4 7 9 10 11 14 14 16 20 22 21 21 24 19 18 21 19 19
3 3 4 3 3 3 2 2 0 1 2 1 2 2 2 2 4 1 5 2 2 3 3 4 1 3 6 8 8 13 12 12 15 15 20 20 21 19 18 20 23 23 18 17
4 4 4 4 1 1 1 2 1 2 2 2 2 3 1 3 4 3 3 3 2 2 2 0 1 4 8 10 11 12 12 11 12 17 17 20 21 20 18 18 20 23 22 20
3 7 4 4 3 5 3 6 4 4 3 1 2 3 4 4 2 3 4 2 2 3 3 2 5 8 9 11 11 11 13 15 16 18 20 21 20 18 18 19 21 21 21 20
5 4 4 3 3 4 4 4 4 4 2 2 2 5 4 2 3 3 4 3 3 3 2 3 5 8 10 10 11 14 17 17 18 18 17 17 19 22 20 16 15 16 17 17

GFSNW_925_spd_048.txt.gz
Wind_Speed
51 48 46 46 48 39 35 8 6 18 37 12 7 17 8 6 17 2 4 2 3 3 6 6 8 10 9 9 10 8 6 5 5 9 1 2 4 7 6 4 4 1 3 6
53 49 47 47 49 51 32 5 5 26 31 14 17 9 16 6 6 8 4 4 4 3 1 3 7 7 5 9 8 9 7 1 1 7 5 2 3 5 4 5 4 6 5 6
55 51 48 49 48 49 37 4 7 5 10 13 16 21 17 22 6 8 2 2 2 2 4 4 3 6 4 7 8 8 8 4 8 9 8 5 4 5 5 6 4 5 6 6
58 54 51 53 56 51 35 5 7 6 14 20 18 19 14 19 17 14 10 3 6 2 5 3 4 2 3 2 5 5 6 8 6 3 3 5 5 5 8 6 6 6 7 7
60 57 54 56 60 51 28 5 3 3 9 17 20 14 22 24 21 9 14 6 9 10 5 5 3 2 2 5 4 7 2 4 3 3 3 1 4 4 7 4 3 5 4 6
59 56 57 60 62 53 11 8 3 2 12 20 16 25 21 19 19 18 7 20 10 5 15 12 11 7 5 3 3 9 8 7 3 4 3 3 5 8 7 6 5 7 7 10
58 56 58 63 64 65 12 9 1 3 5 13 23 19 17 24 23 12 19 11 6 6 2 1 2 3 2 7 3 3 7 7 3 3 3 2 6 2 3 8 6 5 4 4
57 55 63 63 60 52 27 14 8 3 5 9 12 17 23 11 14 15 11 14 8 4 5 3 0 4 1 2 5 3 1 6 3 5 4 5 3 5 7 7 9 6 5 6
58 59 60 63 55 55 39 15 18 2 2 11 12 14 14 16 12 5 11 9 4 3 2 3 3 5 5 5 2 2 6 6 5 3 5 8 8 5 5 5 5 7 8 9
59 58 58 54 46 45 38 21 13 4 2 2 9 11 14 10 9 3 5 9 5 7 3 2 4 9 4 6 10 5 3 3 5 3 3 7 7 4 5 5 8 9 13 11
56 55 52 48 40 37 31 24 21 3 4 4 4 3 6 9 16 7 4 5 5 2 7 5 4 4 6 3 4 7 7 7 3 3 3 7 8 4 9 7 1 7 7 8
50 48 44 39 36 36 32 9 26 19 6 2 4 9 12 5 5 8 5 5 6 8 4 1 3 2 1 4 4 1 3 6 6 9 7 4 6 4 3 5 5 7 8 6
39 37 37 36 34 37 34 17 23 21 3 3 1 6 2 5 16 16 5 3 4 2 2 4 3 4 5 4 5 3 3 3 4 4 5 5 4 3 3 2 4 6 5 12
34 34 33 33 37 39 33 20 25 22 3 2 5 5 8 5 12 23 20 4 3 5 3 2 3 3 4 4 3 4 4 7 6 3 4 1 6 5 4 5 8 13 9 7
31 31 32 31 37 43 28 24 17 15 3 3 4 15 8 12 12 18 21 12 4 3 3 2 3 3 3 1 1 2 5 7 6 8 10 7 5 9 6 8 8 11 17 11
32 34 34 33 31 30 17 3 16 7 3 1 2 4 4 2 8 12 10 10 4 3 4 3 3 3 2 4 3 5 6 6 2 4 9 4 10 8 4 10 9 9 12 13
32 30 30 30 29 29 3 4 6 28 2 2 3 4 3 2 4 2 2 2 2 3 3 2 4 2 4 2 5 3 3 4 5 9 13 7 4 6 10 14 13 19 19 18
30 31 29 28 26 19 7 3 6 29 7 1 2 4 4 2 2 2 1 3 2 3 3 2 3 2 2 4 3 5 5 9 9 3 5 6 14 15 14 16 17 15 14 13
29 31 31 24 9 4 6 5 16 16 6 2 3 2 2 1 3 2 1 1 2 1 2 1 2 2 5 5 4 7 9 6 12 9 11 13 15 15 14 15 13 17 14 13
38 35 7 3 8 11 22 4 3 1 2 2 3 2 2 3 1 1 2 1 2 2 1 3 2 3 3 1 1 5 7 12 15 16 9 13 14 14 13 13 11 14 15 17
14 3 2 9 24 7 2 4 7 5 5 4 4 4 2 0 1 1 3 2 1 3 3 4 2 3 3 1 7 7 9 9 3 7 8 8 15 17 16 14 11 17 19 17
4 8 14 11 2 2 4 3 2 3 4 2 3 3 2 1 2 2 0 1 1 3 3 3 2 1 3 2 5 7 7 9 9 11 14 14 14 17 15 15 17 20 22 23
6 3 3 2 0 3 2 2 1 1 0 1 1 1 2 2 2 2 0 3 1 2 1 2 1 4 2 6 8 9 9 11 13 14 17 20 20 21 23 19 20 24 23 21
2 3 4 3 3 3 2 2 1 1 1 2 1 2 2 1 3 1 3 1 2 3 2 2 2 1 4 6 6 11 11 11 14 14 16 17 19 18 20 22 24 25 20 20
3 4 4 5 2 2 2 2 1 3 1 1 1 3 2 3 4 2 2 2 3 3 2 3 3 4 5 7 7 9 10 10 11 12 13 16 20 20 20 19 20 23 25 23
3 6 4 4 4 7 6 6 4 4 4 2 2 3 3 4 2 4 4 3 4 3 3 3 2 5 6 7 7 8 9 10 12 16 18 19 20 20 20 19 20 22 24 23
5 4 7 5 3 4 4 5 6 4 2 2 3 5 4 3 4 4 5 3 4 5 4 2 2 5 7 9 10 10 14 15 17 19 19 19 21 24 20 15 14 16 17 17

GFSNW_925_spd_051.txt.gz
Wind_Speed
53 53 52 48 42 40 40 13 10 24 38 13 10 17 14 11 17 2 5 1 3 3 4 5 7 10 8 9 12 10 6 4 4 6 1 1 3 6 5 3 4 0 1 5
56 55 55 52 46 45 33 8 7 23 30 14 15 12 17 10 11 10 6 6 4 2 2 3 5 6 4 8 9 9 8 2 2 1 1 2 3 4 4 4 3 7 4 4
58 57 59 56 51 51 32 5 7 5 12 13 18 19 21 23 16 8 4 3 2 1 3 2 1 4 3 7 5 6 9 4 6 9 7 5 4 6 7 5 3 5 6 6
57 59 62 59 55 55 32 5 6 7 11 20 19 21 17 26 13 18 11 5 11 4 5 3 3 1 1 1 6 4 5 7 6 5 5 6 6 6 11 10 7 8 8 9
59 60 65 61 58 59 26 5 4 3 5 23 19 16 18 28 26 13 19 13 8 11 8 6 2 5 3 4 0 5 2 4 5 4 4 7 6 5 8 10 4 9 7 6
56 62 66 62 60 63 11 12 8 8 11 18 16 20 20 20 20 15 8 16 6 6 13 11 5 4 5 4 4 3 3 6 4 4 2 3 3 8 10 6 5 7 8 11
58 65 66 62 63 63 21 11 4 8 9 13 20 13 14 19 25 9 14 13 14 4 1 1 2 1 2 6 6 5 5 5 1 3 1 5 2 2 3 8 5 9 5 4
57 67 65 63 64 68 18 18 4 4 9 12 15 16 22 9 13 16 14 6 5 5 4 3 2 3 3 0 1 5 3 5 3 4 4 4 1 4 7 7 15 9 13 7
63 67 64 61 61 66 17 23 12 2 7 5 9 17 17 14 12 6 7 2 3 6 2 2 2 5 3 3 2 3 4 3 4 3 5 8 6 4 5 4 12 9 11 11
65 63 61 58 58 61 37 8 20 5 1 3 1 9 14 13 6 5 4 8 3 4 2 2 3 4 6 2 4 6 3 2 7 3 4 6 6 4 5 5 10 5 12 13
61 59 55 54 56 55 44 8 16 9 1 3 4 5 5 8 14 7 4 6 4 2 5 4 4 4 6 5 3 4 7 7 4 3 2 7 8 6 9 7 3 5 10 12
55 52 51 52 50 49 34 7 13 11 2 4 3 7 17 7 22 9 10 6 6 7 4 4 3 2 0 6 8 2 5 5 5 9 7 2 10 4 6 5 4 6 11 11
50 50 51 48 46 42 27 16 18 7 3 6 4 6 2 8 12 26 6 2 4 4 3 5 3 5 5 4 6 3 5 4 4 3 5 7 7 4 4 4 5 5 9 17
47 48 44 41 40 39 29 15 15 18 2 4 5 10 10 10 16 17 10 3 4 4 2 2 2 3 4 5 3 7 5 6 5 4 5 2 9 11 5 5 5 10 11 11
42 40 37 34 34 29 25 17 18 22 2 3 2 3 8 11 17 17 18 9 3 2 2 2 3 1 3 0 1 3 5 7 6 7 8 6 7 11 11 11 11 14 16 14
36 32 31 33 37 31 17 2 10 14 14 3 2 4 2 3 16 15 12 9 4 3 3 3 2 2 3 5 6 5 9 6 2 4 3 2 4 5 7 8 13 11 13 16
31 28 29 34 35 30 6 5 5 33 19 4 2 3 3 5 5 3 3 4 3 2 3 3 3 2 2 2 4 4 4 5 4 4 8 2 4 4 8 14 14 19 18 18
33 31 32 36 30 17 4 7 8 40 7 2 2 3 2 4 3 4 2 3 3 2 3 1 3 2 1 4 5 4 5 6 3 5 3 1 11 16 12 14 16 17 16 16
33 33 34 23 6 3 3 5 29 12 4 1 1 2 3 1 1 2 2 1 3 2 3 3 5 3 6 5 7 7 10 8 9 7 8 9 9 16 16 15 15 18 15 16
33 31 4 2 5 12 20 8 3 1 1 1 2 2 2 1 1 2 2 1 2 4 3 5 4 5 1 2 3 3 5 7 11 9 7 11 13 14 16 14 12 14 15 14
10 3 2 5 22 4 3 2 2 2 3 4 4 7 4 3 2 2 2 1 1 1 3 6 3 2 0 1 4 4 5 8 3 5 7 5 12 13 14 13 13 15 19 15
6 7 15 10 3 2 3 3 2 5 6 4 4 3 3 1 2 2 1 2 1 3 0 3 3 3 4 1 6 9 7 4 7 7 14 13 14 13 14 14 13 17 22 25
3 2 3 2 3 6 6 8 4 3 1 1 2 2 3 2 2 2 1 2 1 1 2 2 2 5 3 3 2 8 8 8 11 14 13 18 19 20 20 15 20 23 23 22
2 0 3 2 2 3 1 2 2 1 1 1 2 2 2 2 2 2 2 0 1 2 4 4 4 6 5 5 5 8 10 8 13 13 13 13 16 17 20 22 23 25 22 20
2 3 4 4 3 4 4 2 1 2 1 1 2 2 2 2 3 1 1 3 4 4 4 4 7 6 5 6 7 8 9 9 10 9 11 13 18 19 20 20 23 26 24 21
3 7 5 6 5 8 6 7 5 4 4 0 1 3 4 5 3 4 6 3 5 4 5 7 6 5 6 6 8 9 9 10 10 15 17 19 18 19 19 21 20 20 22 20
5 4 9 6 2 4 5 5 7 4 2 3 3 6 5 3 4 4 5 4 5 9 8 5 6 6 6 8 9 8 13 13 17 19 20 21 21 23 22 17 15 15 15 16

GFSNW_925_spd_054.txt.gz
Wind_Speed
48 49 49 49 48 43 36 15 10 24 36 9 6 17 30 16 23 16 6 4 6 5 8 14 19 22 15 17 21 21 16 9 9 13 3 5 9 11 11 7 6 3 4 8
47 50 50 53 53 51 36 7 4 30 31 13 15 25 29 28 22 23 13 11 7 4 2 5 16 12 12 13 19 18 13 9 10 9 6 4 9 11 12 7 3 11 7 5
49 49 52 56 59 56 37 6 6 5 12 18 29 25 26 29 26 25 13 11 8 7 4 4 3 8 5 11 16 1 16 14 16 13 13 11 11 13 15 14 8 11 11 12
51 50 53 56 63 62 36 8 7 9 15 19 29 29 22 27 21 23 19 15 17 11 6 3 2 1 4 5 4 6 11 16 17 17 16 15 16 14 15 16 16 13 13 15
53 53 54 57 66 66 23 6 8 14 14 26 31 28 27 27 32 24 24 18 20 11 12 4 5 5 8 2 4 6 6 10 10 12 13 13 16 17 18 18 17 12 16 17
56 53 54 57 69 66 9 17 19 13 16 24 21 25 29 31 26 27 26 21 13 18 18 10 5 5 6 7 5 6 4 9 8 13 8 8 6 15 16 16 14 14 14 14
57 53 54 56 71 66 26 29 11 10 13 15 22 30 28 26 27 28 13 21 17 8 5 4 2 3 5 9 10 10 5 9 5 5 4 7 10 3 17 18 15 14 15 13
54 54 56 60 71 67 27 35 14 9 12 18 20 27 32 21 19 23 20 13 16 7 7 4 6 5 4 9 7 12 14 7 4 4 9 10 3 5 8 13 15 16 18 18
54 53 56 62 70 67 28 28 27 6 12 16 22 19 24 21 18 19 18 17 7 12 5 5 9 8 6 7 4 2 7 8 7 3 7 8 9 12 11 4 14 11 12 13
51 52 54 69 65 60 30 18 27 13 9 12 13 14 18 22 17 15 15 10 8 10 7 4 5 6 6 9 10 5 5 4 11 11 7 6 4 9 11 10 15 4 8 8
49 50 61 67 63 38 38 22 21 17 8 7 7 12 15 18 16 14 15 11 7 7 9 7 5 4 5 5 11 7 8 8 5 7 6 11 11 10 12 13 4 7 9 11
46 57 64 63 60 39 29 11 10 9 3 4 5 5 9 9 18 15 14 13 12 7 7 5 5 3 2 8 6 6 6 6 4 7 6 4 19 14 16 6 8 7 10 11
54 59 59 56 58 47 23 15 16 12 3 3 4 6 5 11 11 14 9 9 9 15 8 5 4 5 6 5 9 6 6 5 4 5 10 13 13 16 6 8 8 6 8 14
55 53 52 46 52 35 31 18 9 9 4 3 3 7 9 25 19 18 17 7 11 5 8 6 4 3 6 7 9 12 10 10 13 14 14 12 13 14 14 10 8 8 10 14
49 46 47 45 39 31 23 18 11 7 2 2 4 9 16 14 15 21 18 12 11 6 6 3 5 3 3 2 2 11 8 8 8 9 12 8 16 3 14 15 15 11 15 17
45 45 46 44 37 32 20 3 2 5 3 1 2 3 12 18 22 22 19 14 10 5 5 5 6 1 5 4 7 13 15 13 14 10 4 7 3 5 4 13 12 13 15 19
48 47 44 42 35 25 5 4 10 18 11 1 3 3 5 18 9 9 7 12 9 9 8 5 5 6 5 3 10 7 12 15 13 6 5 5 6 2 7 6 10 10 13 16
37 34 32 30 22 11 2 5 23 24 8 2 3 3 3 14 7 4 5 5 6 8 7 3 8 4 3 6 13 17 14 6 8 10 7 3 5 7 9 11 11 14 16 16
36 36 33 21 5 3 3 5 29 13 5 3 3 3 3 1 2 3 2 2 3 2 5 5 6 7 8 7 15 12 12 9 10 8 7 7 8 11 11 13 15 14 15 16
43 30 5 3 5 5 25 7 5 3 5 4 3 2 2 3 2 2 5 3 2 3 5 5 4 10 11 0 4 5 5 6 6 4 6 9 8 10 14 14 10 11 13 15
4 2 2 6 16 5 1 3 5 5 3 4 4 4 1 4 2 2 2 3 3 3 2 5 5 2 4 13 10 6 5 5 5 5 4 5 5 10 11 10 11 13 15 15
4 7 11 6 4 1 2 4 1 5 3 4 5 5 5 3 2 2 1 2 1 1 1 1 2 4 11 10 7 6 3 1 0 2 2 4 8 10 12 13 12 17 21 25
4 4 2 1 1 4 4 7 4 4 2 3 2 3 3 2 3 3 2 2 2 1 2 3 3 8 9 10 6 6 6 6 9 11 11 12 10 12 15 14 22 25 24 24
3 2 3 2 1 2 2 4 4 3 1 0 4 2 2 1 2 1 2 2 1 2 3 4 7 14 11 7 6 7 9 9 11 12 13 14 13 14 20 20 22 25 23 23
5 5 4 4 3 4 6 5 1 3 3 1 2 3 2 2 2 2 2 3 5 5 4 5 10 11 7 6 6 7 7 8 11 10 12 12 17 18 20 21 23 26 26 25
3 6 6 7 4 6 6 5 3 3 3 1 2 2 3 4 3 4 6 3 6 5 6 9 8 8 8 8 8 8 10 10 12 16 17 19 20 20 23 25 25 24 24 22
4 4 7 7 3 5 7 7 7 3 1 3 3 5 7 3 4 4 5 4 5 8 8 8 10 10 10 11 11 10 14 15 18 21 22 21 22 25 26 19 21 22 20 20

GFSNW_925_spd_057.txt.gz
Wind_Speed
49 48 46 45 45 42 40 13 8 20 34 9 6 18 33 20 27 33 21 18 21 27 14 18 19 20 19 9 17 25 23 11 11 17 18 20 9 17 18 10 13 9 8 11
51 50 49 47 49 50 36 6 6 20 32 13 15 28 38 33 26 27 25 20 21 10 11 13 21 19 15 11 19 23 21 13 12 15 11 10 12 15 15 16 11 11 4 8
44 47 53 51 53 57 39 6 8 5 13 20 26 33 37 34 28 27 27 23 20 17 17 11 8 19 6 9 13 13 18 17 20 14 18 15 19 17 16 14 9 12 14 16
44 43 48 55 56 61 43 8 8 11 15 21 31 29 23 29 32 28 21 23 27 20 14 15 11 11 6 3 7 6 16 22 20 21 19 16 17 23 21 20 18 17 15 17
48 48 44 42 55 63 28 5 9 16 12 24 30 29 33 33 30 29 25 24 29 22 21 15 11 10 6 7 9 14 17 15 21 22 19 19 18 18 18 20 18 17 19 20
54 54 53 53 53 58 7 12 25 14 19 25 22 26 34 38 33 31 31 26 17 22 19 5 5 6 9 1 8 12 13 13 16 16 17 19 16 17 18 18 17 15 17 15
54 56 56 56 59 60 17 26 19 11 14 17 25 31 33 33 32 30 30 27 21 23 4 3 2 4 4 2 8 9 7 14 11 9 2 13 10 14 20 21 20 18 17 17
54 57 59 58 57 62 26 30 19 9 11 21 22 26 27 29 29 20 28 23 18 7 6 2 8 5 3 9 13 14 10 10 8 8 13 13 18 9 12 15 16 16 16 15
52 57 57 58 54 59 39 28 34 11 13 15 26 20 24 21 19 21 24 21 8 10 7 6 14 11 11 9 7 12 14 12 10 6 14 18 14 15 12 14 14 15 14 12
49 54 56 54 53 55 43 21 35 16 10 12 11 13 17 23 21 16 20 24 12 11 7 9 13 11 13 11 11 7 6 7 13 12 8 8 10 14 12 12 16 12 7 7
48 53 54 52 55 55 39 26 37 18 7 6 6 10 18 17 20 15 13 17 10 10 10 9 10 7 11 10 13 18 12 7 6 10 11 15 3 9 15 15 15 8 9 9
50 51 50 53 51 59 29 19 30 18 2 0 5 5 6 9 14 15 13 20 21 10 10 7 8 5 2 9 9 16 15 8 8 9 6 6 11 13 16 17 12 7 10 11
46 46 47 47 57 49 24 21 24 17 5 2 6 10 9 8 9 15 8 13 17 18 13 6 5 5 7 5 10 8 8 4 13 13 15 15 13 12 14 11 13 12 8 9
42 42 43 53 55 36 24 22 20 17 6 3 7 5 12 11 17 14 11 15 23 7 9 6 5 5 8 7 8 10 10 10 10 15 15 13 15 10 10 14 11 11 8 10
41 59 59 49 45 34 24 16 7 11 0 3 5 3 7 13 13 17 20 13 12 9 9 5 7 8 8 5 8 10 13 15 10 8 10 10 12 11 4 11 15 14 13 12
56 56 46 35 39 37 24 3 1 13 12 3 3 2 7 15 18 21 15 10 10 10 11 8 8 13 10 5 11 15 17 16 17 14 12 13 11 4 5 9 13 11 12 13
49 47 44 40 34 23 5 2 9 14 6 1 2 4 1 12 7 5 6 12 10 7 8 6 10 11 7 8 12 12 11 12 15 15 7 9 10 6 3 8 10 7 11 13
50 46 40 30 27 20 9 11 19 17 6 2 2 3 4 14 4 2 8 10 10 6 6 4 9 8 5 7 14 20 21 18 15 12 9 12 5 3 6 6 6 10 12 12
42 39 33 19 6 2 6 15 14 3 2 4 3 3 2 7 5 4 5 6 8 4 8 10 5 8 8 7 10 12 12 11 14 10 10 10 11 9 6 6 8 10 8 11
38 24 5 4 6 17 24 5 1 2 3 2 2 2 2 1 2 2 4 2 5 5 5 5 7 10 5 17 15 12 11 12 10 7 9 10 10 8 7 8 7 7 8 10
3 2 3 17 16 5 2 4 3 4 4 5 4 4 1 3 2 3 1 3 2 3 4 6 6 3 11 16 16 15 13 11 10 8 10 9 9 7 5 6 6 7 10 11
3 12 14 5 3 2 2 2 1 2 3 3 4 3 4 4 4 2 4 3 3 3 2 3 3 3 14 12 13 13 13 13 10 8 7 6 5 3 4 6 7 9 17 22
1 2 3 1 2 3 2 4 1 1 2 2 2 0 2 3 3 2 1 2 3 2 2 3 4 11 14 11 9 7 10 12 13 13 14 16 16 23 20 16 20 21 21 21
4 4 4 4 4 6 6 4 4 3 3 3 2 2 2 3 4 3 2 2 1 2 3 4 8 15 11 8 7 7 9 10 11 11 11 14 14 14 21 22 23 25 21 21
5 5 5 5 5 6 5 5 3 4 5 3 2 4 2 1 2 3 1 3 5 6 4 6 10 10 9 10 9 9 9 10 11 11 13 14 20 20 21 23 25 27 27 27
4 7 6 9 3 7 7 6 4 4 4 2 2 2 2 4 3 5 7 3 6 4 5 8 11 11 10 11 11 11 11 12 13 18 20 22 22 22 24 28 27 27 27 25
5 4 7 8 5 6 6 6 5 4 2 2 2 5 6 3 4 4 5 4 4 6 7 7 12 13 13 12 13 12 16 17 21 22 24 24 25 26 27 19 23 25 26 26

GFSNW_925_spd_060.txt.gz
Wind_Speed
44 44 44 42 41 38 37 12 9 21 36 10 5 21 33 26 28 28 28 25 26 24 25 10 19 21 21 16 25 27 25 6 12 15 14 16 19 16 17 9 9 9 5 2
45 42 42 46 45 46 34 5 5 21 30 13 17 23 34 32 31 32 27 23 23 24 23 17 16 21 16 10 15 22 22 14 11 14 15 16 15 12 15 13 10 12 4 6
33 35 34 48 50 51 35 6 7 5 12 18 26 27 33 28 31 31 29 26 24 20 19 18 17 13 15 10 8 4 10 13 14 10 17 13 13 16 18 18 6 6 9 12
36 37 37 47 54 56 41 7 6 12 13 21 31 24 15 32 27 32 29 26 25 20 12 16 21 15 14 14 11 5 7 17 20 17 18 19 20 20 20 21 17 13 19 16
42 42 40 44 56 59 38 6 6 14 12 24 25 27 28 32 28 28 35 28 26 21 21 18 21 22 14 14 12 13 11 14 15 19 17 22 15 21 21 20 19 17 17 17
46 47 46 44 45 63 8 12 22 11 17 21 18 23 34 33 27 26 30 29 24 20 21 5 6 13 18 13 13 10 11 9 13 17 16 18 19 17 17 15 19 16 16 12
49 50 51 50 50 58 15 17 14 5 9 18 21 31 31 31 27 26 27 25 28 23 8 12 3 11 12 15 9 6 2 11 11 4 3 21 11 15 16 15 16 15 14 13
53 55 56 55 53 52 30 18 17 9 6 18 23 27 23 26 24 24 24 24 25 20 5 1 2 4 4 8 1 3 4 3 3 5 11 13 16 15 11 11 17 18 18 17
48 54 60 60 56 54 41 24 33 9 14 14 26 18 22 17 18 19 24 21 19 14 7 4 5 5 9 3 2 8 3 12 6 3 5 14 9 14 16 9 13 14 14 10
48 50 58 60 58 54 48 17 31 10 9 12 15 12 16 20 18 14 16 22 6 5 8 9 7 10 13 8 9 6 4 7 9 6 4 7 8 16 14 15 9 8 10 12
43 43 54 56 56 53 44 25 30 11 7 5 7 7 12 10 13 13 13 12 11 10 11 9 6 5 9 12 15 12 11 10 5 3 3 13 7 8 20 8 10 3 9 6
39 44 51 51 53 53 47 10 29 28 4 1 6 9 8 16 10 4 13 15 7 7 8 5 5 3 5 9 7 10 11 8 6 7 6 7 7 6 7 7 9 9 7 8
37 43 47 48 48 48 41 23 30 15 3 4 4 7 6 5 1 7 6 10 15 18 9 4 4 4 4 3 4 10 9 16 8 10 19 8 14 8 5 5 6 10 8 9
39 42 44 46 45 49 34 21 31 16 4 3 4 10 5 4 9 2 7 8 13 9 8 7 1 4 7 4 4 8 8 5 10 13 10 8 15 9 9 2 7 10 6 4
42 45 46 46 49 47 22 28 30 18 1 3 3 7 11 8 7 13 5 8 8 6 0 4 4 8 4 3 6 7 8 8 5 5 6 3 5 8 11 10 11 12 7 5
47 46 50 48 43 37 26 4 8 16 4 2 4 3 10 13 10 11 13 4 5 5 5 7 7 8 5 3 5 9 11 11 13 12 10 8 8 7 7 8 7 13 8 7
42 53 46 36 30 20 7 2 13 18 10 1 1 3 6 21 7 3 6 8 4 4 6 8 8 7 7 5 8 8 8 12 11 12 9 9 5 3 4 4 8 10 8 4
49 45 38 37 33 21 11 14 18 10 2 1 1 1 2 8 3 3 5 5 4 4 3 2 6 5 6 8 11 11 13 17 18 14 8 3 2 2 6 4 7 6 5 4
44 40 30 22 10 3 6 15 11 3 1 2 2 3 1 3 4 4 5 6 6 3 2 3 4 5 5 8 12 15 15 11 11 13 12 7 0 3 6 1 4 6 4 5
32 15 4 3 4 24 20 5 2 2 2 2 3 2 2 1 2 3 4 3 5 5 5 3 4 2 9 14 13 13 15 16 12 11 10 11 9 7 5 2 3 3 2 4
1 3 4 15 19 1 0 3 2 3 3 4 4 5 4 3 2 2 2 2 3 4 5 6 5 3 10 15 15 13 13 14 14 11 9 9 9 7 5 4 5 7 9 9
6 15 13 6 2 3 2 3 2 3 2 4 4 3 3 4 4 3 3 3 4 7 2 2 3 5 13 14 15 13 13 13 13 15 14 15 15 14 15 15 14 16 22 22
7 4 3 1 2 2 1 3 2 1 5 5 1 3 4 4 6 4 3 4 2 4 3 3 5 12 11 10 10 11 12 13 13 14 15 18 16 22 19 14 19 23 24 24
3 3 4 4 4 5 4 5 4 3 3 7 6 1 2 1 1 2 2 1 2 3 4 4 7 12 10 9 9 10 11 12 12 13 13 15 15 15 22 22 22 25 22 23
5 6 5 5 4 5 5 5 4 4 5 5 2 1 2 3 2 2 1 3 6 7 4 4 9 11 10 10 11 11 12 11 12 13 14 15 20 20 23 26 26 27 28 29
4 7 5 8 5 7 7 7 5 5 6 3 2 2 2 5 4 6 9 4 6 4 4 7 8 12 12 11 11 13 12 13 14 19 21 23 23 23 25 29 29 28 29 28
4 4 6 6 4 6 6 5 6 5 4 3 3 5 5 4 4 4 6 4 6 6 7 7 10 12 12 12 13 13 17 18 21 22 24 25 26 27 27 19 24 27 27 27

GFSNW_925_spd_063.txt.gz
Wind_Speed
40 39 37 36 34 32 30 8 5 22 35 9 7 21 17 15 13 16 14 8 14 18 17 13 10 12 16 14 19 24 14 6 11 13 14 22 16 15 9 5 4 4 5 5
41 40 39 38 37 38 28 4 4 20 30 12 19 21 26 24 19 20 6 12 10 13 18 9 6 6 9 18 12 18 14 15 5 6 9 4 13 6 6 7 4 6 5 4
41 39 38 41 41 44 33 5 6 5 12 15 24 24 22 22 11 25 17 19 20 22 21 15 10 6 7 20 14 18 17 7 15 14 5 4 6 10 11 9 3 3 5 5
34 35 35 39 43 48 37 5 5 6 15 22 20 19 7 23 17 20 15 13 25 20 13 16 8 5 9 16 14 4 10 19 15 8 18 12 16 11 14 18 15 9 7 12
35 34 32 30 40 45 31 5 5 7 8 15 22 20 25 28 15 15 16 21 17 16 20 19 4 4 3 4 12 9 3 3 15 19 12 11 11 17 7 8 10 11 14 18
37 38 36 35 39 39 8 16 12 8 11 11 14 26 33 23 17 18 25 20 20 21 17 10 5 5 3 4 5 9 10 5 5 13 12 10 14 12 14 14 14 11 14 15
41 42 42 42 43 46 30 11 11 5 6 17 22 22 25 21 20 20 20 18 14 25 4 5 7 4 4 4 7 8 15 5 4 4 5 13 5 9 7 11 12 7 5 3
45 46 47 48 47 47 39 15 12 8 8 18 22 20 17 21 17 24 17 20 15 6 10 4 3 3 3 3 5 5 18 3 2 5 9 5 16 7 5 7 11 7 6 5
48 50 54 53 52 48 42 24 26 6 13 12 23 17 19 12 15 15 19 21 8 4 5 6 11 4 3 2 4 6 14 3 5 3 2 15 2 8 7 5 9 5 2 6
41 43 47 53 55 51 45 20 31 9 6 9 10 15 13 14 13 11 13 9 6 2 4 4 5 7 5 3 5 5 2 4 3 3 3 6 5 9 4 7 4 6 5 4
41 44 45 50 55 54 45 24 37 15 3 12 10 6 6 8 11 11 5 6 7 3 4 7 5 4 8 6 9 6 7 6 4 3 4 6 6 7 9 1 8 7 7 4
43 43 45 49 53 54 49 12 32 33 6 1 12 15 15 6 3 3 8 7 4 4 3 2 2 2 4 7 10 5 3 6 7 8 7 9 2 3 3 13 12 5 6 3
35 44 42 46 50 52 43 19 33 25 3 1 3 6 13 12 10 5 3 3 3 5 5 3 2 4 4 3 6 7 6 8 5 5 7 12 8 2 4 9 15 15 7 4
39 38 40 47 49 52 38 27 27 21 4 3 3 8 8 18 18 13 6 4 3 3 2 3 2 3 3 4 4 5 5 10 3 3 8 4 4 7 9 4 19 17 10 4
36 37 39 44 53 50 29 23 30 26 3 3 4 9 10 14 17 13 12 8 4 1 3 2 3 4 2 3 1 4 4 5 4 4 9 6 6 6 9 14 13 11 8 11
36 39 43 44 48 42 21 4 24 17 2 2 2 1 5 5 6 6 6 4 3 2 4 3 4 3 2 2 3 3 3 1 4 4 4 6 8 6 2 3 2 4 7 8
39 40 42 47 42 27 4 4 17 32 16 2 2 2 4 8 3 1 1 3 2 3 2 4 4 4 2 1 1 9 10 10 8 9 8 7 5 3 4 5 6 7 7 7
39 40 38 35 21 18 11 22 32 13 3 3 3 1 3 4 2 1 1 2 3 2 3 3 3 1 4 2 8 14 18 16 15 15 10 6 5 5 5 5 6 7 7 7
43 43 34 14 4 4 6 20 18 13 4 3 2 3 2 5 1 0 1 3 1 3 2 2 2 0 2 7 12 13 14 13 15 15 8 10 11 8 6 6 7 7 6 7
22 17 5 3 4 24 14 5 2 2 2 3 2 1 2 2 2 2 2 3 3 2 4 1 4 3 6 12 12 11 12 14 14 9 13 10 11 8 7 9 10 10 9 10
4 3 3 9 8 3 2 3 3 1 1 2 3 3 3 2 2 2 2 2 2 3 3 6 1 3 9 10 10 11 12 12 11 9 9 11 11 11 10 12 13 13 13 13
7 15 9 3 1 1 4 2 1 2 1 1 3 3 3 2 2 1 3 2 2 3 0 4 3 5 10 10 11 11 11 11 11 13 12 12 14 12 13 13 13 14 20 20
3 3 4 2 4 5 4 1 2 2 4 4 4 0 3 3 2 2 2 2 1 2 4 4 3 8 8 9 8 9 10 12 13 14 16 19 19 22 19 13 20 22 24 22
4 4 6 4 5 4 4 4 3 2 3 5 4 1 1 2 3 1 3 2 4 4 4 4 4 8 8 8 9 9 11 12 13 13 13 15 16 18 25 25 24 26 24 25
5 5 5 4 3 3 4 5 3 3 4 4 3 1 2 3 3 4 5 4 4 5 3 2 6 9 9 10 9 10 10 10 12 13 13 15 21 22 23 26 28 30 29 28
4 6 4 4 4 4 3 2 3 3 6 3 2 3 3 4 3 4 6 3 5 3 2 5 6 10 11 10 11 11 12 13 15 19 21 22 23 23 25 29 30 30 30 28
4 3 4 3 1 2 3 3 4 3 2 2 2 5 5 3 4 4 5 4 3 5 5 6 9 10 10 11 12 16 17 17 19 22 24 24 25 27 28 20 25 29 28 28

GFSNW_925_spd_066.txt.gz
Wind_Speed
35 33 32 29 28 26 24 7 5 17 30 8 7 19 12 11 14 4 13 5 6 5 4 5 4 3 3 12 5 5 12 11 13 17 6 11 10 11 9 6 5 4 5 8
36 34 34 33 32 31 20 4 3 18 30 11 17 15 22 18 6 5 4 6 12 4 3 3 6 4 7 6 5 6 2 7 4 7 9 12 6 7 12 5 4 9 6 5
36 36 35 35 36 34 30 4 5 5 11 5 12 19 20 20 12 22 21 12 10 9 10 7 6 7 7 7 4 9 1 7 15 18 6 5 4 8 18 15 4 5 6 7
38 38 38 38 38 38 37 5 5 6 11 17 15 16 8 23 18 13 9 9 22 8 6 6 8 4 5 5 7 7 5 13 16 14 13 10 7 6 14 14 10 8 8 8
39 39 41 40 40 40 29 6 5 4 2 16 23 22 22 21 18 12 14 16 11 14 16 10 6 7 5 4 3 4 9 6 7 10 9 16 16 18 13 7 6 7 9 9
39 38 46 38 36 34 12 11 9 5 11 12 16 30 22 17 17 13 17 12 12 15 12 9 8 7 4 2 4 2 3 6 9 14 11 15 11 17 10 6 5 7 7 10
34 32 32 37 39 40 37 7 9 5 7 17 23 11 20 20 19 20 11 14 14 9 10 3 1 3 5 5 5 5 6 4 2 4 2 11 20 8 7 12 12 11 6 8
35 36 37 39 41 41 32 11 7 6 11 15 17 18 15 17 17 21 16 12 5 6 4 3 5 3 5 5 7 10 6 5 1 4 7 6 13 7 15 16 10 8 7 7
38 40 41 42 43 41 37 22 19 1 8 18 19 17 15 11 14 14 17 17 11 4 1 3 9 5 2 3 2 6 7 6 4 0 7 13 2 7 3 2 6 5 4 6
41 42 43 44 44 43 41 14 28 4 2 7 13 15 18 10 8 4 4 7 8 7 3 2 4 8 6 5 5 4 2 3 7 2 7 7 8 5 2 9 5 2 2 4
46 45 46 47 46 45 43 30 35 22 1 5 6 12 9 10 12 8 4 3 4 2 6 4 4 4 6 4 5 6 6 6 3 3 4 7 3 4 3 4 2 6 6 8
40 46 48 48 50 53 48 16 32 33 4 4 13 10 22 29 19 11 5 5 5 6 3 3 2 1 1 6 8 5 4 5 5 9 7 8 2 7 5 1 2 5 4 6
36 39 40 41 44 46 52 17 30 20 4 5 7 11 10 19 16 15 5 1 2 2 3 4 2 3 4 4 5 7 5 6 5 2 7 8 5 3 6 6 8 5 1 5
34 39 41 43 44 43 44 27 32 24 4 4 4 13 17 15 16 14 7 5 4 2 1 2 3 2 3 4 6 7 8 6 13 5 5 3 3 5 7 7 3 2 4 4
34 36 37 42 43 43 36 29 32 27 5 3 2 4 6 19 20 16 10 6 4 2 2 2 2 2 2 2 1 4 2 5 4 5 7 6 6 3 5 5 7 5 3 1
34 37 40 39 45 38 32 4 18 32 13 2 4 1 4 8 15 11 8 6 3 4 4 3 2 5 4 2 3 6 10 13 10 6 8 6 8 7 5 9 4 2 2 1
33 35 40 48 43 28 6 4 17 32 19 3 2 3 3 8 4 2 2 1 2 2 3 4 4 3 4 1 3 11 12 13 9 13 11 5 6 6 3 7 6 5 3 1
49 53 51 38 29 15 5 22 37 31 7 2 3 2 3 4 2 3 3 3 1 1 3 1 4 2 1 2 10 12 14 14 9 19 11 5 7 8 5 5 3 7 8 8
49 43 36 24 7 2 6 34 17 3 1 3 2 4 3 3 1 2 2 2 1 1 3 3 4 2 3 9 11 12 13 12 14 14 10 11 13 12 13 10 10 8 8 10
32 11 3 2 5 16 13 4 3 2 1 2 2 1 3 2 1 0 1 1 3 3 4 2 3 3 2 9 8 10 12 11 12 8 10 11 11 10 12 12 10 9 10 10
3 3 4 5 4 3 3 2 2 3 3 2 1 3 3 2 3 2 2 2 1 3 3 4 3 3 5 9 9 10 12 10 8 9 8 9 8 8 7 9 11 12 13 12
7 13 6 2 3 3 5 3 2 3 2 3 1 2 3 2 1 2 2 3 2 3 1 4 3 3 8 7 9 9 9 10 12 11 11 11 11 10 10 11 12 15 17 19
3 4 4 3 4 9 5 2 2 3 3 4 3 1 2 2 0 2 2 2 1 2 4 3 3 6 7 8 7 10 11 11 13 14 17 18 18 20 17 12 18 21 22 23
4 5 7 4 5 4 4 3 2 2 2 5 2 1 1 1 2 1 2 2 4 4 3 3 4 7 8 8 9 10 11 12 14 14 15 15 17 18 23 22 22 24 23 25
5 5 6 5 2 2 2 2 2 3 4 4 1 1 2 3 3 4 4 4 5 4 3 2 5 7 8 9 9 9 10 11 13 15 13 16 20 21 23 26 26 27 27 27
4 6 4 3 3 5 4 4 3 3 6 2 1 3 3 5 3 5 6 3 4 2 2 3 4 9 10 9 9 10 13 15 16 19 20 21 21 21 24 28 28 28 29 28
5 3 2 0 1 2 3 2 4 3 3 3 3 5 5 3 3 3 4 3 3 2 5 6 8 9 9 10 11 16 19 18 18 19 19 19 20 23 25 20 24 28 28 29

GFSNW_925_spd_069.txt.gz
Wind_Speed
33 30 30 28 27 25 24 5 5 24 34 6 4 13 5 6 10 3 4 3 6 5 4 4 2 3 5 8 4 3 7 5 12 23 7 4 8 8 9 5 3 3 4 10
36 34 33 32 32 28 9 3 3 24 30 10 10 9 9 7 3 7 2 4 2 3 2 3 2 5 6 9 11 5 5 3 8 8 4 10 9 5 6 3 3 10 7 6
38 37 36 34 35 33 28 4 5 4 7 3 16 13 14 11 8 10 4 3 4 2 2 2 4 6 5 10 4 9 3 2 4 7 7 3 5 12 10 12 7 4 12 8
39 38 37 35 36 34 27 5 5 5 8 15 11 16 9 18 10 14 7 7 15 6 4 3 6 7 13 6 2 2 4 1 5 12 14 15 14 10 14 18 12 11 10 10
41 40 39 37 37 33 24 5 4 5 3 14 21 16 17 13 18 9 15 9 8 8 17 12 7 10 3 6 3 5 2 3 5 5 8 14 17 18 12 8 7 12 10 6
42 41 40 40 38 37 13 14 7 4 10 13 18 24 19 19 12 12 17 10 13 12 15 11 15 14 15 10 5 4 3 3 3 5 13 12 8 17 14 14 6 6 10 8
42 41 41 40 40 41 27 10 7 5 6 15 17 16 23 23 17 16 8 15 13 7 5 6 7 10 12 11 7 5 5 4 3 3 6 4 7 8 11 15 14 8 5 6
39 39 39 39 40 43 36 14 8 8 9 10 19 19 20 21 18 15 18 12 11 2 4 1 4 2 5 9 9 9 7 5 4 2 3 7 16 7 4 7 17 11 8 9
31 38 42 40 38 44 37 22 18 2 6 16 12 18 14 11 13 14 15 13 4 2 0 1 4 3 4 4 5 4 5 4 3 2 3 6 10 11 13 17 16 7 18 11
31 29 33 36 37 36 35 16 25 3 3 2 14 14 16 9 10 5 6 9 9 8 3 2 3 6 4 4 7 5 3 1 6 3 4 7 8 13 5 4 6 5 4 1
36 37 37 37 38 39 38 15 31 13 2 2 2 14 7 9 12 6 5 3 2 3 6 4 4 3 5 6 5 7 7 7 4 3 3 7 1 5 4 8 6 1 4 6
41 41 39 39 40 40 39 10 31 28 2 1 4 7 8 25 22 10 7 7 5 6 3 2 1 2 1 4 3 3 4 5 4 7 6 5 5 6 14 15 11 3 3 4
38 42 45 42 41 41 42 21 26 21 3 1 2 6 16 16 26 30 5 2 4 3 3 4 2 4 3 3 5 5 4 4 5 2 8 13 15 8 10 11 12 3 5 6
32 35 41 45 45 42 44 25 28 19 3 2 4 16 9 17 19 32 17 7 4 5 3 2 2 2 3 4 4 5 6 5 8 13 14 9 10 8 10 8 7 7 7 6
32 35 36 39 44 44 43 22 36 29 6 5 3 1 13 21 15 19 20 10 5 2 2 2 2 2 1 2 1 2 3 0 2 4 6 6 15 8 5 6 7 9 8 3
31 34 35 38 35 38 29 3 24 30 12 2 1 2 3 10 19 9 6 4 3 3 3 2 2 4 2 3 4 3 4 4 4 5 16 19 18 10 6 7 4 3 1 3
32 36 37 40 44 42 7 5 18 32 16 2 2 3 2 9 5 3 2 1 3 3 3 4 3 4 9 1 0 7 8 9 6 11 16 5 11 8 12 7 8 7 9 11
36 36 37 45 41 23 2 5 40 35 9 2 3 2 4 3 3 2 2 2 2 1 3 1 3 0 2 1 5 7 9 11 7 12 10 8 8 10 13 12 10 12 11 10
47 46 41 29 8 3 8 31 34 21 5 3 2 2 3 0 3 3 2 2 2 1 2 2 3 2 3 5 7 8 10 9 11 14 7 10 9 9 11 12 14 10 10 10
29 18 6 2 7 39 31 6 3 3 3 1 2 1 3 3 2 2 3 0 3 3 5 3 3 3 6 7 8 8 8 10 10 9 7 10 9 10 11 13 10 9 9 8
2 2 3 11 15 5 2 2 2 1 3 3 2 2 3 1 3 4 2 2 1 2 3 3 2 2 4 6 7 9 9 9 8 7 8 9 9 7 7 11 11 10 11 11
7 13 7 5 2 2 4 2 2 4 2 3 2 2 2 2 2 3 2 2 3 4 2 4 2 3 7 8 9 11 10 9 10 10 10 10 11 12 11 11 11 13 17 17
5 5 5 4 4 10 5 3 3 3 2 3 3 2 2 2 2 2 2 4 1 3 4 3 2 6 6 6 6 8 9 10 12 12 16 18 18 20 18 13 17 20 21 20
5 5 7 4 5 4 3 3 2 2 1 3 1 0 1 1 2 1 1 3 4 4 3 2 3 5 6 6 7 8 9 10 11 12 15 15 17 19 22 22 22 23 23 24
5 5 5 4 3 2 3 3 1 3 4 2 1 2 3 4 4 4 3 4 5 4 2 2 4 6 7 8 7 7 7 8 10 12 11 15 19 20 23 25 25 26 27 27
4 7 4 3 3 5 4 4 3 3 5 1 2 3 3 4 3 4 5 3 3 2 2 4 5 8 9 9 9 8 10 11 14 17 18 20 21 21 23 28 29 29 30 28
5 3 2 1 1 2 3 3 5 4 3 3 3 5 5 3 3 3 4 3 3 5 5 6 9 10 9 10 11 15 18 19 20 18 19 20 21 23 26 20 25 29 28 28

GFSNW_925_spd_072.txt.gz
Wind_Speed
31 30 29 28 25 21 20 6 6 23 34 5 4 9 5 4 6 4 3 2 4 3 3 5 6 6 7 11 7 4 2 2 6 14 6 2 2 6 9 6 5 4 3 9
34 32 31 30 27 22 9 3 3 23 26 9 10 4 7 4 3 2 1 2 3 3 3 2 3 4 2 13 12 4 7 3 3 6 4 3 4 5 5 2 3 17 7 5
36 35 34 32 30 27 23 1 5 4 6 5 17 12 9 7 8 3 1 2 3 3 3 2 3 6 5 8 9 8 6 2 2 2 2 4 6 7 11 12 7 1 14 6
38 38 37 35 33 29 24 4 4 4 7 12 11 15 8 13 5 9 5 3 5 2 3 4 3 4 5 6 6 5 2 4 1 2 7 10 11 13 13 11 12 12 3 11
43 41 40 37 36 30 26 5 3 4 1 13 19 15 15 13 14 7 6 11 4 6 9 7 4 4 2 4 6 6 2 4 4 3 4 9 17 12 11 11 6 11 9 14
45 44 43 40 38 31 13 11 7 3 7 12 14 19 14 16 11 10 8 10 7 12 11 10 11 12 10 7 7 5 6 3 2 4 2 3 9 4 3 8 8 7 11 8
45 44 43 42 38 39 25 9 6 4 6 12 14 17 17 15 20 11 9 15 14 2 3 5 5 7 11 11 13 9 7 2 1 1 2 3 7 5 6 5 12 11 11 6
42 42 39 40 41 42 36 18 10 6 8 10 14 15 21 18 13 17 13 10 11 3 5 3 4 2 3 7 10 12 11 4 1 2 2 6 4 6 4 5 18 8 9 14
40 41 41 42 42 43 41 30 17 5 5 11 12 16 15 14 15 13 16 10 2 1 2 2 3 3 4 3 3 8 6 5 4 3 3 6 4 3 6 1 13 7 10 14
31 32 36 38 39 42 38 18 32 1 4 7 14 13 11 7 9 4 4 7 5 5 2 2 3 3 3 3 4 3 4 3 12 3 2 8 7 5 4 4 7 10 12 8
33 31 31 31 40 39 38 24 37 13 2 0 5 8 10 8 10 7 5 4 2 3 7 3 4 3 5 5 4 6 5 5 3 4 3 8 5 0 3 5 5 4 10 5
35 33 32 30 31 40 40 6 29 22 2 2 1 5 10 26 26 11 11 8 6 6 4 3 3 2 0 5 3 3 3 6 5 8 7 4 2 1 5 6 4 4 5 12
36 37 34 33 29 34 37 12 26 12 3 2 1 3 14 12 8 17 6 3 5 4 4 4 3 3 4 3 5 5 3 4 4 2 2 9 9 3 6 9 11 10 12 15
38 36 38 36 36 34 28 15 20 14 3 1 3 13 11 17 11 10 14 4 3 4 2 2 3 2 3 3 4 5 5 2 4 10 7 8 7 6 13 16 15 14 13 17
25 40 44 39 35 34 29 17 25 15 4 2 2 4 12 25 23 14 15 6 4 2 2 1 2 2 1 1 2 3 1 3 4 5 3 5 7 9 19 15 16 9 11 10
28 32 38 41 38 37 26 4 22 30 15 3 1 3 3 18 11 10 12 10 3 2 3 2 2 2 1 1 2 4 3 6 6 5 10 11 13 9 14 12 15 12 11 11
33 33 35 41 41 36 5 3 15 30 16 2 2 2 4 12 6 2 3 2 3 2 3 3 3 3 4 1 3 2 6 7 10 8 11 4 9 7 12 13 12 10 11 11
34 36 34 37 40 22 3 3 36 31 9 1 1 3 3 7 3 2 1 2 2 2 3 2 3 1 3 2 5 7 8 12 6 10 10 7 6 8 10 11 12 11 12 11
34 46 45 30 9 3 6 29 28 13 4 4 2 1 1 3 2 3 2 2 1 1 1 2 3 1 1 5 6 8 10 9 12 13 11 7 10 10 12 13 13 11 12 11
35 22 3 3 7 43 28 7 2 2 1 2 2 1 1 2 3 2 3 1 2 3 4 3 3 2 4 6 7 7 9 11 11 10 7 10 8 8 9 11 10 10 9 10
5 2 3 29 24 6 3 3 2 2 2 2 1 0 3 3 4 3 1 3 2 1 2 3 2 2 3 6 7 9 9 10 9 8 6 6 6 6 8 9 10 9 10 11
12 12 11 6 5 4 3 2 2 2 2 3 2 3 3 2 3 3 1 3 2 2 2 3 2 3 6 8 8 9 9 9 9 10 8 8 9 9 9 9 10 13 15 16
8 6 5 4 4 8 5 4 3 3 3 4 3 3 2 2 3 3 2 3 1 3 3 2 2 5 6 7 7 8 9 10 10 10 12 14 15 17 16 13 17 17 19 19
4 4 7 4 5 4 3 2 1 2 1 3 2 2 3 2 3 2 2 3 3 3 3 2 3 6 6 7 7 8 9 8 9 9 13 14 16 17 21 22 20 22 22 24
5 5 5 4 2 2 3 3 2 4 4 2 1 3 3 4 4 4 3 4 4 3 2 2 4 7 9 9 9 8 8 8 10 13 12 16 19 20 22 22 23 24 24 25
4 6 4 2 2 4 3 3 2 3 5 1 3 3 3 5 3 4 5 3 3 2 1 2 4 7 7 8 9 10 13 13 15 17 18 20 20 20 21 25 26 26 25 25
5 3 1 1 1 2 3 3 4 4 2 3 3 5 5 3 3 3 4 2 1 2 2 2 4 4 5 7 9 12 14 15 16 16 19 19 19 21 23 20 22 25 25 25

GFSNW_925_spd_075.txt.gz
Wind_Speed
24 21 21 21 20 18 14 5 4 14 32 6 3 4 7 3 8 2 5 2 3 3 5 4 6 4 3 11 11 5 5 2 3 5 2 3 2 8 10 6 5 2 2 7
27 26 22 22 21 18 8 3 2 17 24 9 7 5 5 4 4 4 2 1 1 2 3 4 3 4 3 8 12 9 6 2 2 2 2 4 3 2 4 3 2 16 9 4
29 28 25 23 23 20 16 2 3 3 5 3 15 8 9 7 5 13 2 1 1 1 3 2 4 5 4 10 8 9 1 2 3 1 2 3 5 10 10 6 5 7 11 9
32 31 29 27 25 23 15 3 4 4 4 8 10 14 12 14 8 7 11 5 8 4 2 3 4 4 5 4 6 6 2 5 5 6 11 7 8 7 10 10 10 10 6 13
37 35 32 30 28 26 18 3 3 4 1 6 14 14 12 17 15 8 6 6 6 10 8 9 9 4 2 3 6 6 7 1 5 5 10 11 8 10 17 15 10 13 12 14
42 40 37 34 32 29 12 12 7 4 3 9 9 9 15 17 13 8 13 10 12 12 9 7 9 10 10 9 7 5 5 2 2 3 5 7 6 9 8 2 5 4 6 9
42 42 42 40 38 39 27 9 6 6 8 12 12 15 17 18 19 15 10 13 9 2 5 7 4 7 12 11 11 10 5 3 2 1 2 7 3 4 5 6 9 9 7 9
39 41 45 44 44 43 34 24 9 6 8 7 11 16 19 15 14 17 16 6 1 2 6 3 4 1 2 7 14 15 13 5 2 3 6 8 9 7 4 6 8 7 4 10
38 37 42 46 46 46 40 33 25 6 3 11 12 14 18 13 10 8 15 2 2 4 1 2 2 2 2 1 2 8 13 10 3 3 3 5 3 2 2 1 6 5 5 7
37 36 34 43 46 47 40 17 36 11 6 5 12 12 11 10 11 4 4 6 3 8 4 3 5 4 2 3 2 5 6 3 9 4 4 6 9 8 3 2 5 7 3 7
38 35 34 37 40 42 41 30 37 20 2 3 12 11 10 9 11 6 7 4 4 4 6 4 3 3 4 3 2 4 7 6 5 5 4 8 0 2 1 6 4 7 12 9
37 35 35 32 42 42 42 13 33 33 4 1 5 11 15 31 25 10 10 5 6 6 3 4 3 4 1 5 3 2 4 6 4 8 6 2 3 4 8 7 12 13 16 20
33 34 35 31 30 37 41 17 32 19 3 1 1 5 12 10 22 21 6 6 4 5 3 3 3 3 4 4 5 3 3 3 3 0 3 7 5 3 11 13 14 16 16 19
31 34 35 32 29 25 33 23 28 15 3 2 3 11 5 22 11 16 16 4 6 2 2 1 2 2 3 3 1 3 2 3 3 5 7 11 5 11 15 17 14 17 20 15
31 35 35 33 28 28 30 25 24 21 4 3 3 4 10 20 22 12 6 8 6 4 3 1 2 1 2 0 0 3 3 3 3 5 2 3 8 13 13 14 14 15 15 15
32 35 37 33 30 39 23 4 20 18 7 2 3 2 3 19 19 19 10 6 9 5 3 2 3 3 2 2 2 1 2 4 4 1 7 7 7 8 11 10 13 12 11 12
29 39 39 37 38 29 3 3 16 32 8 2 1 1 1 10 6 3 5 5 2 4 2 3 2 2 4 2 4 3 6 8 8 6 8 3 2 5 9 9 11 9 8 15
30 46 39 41 36 21 3 8 26 28 7 2 2 2 1 6 3 3 2 3 3 3 2 1 3 3 2 3 4 6 10 11 4 12 10 9 10 5 8 7 10 11 12 13
40 44 42 28 7 2 7 26 22 7 4 4 3 3 2 3 2 3 3 5 3 3 3 3 3 3 1 6 7 9 10 8 11 13 11 8 7 8 8 8 10 8 8 10
41 27 5 3 6 34 23 6 2 1 1 1 2 1 3 1 2 2 3 1 3 2 1 3 2 3 9 9 8 8 9 10 11 10 9 11 9 8 6 7 6 6 7 9
6 2 4 30 22 5 2 3 2 2 3 1 1 1 2 0 3 2 2 2 2 3 2 2 2 3 5 9 8 8 9 9 8 8 7 7 6 6 6 7 8 9 11 10
10 17 15 6 5 3 4 2 2 2 2 2 1 2 1 2 1 3 1 2 1 2 3 3 2 3 7 9 9 10 10 9 9 11 9 8 9 10 9 9 9 15 16 16
10 6 4 3 5 8 4 3 3 3 4 4 3 3 2 1 3 3 2 3 2 2 3 3 3 6 7 8 7 9 10 11 11 11 13 14 16 18 16 15 17 19 20 19
5 5 7 4 4 4 3 2 2 2 3 4 2 2 3 3 4 3 4 3 3 3 2 2 3 6 7 7 6 7 9 11 11 12 15 16 18 18 20 21 20 22 22 21
4 5 5 4 1 1 2 2 2 3 4 2 0 3 3 4 4 3 3 3 4 3 2 2 2 4 5 6 8 8 8 8 10 13 13 15 17 19 21 22 22 23 23 24
4 6 3 2 2 4 3 4 3 5 5 1 3 3 4 6 3 5 4 2 2 2 1 1 2 4 5 5 7 8 11 12 14 16 16 17 17 18 21 23 24 24 25 25
4 3 2 2 2 1 3 3 4 4 3 3 3 5 4 3 3 3 3 2 2 3 3 4 6 6 6 6 9 10 12 14 15 16 16 17 17 19 21 19 20 22 23 24

GFSNW_925_spd_078.txt.gz
Wind_Speed
21 21 19 17 14 12 8 4 4 6 21 6 2 5 10 6 8 6 6 5 6 5 6 5 6 5 7 13 15 5 4 4 6 12 6 12 17 17 17 10 12 9 10 11
24 25 21 20 18 15 9 4 6 5 18 8 10 2 11 12 12 10 5 6 4 2 4 5 5 4 8 9 13 10 7 4 7 8 8 5 10 11 10 12 14 18 11 5
26 25 23 22 21 19 13 2 4 5 5 8 16 14 11 12 12 13 8 7 6 10 13 10 8 9 5 15 11 11 5 3 5 4 4 4 3 2 3 5 7 10 14 15
28 27 25 25 25 23 16 4 6 7 5 13 10 16 12 18 11 11 11 8 17 14 10 9 11 7 8 7 6 6 3 5 6 6 4 4 5 7 7 9 8 8 11 13
36 32 31 29 27 25 22 4 4 3 6 6 15 15 15 20 18 12 11 14 8 16 18 15 14 16 13 7 4 6 6 5 7 9 11 10 12 12 12 13 15 15 15 16
38 37 36 35 33 32 16 16 8 3 8 13 9 4 20 20 17 16 15 13 12 12 14 12 11 10 9 10 8 4 4 3 5 10 5 9 11 16 17 13 8 7 8 9
35 39 40 40 40 40 29 19 7 4 9 8 12 13 16 17 18 15 11 14 14 5 1 5 11 13 15 14 14 13 6 5 1 2 3 8 3 4 9 10 8 8 10 7
34 37 39 43 44 43 34 23 12 6 8 15 20 18 16 18 16 17 16 10 9 8 1 3 5 6 9 12 18 16 15 7 3 4 10 13 14 8 7 7 6 4 5 5
34 38 40 42 47 46 41 31 27 6 6 15 17 16 15 15 15 13 15 4 7 5 3 4 6 6 4 4 7 13 16 13 7 5 6 6 5 9 4 3 5 6 6 10
33 38 40 43 46 49 44 26 35 16 4 10 14 17 14 11 10 6 7 8 5 5 4 4 5 5 1 4 4 6 8 10 13 12 7 4 4 7 4 8 5 12 11 14
29 31 39 40 44 47 50 33 34 27 5 10 16 16 14 14 14 9 6 4 4 4 7 5 4 5 6 5 3 8 10 9 7 9 7 9 3 3 3 9 10 11 13 13
26 27 30 40 40 43 50 20 30 36 7 4 16 19 22 23 22 9 11 7 7 7 7 6 4 4 2 7 4 5 5 6 4 6 6 4 2 6 7 8 8 9 14 17
26 26 29 40 39 39 49 20 35 26 8 4 7 5 14 17 22 23 6 6 6 6 4 3 4 4 6 6 8 7 5 6 5 3 6 6 4 4 8 9 10 10 11 15
20 21 36 39 37 37 45 24 36 25 3 4 4 14 8 10 21 23 27 8 11 5 3 4 4 5 4 6 4 6 3 4 5 10 11 9 6 8 12 13 11 12 12 13
18 22 33 36 32 33 38 26 31 35 5 3 4 7 13 22 18 25 25 9 8 4 4 2 5 3 3 3 2 7 6 7 7 8 6 4 6 11 9 13 14 13 12 13
23 28 36 33 29 34 31 3 22 31 16 2 3 1 11 19 22 15 11 10 4 2 2 2 3 3 2 3 5 5 6 7 8 5 10 10 12 10 9 11 13 12 10 10
21 39 36 34 36 30 5 3 21 27 18 3 2 3 3 16 13 7 7 7 3 4 2 3 4 4 5 3 5 8 7 7 8 10 11 6 9 8 10 11 12 10 9 9
39 42 41 42 26 17 7 26 40 24 6 2 3 3 5 12 6 5 4 3 4 3 3 2 5 3 3 3 6 7 9 8 5 11 9 8 9 7 8 9 9 7 7 7
46 45 40 21 5 2 8 35 22 8 2 3 3 5 5 6 3 3 2 1 1 1 3 4 3 3 1 6 7 8 10 9 11 12 11 5 7 8 6 7 8 7 7 7
48 28 4 3 7 40 31 6 2 1 1 1 3 2 3 4 2 3 4 2 3 3 3 3 2 3 8 8 7 7 8 9 10 10 9 11 10 8 6 7 6 6 7 7
6 2 3 30 26 4 2 3 3 3 3 2 1 1 2 1 3 4 2 2 3 3 2 1 2 3 5 7 7 7 7 7 7 7 6 6 6 6 4 5 7 10 11 10
9 17 14 6 3 2 3 3 3 1 3 2 1 2 1 2 3 3 2 2 1 3 2 2 3 3 6 7 8 8 8 7 5 7 6 6 7 7 7 8 9 14 16 15
11 5 4 2 4 5 2 4 3 3 2 2 0 3 1 2 2 3 1 2 4 1 2 2 3 5 6 7 6 6 7 8 7 7 9 10 11 12 11 13 15 16 19 17
5 4 6 4 4 4 3 3 2 2 2 3 2 3 3 2 3 2 3 2 2 3 3 3 3 5 5 6 6 6 7 8 9 9 12 13 14 16 18 17 16 18 20 19
5 5 5 5 2 3 3 2 1 3 4 3 2 3 3 4 4 3 3 2 4 3 3 3 4 5 5 6 7 7 7 7 8 10 12 13 15 17 19 19 19 19 19 20
4 7 3 3 1 4 3 5 3 5 5 1 2 3 4 5 3 4 4 2 3 3 3 4 4 6 6 7 8 9 10 11 12 13 14 16 16 17 19 20 20 20 20 21
4 4 4 3 3 4 4 4 6 6 3 3 3 4 5 2 3 3 3 3 5 5 5 5 7 7 7 7 9 10 11 12 13 14 15 15 14 15 17 18 17 19 19 20

GFSNW_925_spd_084.txt.gz
Wind_Speed
23 21 18 18 13 10 10 7 3 7 25 6 4 8 15 8 19 11 11 8 12 13 10 6 7 4 5 5 13 4 12 6 9 16 19 18 22 19 16 3 4 6 3 5
23 22 19 16 15 12 6 5 7 14 13 7 9 10 18 20 20 16 12 13 11 14 11 5 11 2 5 4 9 9 9 6 8 6 10 11 12 15 13 17 10 5 2 4
23 22 19 18 16 14 9 3 4 8 6 8 11 15 18 19 19 20 17 17 14 16 14 12 9 7 6 4 3 8 7 6 9 5 4 10 11 15 21 20 8 6 8 11
25 24 21 20 20 19 12 3 5 5 6 10 13 15 5 18 19 16 15 19 19 17 14 15 17 17 15 8 6 2 4 7 11 12 4 11 3 6 16 17 19 11 8 14
25 25 26 24 24 22 16 3 3 8 10 13 16 18 19 19 17 19 17 18 16 17 16 17 16 13 8 8 3 6 6 9 11 13 12 9 12 15 17 15 19 12 9 13
23 24 28 29 27 27 11 9 10 8 7 15 12 12 17 20 19 17 15 17 16 17 10 7 9 12 3 10 10 7 6 6 9 10 11 12 8 9 11 9 8 7 10 10
21 22 24 32 32 33 23 8 11 5 9 12 13 17 16 15 17 21 15 13 15 4 6 8 8 11 11 12 13 11 12 10 7 7 8 4 6 11 3 6 12 13 12 7
25 25 28 28 38 36 31 26 11 9 9 12 17 19 17 8 9 14 12 13 15 6 1 3 6 8 10 18 19 18 15 11 5 4 6 12 18 6 3 6 7 7 9 11
26 27 27 31 35 40 35 30 26 8 8 13 18 15 16 10 7 4 13 10 5 4 3 3 5 7 10 8 7 21 17 13 9 5 7 5 5 16 6 9 5 6 11 1
29 29 29 31 34 41 39 26 31 13 5 12 13 13 11 14 10 8 4 7 4 5 2 5 7 12 13 6 6 15 14 11 11 9 7 5 9 5 6 6 4 8 10 12
28 30 31 32 37 39 43 35 27 25 6 12 15 18 14 11 6 6 3 1 3 2 3 4 6 5 5 9 6 12 11 9 6 8 5 11 3 5 6 8 9 6 10 10
25 27 27 30 33 44 46 14 35 27 9 6 17 32 26 15 9 1 1 3 2 5 5 6 3 4 2 8 3 13 6 7 6 8 7 5 9 13 10 8 10 11 11 11
26 25 25 27 26 39 47 28 32 19 7 9 13 16 22 18 22 12 3 2 4 4 6 3 3 6 5 3 5 2 3 8 2 5 4 12 8 13 11 13 13 14 12 12
27 28 27 29 29 31 46 27 30 27 3 5 10 22 31 28 12 19 12 10 6 5 4 2 3 3 5 5 7 4 0 1 13 9 10 11 13 7 7 14 12 12 11 12
29 29 28 26 29 30 39 31 36 40 8 6 10 16 17 22 28 13 13 10 6 2 2 2 4 3 4 6 4 4 5 7 4 4 8 8 7 11 13 12 11 11 11 11
29 28 29 25 26 30 24 3 24 39 31 3 3 7 14 13 17 17 10 8 5 2 2 3 4 8 2 2 0 5 10 11 14 4 10 8 10 13 12 10 10 10 10 10
26 26 28 26 32 40 8 4 12 41 26 2 2 3 5 13 12 4 5 7 2 2 1 3 3 3 5 2 1 5 11 9 11 11 11 8 13 6 10 11 11 10 12 14
22 26 26 30 36 24 4 3 14 41 7 3 3 3 3 10 3 4 4 2 3 4 1 3 4 2 3 3 7 8 11 9 13 13 10 9 9 10 11 12 12 9 10 9
28 30 41 27 8 3 6 20 37 19 3 4 4 3 2 7 2 3 2 2 2 1 2 3 3 3 4 6 8 9 10 9 11 11 9 12 11 11 11 10 10 9 9 8
40 24 6 3 9 41 31 7 2 2 2 2 3 2 2 2 3 3 3 1 2 2 4 1 2 3 7 7 8 9 10 11 11 10 11 11 10 10 11 9 9 9 8 9
3 2 3 34 32 6 2 3 4 4 4 4 2 4 3 1 3 3 2 3 3 3 3 4 3 3 4 6 8 9 11 11 10 10 10 10 9 9 8 9 10 11 12 11
10 16 12 5 2 3 4 4 3 4 4 2 2 3 3 3 3 0 2 3 1 1 4 2 4 4 8 9 10 11 11 11 11 14 11 12 14 11 11 11 11 13 14 15
9 6 4 1 2 2 4 6 4 4 2 2 2 3 2 2 1 1 2 4 1 1 1 3 4 7 7 8 9 10 12 13 13 13 15 15 14 17 16 15 16 17 18 17
4 2 4 5 3 4 4 4 4 2 2 3 1 3 2 1 2 2 2 2 2 1 3 4 5 7 8 8 8 8 8 9 9 11 14 15 15 16 17 17 16 17 18 17
4 4 4 4 3 4 2 2 4 3 2 2 3 4 2 2 2 2 3 2 3 6 4 4 6 8 7 7 7 7 7 6 8 12 12 12 13 15 17 17 18 19 19 18
3 6 2 2 7 6 7 6 6 4 3 2 1 2 3 3 2 3 5 3 5 4 4 5 6 6 6 6 7 8 10 11 11 12 13 14 13 15 16 17 17 17 17 18
4 4 6 4 6 6 4 5 4 5 3 3 2 4 3 1 3 3 5 4 5 6 5 5 7 7 6 5 7 7 8 10 11 11 12 13 12 12 13 15 13 14 15 17

GFSNW_925_spd_087.txt.gz
Wind_Speed
21 19 18 16 14 10 6 3 3 7 11 5 3 4 5 5 10 14 7 3 4 7 9 6 5 4 2 4 5 4 5 3 7 16 10 8 8 11 7 3 5 3 0 4
21 20 18 16 14 11 3 2 4 8 4 6 5 4 8 15 17 15 7 6 3 7 6 4 4 9 4 3 3 2 5 2 3 5 3 8 9 14 13 10 2 4 2 1
20 20 19 14 14 12 9 1 3 2 3 3 4 8 9 13 12 14 15 12 12 8 6 5 4 2 3 6 5 5 3 4 4 4 4 2 6 7 19 14 3 4 4 6
19 20 20 16 15 13 9 2 3 4 2 5 7 6 3 8 14 10 9 5 9 10 9 7 5 6 6 5 7 5 3 2 9 11 8 7 2 11 3 12 10 6 0 10
18 18 19 19 17 16 10 2 2 4 3 5 6 6 4 10 12 10 10 12 9 9 10 8 4 5 7 2 5 3 0 3 6 8 11 7 11 14 3 1 4 11 12 12
16 14 19 21 22 21 8 9 10 3 4 5 2 3 7 9 10 9 11 10 7 12 11 3 2 2 3 4 2 3 5 3 4 3 9 13 5 10 13 11 16 11 10 11
17 17 17 21 25 29 16 8 5 2 4 3 4 9 10 11 9 8 6 3 5 3 10 10 1 1 9 7 8 6 4 5 3 4 6 3 4 6 4 2 10 5 12 10
22 19 18 21 25 30 23 18 6 3 3 5 10 11 10 11 10 4 4 5 2 4 4 4 0 3 3 9 14 11 10 5 2 2 3 6 14 4 3 2 7 11 12 9
24 22 22 22 25 30 30 25 21 3 1 6 11 10 9 7 5 3 3 4 5 3 2 1 3 4 6 4 4 18 12 7 5 2 4 5 5 2 7 1 5 7 11 11
24 23 24 26 27 30 33 16 29 8 4 6 5 3 4 5 3 2 4 2 3 4 3 2 3 4 3 4 4 2 10 5 11 7 3 6 5 7 5 4 4 7 11 11
20 21 24 26 27 31 34 29 25 22 3 10 7 6 6 4 4 1 3 4 2 1 2 3 4 1 4 3 9 4 7 7 5 4 3 6 10 5 4 5 10 12 13 12
19 20 22 25 29 31 40 16 33 26 5 2 9 23 25 16 5 2 4 2 2 3 1 1 3 2 3 5 3 5 2 6 5 6 5 8 11 12 13 12 14 13 14 13
21 20 21 24 26 31 41 27 26 20 4 5 9 14 16 15 15 15 2 2 1 2 5 3 2 3 1 1 4 3 2 8 2 3 10 12 14 15 12 14 13 14 14 13
26 25 23 23 24 27 33 26 26 27 3 3 5 13 21 36 28 15 18 8 2 3 0 2 2 2 2 3 4 4 3 2 5 4 11 15 13 10 9 14 14 13 13 15
30 27 25 24 24 26 26 28 32 35 8 4 3 8 19 18 25 25 13 10 3 2 1 2 2 3 3 4 2 3 6 5 3 3 7 9 9 11 12 12 13 13 13 13
31 29 27 26 26 27 14 2 23 38 30 2 3 4 4 17 23 17 5 4 3 3 2 2 2 5 4 2 2 7 12 13 13 3 5 13 13 10 8 8 8 12 13 12
29 33 29 28 28 32 5 5 9 37 25 1 3 3 3 13 6 2 3 4 2 2 2 3 3 3 2 2 3 7 10 11 13 14 5 11 9 7 11 12 10 17 15 15
24 29 29 28 32 21 5 2 22 40 8 3 2 2 3 7 3 3 3 3 2 3 2 2 3 0 3 3 6 8 10 8 13 11 12 10 11 10 10 14 11 12 10 9
24 31 33 26 7 3 6 10 39 19 4 5 4 3 3 3 3 2 2 2 2 1 3 3 0 3 5 5 7 10 11 9 10 11 13 11 11 10 10 10 10 10 9 9
47 28 5 3 11 38 35 9 2 1 2 2 2 1 1 1 2 2 3 2 3 3 4 2 3 3 6 7 8 9 11 12 12 11 12 11 10 9 11 12 10 10 9 12
5 2 2 34 38 6 2 3 4 3 2 3 3 3 2 1 2 2 1 2 2 2 3 3 3 3 3 8 9 10 12 10 11 11 11 12 9 9 10 11 12 14 15 14
11 18 13 5 2 3 3 4 4 4 3 2 3 2 2 2 2 2 2 2 1 1 2 2 3 3 8 9 10 10 9 11 11 14 11 13 15 14 13 13 14 16 16 16
8 6 4 1 1 2 3 5 2 3 2 2 2 3 2 1 2 2 2 3 3 2 3 3 3 6 7 6 6 8 11 11 12 13 14 14 15 16 15 15 15 17 17 16
3 3 5 3 3 3 2 2 3 2 1 2 3 3 2 0 2 1 3 1 0 0 3 2 3 6 5 5 6 7 6 6 8 9 12 13 14 15 18 18 17 17 16 17
4 4 4 3 1 1 1 2 2 3 2 2 2 3 2 2 3 2 2 1 4 4 2 2 4 4 5 5 6 4 4 5 6 11 11 14 15 14 16 18 19 19 18 18
3 6 3 2 4 5 4 4 3 3 2 2 1 3 3 3 2 4 4 2 2 1 3 4 4 4 4 4 4 6 9 10 11 12 12 13 14 14 15 17 17 17 17 18
4 3 3 2 4 4 2 3 2 2 1 2 3 4 1 1 3 3 3 2 3 5 5 4 5 5 4 4 7 9 11 12 12 12 12 13 13 12 11 10 12 14 15 15

GFSNW_925_spd_090.txt.gz
Wind_Speed
21 20 18 15 14 8 2 1 3 3 13 2 2 3 2 6 9 10 7 6 3 3 5 4 4 4 4 1 2 3 2 1 4 9 11 6 8 4 4 3 3 3 1 3
21 19 17 14 11 6 3 2 3 5 7 4 6 3 7 5 10 11 6 9 8 10 5 4 3 4 2 3 1 3 2 3 4 6 5 6 3 8 11 8 2 4 4 2
20 17 15 13 10 9 8 0 3 3 2 2 3 7 6 8 6 9 6 9 9 6 5 4 2 2 4 5 4 4 1 3 3 4 7 4 6 3 12 10 3 3 6 6
18 18 16 11 12 11 11 3 4 0 1 3 6 4 4 3 4 4 6 3 2 7 4 6 4 3 4 5 2 1 3 1 2 7 14 6 6 6 7 4 12 4 2 4
18 16 13 13 14 15 6 3 2 3 3 4 2 6 3 3 5 2 6 5 10 5 4 4 6 1 2 1 5 3 4 2 3 4 8 10 14 14 11 5 11 11 16 14
18 14 11 14 17 20 5 8 2 3 4 5 3 2 3 6 8 6 10 9 3 4 1 2 6 6 2 2 2 1 2 3 4 3 6 12 8 7 15 7 12 7 2 7
18 14 13 13 19 28 12 6 4 2 3 2 3 8 12 11 10 4 4 3 3 1 1 2 4 5 6 4 5 5 3 2 2 3 3 5 7 13 9 5 4 15 3 12
21 19 16 15 18 27 24 11 4 2 3 3 5 6 7 8 10 6 2 3 3 1 4 3 5 3 4 5 8 7 9 4 1 2 3 10 14 2 3 10 5 8 10 5
24 21 18 18 20 23 28 23 18 1 1 4 6 3 4 4 3 6 4 4 5 4 2 2 2 3 4 3 3 8 9 5 4 1 3 4 5 6 15 3 3 4 8 5
23 21 21 20 22 24 29 12 28 7 2 4 1 1 1 1 3 2 4 5 4 2 1 2 3 3 3 3 3 2 3 1 12 7 3 6 5 15 11 8 3 7 10 9
21 20 19 20 24 25 32 17 27 22 2 7 4 3 1 2 1 1 3 4 2 1 1 1 2 2 4 3 4 4 6 5 4 3 4 9 14 5 4 4 11 12 11 10
18 16 17 19 23 26 32 9 27 29 2 3 5 21 24 18 9 3 2 3 2 1 2 2 2 2 2 3 3 2 4 5 3 6 4 6 10 12 13 10 12 12 11 9
19 16 16 18 20 26 32 18 26 16 4 6 9 11 18 17 17 19 4 0 3 3 2 2 1 3 2 2 2 3 3 4 1 3 8 11 12 13 14 14 12 13 13 12
21 19 18 18 18 23 29 19 27 22 3 2 4 8 14 30 19 13 18 6 3 3 2 0 1 2 2 2 2 3 5 3 4 5 9 10 11 11 9 12 12 13 14 12
25 24 22 22 21 22 26 26 31 33 7 3 3 6 15 14 21 27 22 8 3 2 0 1 2 3 3 2 3 4 6 5 3 2 6 5 4 8 9 9 10 11 10 12
28 25 24 25 23 21 13 2 19 33 10 1 2 4 3 6 16 14 9 6 3 3 2 2 3 3 1 3 3 7 8 8 10 4 7 8 10 12 13 10 9 9 12 13
29 27 26 27 25 29 5 5 12 36 16 2 2 3 3 2 7 2 2 3 2 3 2 2 2 3 4 2 3 6 7 10 10 12 3 11 13 7 11 11 11 14 16 17
25 25 28 29 30 19 9 3 13 35 9 3 2 3 3 1 3 2 2 3 2 2 2 2 2 1 2 3 6 8 8 6 12 12 11 8 8 10 10 12 9 10 9 8
17 30 32 26 10 4 8 12 35 17 5 5 4 3 3 2 2 2 2 2 2 1 2 2 1 3 4 5 7 10 11 8 6 8 9 9 8 8 9 9 8 7 8 8
42 27 6 3 10 37 29 8 5 2 2 2 3 2 3 1 2 2 3 2 2 3 4 3 3 3 8 8 9 8 9 9 7 3 8 7 5 8 8 8 7 8 8 10
6 2 3 31 35 9 2 3 3 2 2 2 3 3 3 2 3 3 2 3 3 3 2 2 2 2 4 7 9 7 7 10 9 9 8 8 7 6 7 8 9 9 10 9
7 16 16 8 3 2 4 3 4 4 5 1 4 3 2 2 2 2 2 2 3 2 2 3 2 3 6 6 7 8 8 10 10 11 9 12 13 12 11 10 10 11 11 12
18 5 3 1 3 3 5 6 4 3 2 3 3 3 2 1 2 2 2 2 2 1 3 2 2 6 5 5 6 8 10 10 11 12 12 12 12 12 10 11 10 12 14 14
3 3 5 3 3 2 2 1 2 1 1 5 3 3 2 1 3 2 3 1 2 2 3 3 1 5 5 5 6 7 7 7 9 10 11 11 12 13 17 17 16 17 15 14
3 4 3 2 2 0 2 2 2 2 1 2 2 3 2 2 3 2 2 2 2 1 3 2 3 3 5 6 5 5 5 5 7 12 12 13 14 14 15 15 16 16 15 14
3 5 3 2 3 4 3 3 2 3 2 2 3 3 3 3 2 4 1 2 3 2 2 2 4 4 4 4 5 8 12 12 12 12 12 13 14 15 14 15 15 15 14 14
4 3 2 2 3 1 2 3 3 3 2 2 3 4 2 2 3 2 2 3 2 5 5 3 3 4 4 6 10 11 13 13 13 13 13 15 14 12 11 11 12 13 13 13

GFSNW_925_spd_096.txt.gz
Wind_Speed
12 13 15 15 13 6 3 2 3 2 4 2 2 2 4 3 12 9 3 4 5 5 9 5 4 4 5 5 3 4 2 3 2 3 4 5 4 3 1 3 3 3 4 5
12 13 14 12 7 2 3 1 3 3 2 1 2 6 7 6 10 9 4 5 4 7 6 4 6 5 5 10 5 3 2 2 3 3 3 5 3 2 2 3 3 6 2 5
12 13 12 9 6 4 4 1 3 3 1 2 4 4 5 5 8 12 1 5 7 8 8 8 6 2 2 2 2 9 6 3 4 2 3 2 3 3 6 7 3 4 7 11
12 12 11 10 5 10 6 1 2 2 3 1 4 5 5 9 7 7 3 1 8 8 4 4 6 7 6 7 7 5 4 3 2 1 4 3 6 9 9 11 12 7 6 14
12 12 10 8 6 14 4 3 2 2 3 5 4 7 9 11 8 4 2 5 5 9 4 1 4 5 6 4 7 4 4 2 2 2 5 2 5 9 12 15 15 13 13 15
12 12 9 5 10 18 4 3 0 2 4 3 2 1 5 9 13 7 8 6 3 5 6 4 2 2 2 1 2 2 1 3 2 2 2 6 7 4 5 6 4 2 6 7
12 12 9 6 12 21 7 5 4 3 3 2 3 6 6 9 12 4 8 7 4 4 10 6 4 4 4 3 5 3 2 2 2 2 3 2 6 10 5 4 4 7 10 13
14 11 10 9 9 25 17 10 4 2 2 4 7 6 5 6 10 4 3 4 2 8 5 4 2 3 3 3 2 3 4 3 1 1 1 6 8 3 4 4 8 4 4 10
15 13 13 13 13 14 26 15 11 2 2 3 4 4 4 3 4 6 3 4 7 6 3 3 3 1 0 3 3 8 5 4 2 1 0 3 5 4 10 6 3 14 4 8
17 15 15 14 15 15 21 10 21 4 2 4 3 1 2 2 2 3 4 6 6 5 3 3 2 2 3 1 1 1 3 3 3 2 4 5 4 10 7 2 4 9 11 4
18 17 17 15 15 15 23 11 22 13 3 4 4 4 4 2 0 2 4 4 3 3 4 2 2 1 2 3 2 1 2 3 3 2 3 6 10 2 4 4 12 12 14 13
19 19 19 20 17 16 24 7 22 23 3 4 3 12 20 12 5 3 4 1 2 3 3 2 2 2 3 3 2 5 2 2 2 5 2 7 8 9 8 10 10 13 13 14
21 20 19 19 17 18 22 15 21 9 1 4 2 8 22 17 23 17 2 2 3 2 0 2 2 1 0 2 2 2 3 6 2 4 5 9 9 10 12 11 11 11 11 11
21 18 17 17 12 13 19 16 23 16 3 2 5 4 7 9 22 18 18 3 1 3 0 1 2 2 1 1 3 1 3 7 5 2 5 4 12 9 8 11 11 13 13 13
19 16 15 17 13 12 15 24 28 27 5 3 3 9 7 9 10 22 15 11 2 0 1 1 2 2 2 0 1 2 3 4 3 3 8 3 6 9 10 12 11 11 12 11
19 17 15 17 14 11 10 2 19 32 12 1 2 3 2 3 8 13 10 6 3 2 2 2 2 3 2 2 2 3 3 6 8 3 3 6 6 9 10 11 10 12 13 12
20 18 17 17 17 17 4 3 5 33 16 2 1 3 2 5 5 2 2 2 1 2 1 2 2 0 1 2 2 3 5 5 7 8 4 4 12 6 10 11 12 14 16 16
22 21 20 20 17 17 12 10 4 26 7 2 2 3 2 4 2 2 2 3 2 2 2 1 2 2 1 1 3 4 6 3 8 8 8 5 8 10 10 12 10 10 10 10
25 22 20 16 12 4 7 18 20 17 4 3 4 4 3 3 2 2 1 2 1 1 2 2 1 1 2 1 4 4 6 4 6 2 7 6 8 8 9 10 11 9 9 8
28 20 7 3 11 26 33 6 2 2 2 2 3 2 3 3 3 2 3 1 2 3 4 3 2 1 4 5 6 5 5 6 8 4 5 6 7 8 9 10 8 9 8 10
11 3 3 10 40 9 2 3 3 3 3 4 3 6 4 2 3 3 3 3 3 3 3 3 2 2 3 5 6 5 6 7 7 7 6 6 6 6 7 8 11 11 11 10
13 15 15 6 3 2 4 4 3 4 5 5 5 5 3 3 1 2 3 4 4 3 2 3 2 1 8 6 6 5 6 6 7 7 8 10 10 11 10 10 11 11 10 11
20 5 3 2 1 4 5 6 3 3 5 5 4 4 3 2 2 2 3 5 2 3 3 2 1 7 6 6 6 5 5 6 7 9 9 9 10 11 10 10 10 12 14 12
3 3 4 1 1 3 4 3 4 2 4 8 6 3 2 2 3 1 3 2 1 2 0 4 3 5 6 5 5 5 4 6 7 7 8 10 11 13 13 12 10 11 12 10
3 3 2 1 2 0 1 1 3 2 5 5 3 2 2 1 2 1 3 2 2 3 3 3 3 5 6 5 5 5 5 6 6 8 10 11 13 14 12 10 10 10 9 8
3 5 3 2 3 2 2 3 3 2 2 2 2 3 3 1 3 2 3 4 4 3 2 3 6 6 4 4 4 8 9 9 10 10 10 10 10 11 11 9 9 8 7 8
4 2 2 2 2 2 1 2 2 2 2 2 2 3 3 3 3 0 1 4 3 3 3 2 4 6 6 7 10 10 10 10 9 9 8 9 9 9 7 7 7 7 6 5

GFSNW_925_spd_099.txt.gz
Wind_Speed
8 9 10 10 10 5 3 2 2 2 4 3 1 2 3 10 12 12 7 6 6 7 4 5 4 4 6 10 3 4 1 4 4 2 3 4 3 4 3 2 4 2 3 5
7 8 10 7 5 2 2 1 2 2 2 2 3 5 6 7 8 11 3 4 3 14 7 3 4 5 10 10 3 2 3 2 6 7 5 2 3 3 4 3 1 4 2 3
7 7 9 6 4 2 2 2 3 3 1 1 3 9 5 7 6 12 6 4 8 6 5 5 4 3 7 9 7 11 4 3 3 4 5 3 2 2 2 2 2 4 8 15
7 8 8 6 4 6 3 2 0 1 3 2 7 5 6 9 10 4 4 3 7 9 4 6 9 11 7 5 8 4 4 5 5 5 3 3 3 3 5 7 10 7 10 14
8 7 7 5 4 12 2 3 2 1 3 6 5 4 5 9 11 4 6 10 9 8 8 10 8 6 3 3 8 4 3 3 1 1 3 4 4 7 10 9 10 13 17 19
8 7 7 3 10 14 3 2 2 2 3 4 4 2 5 8 11 6 11 14 6 5 10 12 12 7 6 4 3 3 3 3 1 2 3 4 5 4 7 7 6 5 10 13
9 8 7 5 11 15 5 4 4 2 2 2 4 9 10 11 11 9 11 10 8 4 14 11 7 5 5 3 4 2 2 3 1 1 2 2 2 8 2 8 8 11 12 9
9 9 7 6 7 22 12 8 4 2 2 3 8 6 7 10 11 3 4 5 5 12 5 3 2 1 2 4 7 2 1 2 3 1 1 5 2 6 5 5 8 13 10 8
12 11 9 8 8 11 20 12 8 3 1 3 3 3 4 4 4 7 3 4 8 7 2 3 5 3 3 2 2 6 5 4 2 1 1 2 4 10 11 5 3 17 17 6
13 12 11 11 11 12 19 10 17 4 2 3 4 2 3 2 2 4 4 7 7 5 5 3 4 3 3 2 2 2 3 3 1 2 2 4 7 14 9 2 4 11 14 10
15 13 13 14 12 11 19 9 23 11 3 3 6 4 4 2 1 3 4 3 3 4 6 3 3 3 3 3 3 3 3 2 1 1 2 2 12 5 5 1 7 9 11 12
16 16 15 16 15 12 20 7 24 20 3 3 4 11 19 15 6 2 2 0 2 3 3 3 3 2 3 5 2 5 3 4 2 3 4 6 11 11 10 10 8 9 8 9
17 14 16 18 18 17 18 13 22 9 1 4 2 8 16 19 23 20 1 1 2 1 1 1 2 2 3 3 2 3 2 8 2 2 7 11 11 11 11 11 12 11 12 11
17 16 18 19 18 19 17 20 25 17 3 2 4 4 8 5 14 19 20 3 1 1 1 1 2 1 3 2 3 2 2 6 5 1 5 2 12 11 10 11 10 11 12 12
16 17 16 14 16 14 16 24 28 25 3 2 3 8 2 5 8 18 15 10 1 1 2 1 1 1 2 1 1 2 3 3 2 3 6 5 6 9 10 10 10 11 10 11
17 14 14 13 14 11 13 1 18 28 12 0 2 2 2 5 6 11 10 6 2 2 1 1 1 2 1 2 1 3 4 5 6 2 3 9 9 10 9 9 9 10 11 12
17 13 11 11 14 13 4 2 2 31 17 2 2 2 0 6 5 2 2 2 1 1 1 2 2 0 1 1 2 5 5 6 6 7 1 6 11 6 8 8 9 11 13 14
17 14 11 10 10 15 9 5 9 23 7 2 2 3 1 5 2 2 1 2 1 1 2 2 2 2 1 2 5 5 4 7 7 7 8 8 8 8 9 9 7 8 9 10
18 13 10 7 8 6 7 13 16 21 3 2 2 3 3 2 2 3 1 1 2 1 3 3 2 2 3 3 8 5 5 3 3 3 7 7 8 8 8 8 8 8 8 8
16 10 7 2 10 20 26 4 2 2 3 3 4 1 2 2 2 2 3 1 2 3 4 2 3 1 4 6 7 6 5 6 6 5 4 4 6 6 8 9 8 8 7 8
7 4 3 7 34 8 2 3 4 4 4 5 4 6 4 2 3 2 2 2 2 2 3 5 2 2 4 7 7 6 7 8 8 8 7 7 6 6 6 7 9 9 9 9
18 14 11 11 3 3 5 4 4 4 6 5 5 6 3 2 2 2 3 3 3 4 3 2 2 2 9 8 7 7 7 8 9 9 9 9 10 9 10 10 9 9 9 10
17 4 4 3 2 4 7 8 4 5 5 6 6 6 3 2 3 2 3 5 3 2 1 2 0 7 7 7 7 7 8 9 10 10 10 10 12 11 10 10 9 9 10 9
2 4 6 3 3 4 3 4 4 3 4 9 9 4 3 3 3 1 3 2 2 2 2 3 5 8 8 6 6 6 5 8 10 10 11 12 12 12 13 12 11 13 13 11
2 2 3 3 1 1 1 1 3 2 8 6 5 3 2 1 2 1 3 2 3 3 2 3 6 9 8 7 7 7 7 7 8 8 10 12 12 13 12 10 10 10 9 9
3 5 3 1 2 3 2 3 3 2 3 3 3 3 2 2 2 3 5 4 4 3 2 4 8 7 6 7 6 8 10 9 9 9 9 8 8 8 8 8 8 8 8 9
4 2 1 2 2 3 2 2 1 2 2 2 3 4 4 3 2 2 3 2 1 4 6 5 6 7 7 8 11 12 12 11 10 9 8 8 8 7 5 4 4 5 5 5

GFSNW_925_spd_102.txt.gz
Wind_Speed
2 2 5 5 5 5 3 2 1 6 7 1 2 6 11 15 11 10 8 8 11 13 15 7 8 7 5 0 11 10 1 7 11 9 4 4 3 5 4 3 5 2 0 3
3 1 4 4 2 5 1 2 2 1 4 4 7 10 9 6 12 12 7 6 9 15 5 5 3 4 11 5 5 3 5 7 8 8 6 7 6 6 6 4 2 3 2 3
3 1 2 2 2 1 1 1 1 1 1 2 7 10 10 15 13 11 11 9 10 14 3 4 6 6 14 14 11 13 2 3 4 6 8 9 8 8 6 3 3 1 7 13
3 3 3 2 2 4 2 2 2 2 2 1 8 8 10 15 13 8 7 3 14 13 8 11 9 12 8 17 16 10 6 8 11 11 10 8 8 7 5 2 5 4 10 14
4 5 3 2 4 8 1 2 1 3 3 5 5 4 7 13 12 5 12 16 19 12 13 12 13 13 9 6 1 4 5 2 7 9 7 5 3 1 4 3 4 6 8 9
6 5 4 2 9 10 2 2 1 3 1 3 4 3 7 9 14 5 11 16 14 13 17 19 14 10 9 6 7 7 2 3 2 4 1 1 3 7 6 2 5 7 9 12
7 5 6 4 10 12 3 3 1 2 1 3 5 9 10 10 11 11 15 13 12 12 21 16 5 4 1 3 7 3 2 4 2 3 2 3 6 6 6 4 11 16 15 8
8 7 7 5 8 18 5 5 2 2 3 4 3 8 8 9 8 6 9 11 12 15 12 5 2 3 2 5 13 5 4 2 3 1 4 6 8 8 9 8 7 16 17 4
10 8 9 6 7 12 14 9 3 2 4 1 3 7 6 5 8 6 5 11 10 11 3 3 5 4 4 3 3 6 4 4 2 0 2 3 7 11 10 8 2 15 14 11
11 10 9 8 8 8 17 6 12 2 3 1 3 4 5 3 4 4 4 11 8 11 6 4 4 4 4 2 3 5 3 3 4 2 3 5 11 15 14 4 6 10 10 11
12 14 8 10 9 7 18 8 18 7 3 6 6 7 8 5 4 4 9 4 5 5 4 4 4 4 5 3 6 4 4 3 2 1 1 2 16 7 6 5 9 9 10 9
13 14 11 12 10 9 12 6 19 15 3 5 4 10 16 16 11 6 2 5 3 4 3 3 3 2 3 4 2 7 2 5 4 5 3 5 7 10 9 11 8 9 8 8
12 13 15 14 13 11 10 8 18 8 1 6 9 7 9 13 19 13 3 1 2 1 4 2 2 3 3 2 3 3 3 8 2 4 6 9 8 10 10 10 10 10 10 9
12 13 13 14 16 15 12 16 22 12 2 3 2 2 5 4 8 17 16 4 1 3 4 2 2 3 3 2 4 3 4 5 4 4 7 7 11 10 9 10 10 10 9 9
12 13 13 15 14 15 15 19 25 23 5 2 2 6 1 2 5 11 13 12 8 4 3 2 2 2 3 0 2 1 4 3 2 2 4 6 6 8 8 9 9 8 8 8
13 12 13 13 12 11 12 1 13 28 10 1 2 2 1 2 3 6 11 6 4 3 3 3 2 1 3 2 1 3 5 6 5 2 8 10 8 8 8 8 7 8 8 10
12 14 12 10 8 19 4 2 2 28 16 2 2 3 3 5 5 3 4 6 3 3 2 2 4 1 2 2 2 7 6 5 6 6 7 6 6 4 5 5 6 7 9 10
11 12 11 5 9 14 7 4 12 26 7 1 2 2 3 7 3 3 3 4 4 3 2 1 3 2 2 3 6 6 6 6 6 7 9 8 7 5 5 5 3 4 6 7
12 12 7 4 5 4 5 15 17 17 3 2 3 3 3 4 2 2 2 3 3 1 3 3 3 3 4 2 8 6 3 2 4 5 7 7 5 5 6 5 5 6 6 7
13 9 4 2 5 15 26 5 2 2 2 2 3 1 3 4 3 3 3 3 3 3 4 1 3 2 4 3 5 6 5 4 1 6 3 3 4 4 5 6 6 7 6 7
9 4 3 5 28 6 1 3 4 4 4 4 4 8 5 4 4 3 3 2 1 3 3 3 4 3 5 7 7 6 6 6 7 8 7 5 4 4 5 6 8 8 8 8
10 8 7 7 3 3 4 5 4 6 6 8 6 6 3 4 2 3 3 3 2 4 5 3 3 4 9 9 8 7 7 7 8 8 9 8 8 8 8 9 9 9 9 8
2 5 3 4 3 6 7 10 5 6 7 7 8 8 4 2 3 2 4 5 4 0 3 3 3 8 8 8 7 7 8 9 9 10 10 10 11 10 10 10 9 8 8 7
3 6 7 6 5 7 5 7 4 4 6 11 9 6 4 2 4 2 3 3 2 3 3 2 5 10 9 7 7 8 8 9 10 10 11 11 11 11 10 9 8 8 8 7
4 3 6 5 2 0 3 5 5 4 10 11 6 4 3 3 3 3 1 4 4 4 1 3 7 11 10 9 9 9 9 10 11 11 11 11 10 10 9 7 7 7 6 5
2 2 2 3 5 4 5 4 4 3 9 8 3 4 4 3 3 5 6 3 4 3 3 7 10 10 9 9 9 11 11 12 12 11 11 10 9 8 8 7 6 5 5 5
3 2 1 0 4 4 3 2 2 1 7 3 3 6 3 4 3 4 3 1 3 6 8 7 9 10 10 11 12 11 11 11 11 10 9 8 7 6 5 5 4 4 3 4

GFSNW_925_spd_105.txt.gz
Wind_Speed
6 5 2 3 3 4 3 4 1 4 5 3 2 5 11 8 13 14 10 10 14 12 17 9 6 5 11 7 13 13 11 4 12 19 14 9 14 11 10 5 5 1 4 4
7 6 2 2 3 3 7 2 1 2 4 3 5 9 8 11 17 14 7 8 6 11 7 4 7 3 13 3 3 4 6 5 10 6 9 6 10 7 4 3 2 5 3 3
7 6 4 3 3 2 5 1 0 1 2 1 8 9 8 15 8 6 14 10 7 16 6 8 10 8 15 14 9 10 2 5 8 6 12 14 8 10 7 3 3 1 5 9
7 7 5 4 3 3 5 2 2 1 0 2 7 7 9 13 12 9 15 5 20 16 8 13 14 14 8 13 20 7 5 6 8 5 11 12 11 10 6 4 2 3 9 10
7 8 5 5 5 6 6 3 3 4 1 4 5 1 7 11 13 5 13 18 21 17 18 18 19 15 11 7 11 10 12 5 8 12 10 10 10 6 2 2 3 6 8 10
6 7 6 5 7 8 3 1 1 5 2 2 4 3 7 12 11 6 13 16 16 14 22 23 16 10 7 7 4 5 7 4 4 4 5 7 7 9 6 5 19 12 8 12
10 8 7 6 9 12 4 1 5 2 3 4 4 6 8 10 11 10 13 14 14 15 22 17 3 2 2 5 5 6 4 2 2 4 4 4 7 10 7 16 18 15 14 10
10 9 8 6 9 14 7 2 3 3 4 3 2 7 7 8 6 8 8 13 14 16 14 5 2 4 4 8 10 7 7 4 2 1 4 13 8 9 9 8 10 16 14 13
12 10 8 7 8 11 7 2 4 3 3 3 4 6 3 6 8 6 7 13 10 14 5 4 5 4 8 5 5 6 3 3 1 2 4 3 7 16 14 8 4 15 14 13
13 11 8 9 7 7 11 4 4 3 3 4 5 7 7 6 7 7 8 15 8 12 7 5 5 4 5 4 5 6 5 5 6 2 2 7 12 21 20 4 4 8 11 11
15 14 9 10 8 5 10 3 9 4 3 7 8 6 7 6 6 6 11 7 7 6 7 5 4 4 6 4 7 6 7 6 5 3 2 4 18 8 6 5 7 8 10 10
15 14 14 10 9 7 8 4 9 10 5 6 11 13 15 14 13 7 4 2 6 4 3 5 4 3 3 5 1 10 3 5 4 6 3 4 7 9 8 7 7 9 9 8
15 14 14 10 10 9 10 4 12 6 2 8 10 1 3 5 10 10 5 2 4 4 5 2 3 4 4 4 5 3 3 8 3 5 5 7 8 9 10 9 9 9 9 9
15 15 13 15 12 11 10 8 14 7 1 3 1 3 2 2 3 10 13 8 4 6 5 1 3 3 5 3 4 4 4 5 4 5 7 8 8 8 8 10 10 9 8 9
16 13 12 14 12 12 11 13 15 19 5 2 3 4 1 1 2 5 9 9 7 5 4 2 3 4 4 3 2 2 5 3 2 3 3 7 6 7 8 8 8 8 9 8
17 13 13 12 13 13 7 1 13 22 13 1 3 2 2 1 3 4 6 7 5 5 1 4 3 2 3 3 2 4 5 5 5 3 7 10 8 6 7 6 7 8 9 10
17 11 13 13 10 12 6 3 3 25 18 2 3 2 2 1 3 3 3 5 2 3 2 3 4 1 2 3 3 6 5 5 6 5 6 5 4 4 4 4 5 5 8 9
13 12 14 14 10 8 9 3 8 27 6 2 3 2 4 5 2 2 1 3 3 3 3 2 5 2 2 3 7 7 6 5 5 6 7 8 6 4 3 3 3 3 6 7
10 9 8 6 5 2 6 13 24 10 1 2 3 3 3 4 2 1 2 2 3 2 2 3 3 4 4 4 6 7 8 3 6 5 6 6 5 4 4 4 4 5 5 6
10 9 3 3 6 11 24 4 2 2 2 2 3 4 3 4 3 5 3 3 3 3 5 1 3 5 4 3 5 7 5 3 3 5 5 3 4 4 5 6 6 7 7 7
9 4 3 5 27 7 2 3 3 3 4 5 5 9 5 4 4 4 3 2 2 3 2 3 3 3 5 6 6 6 5 4 5 7 7 5 5 5 6 6 7 7 8 8
10 4 5 6 2 2 4 5 5 6 6 7 6 6 3 3 2 3 3 3 2 4 3 3 3 4 8 8 7 6 6 7 8 9 9 9 9 9 9 9 9 9 8 7
6 4 3 3 4 6 7 10 5 5 5 6 7 6 3 3 3 1 3 4 4 1 3 3 3 8 8 8 7 7 9 9 10 10 10 11 11 11 10 10 9 8 8 7
2 3 6 4 6 6 5 7 7 4 7 10 9 4 3 2 4 2 4 3 2 3 4 1 5 9 9 8 8 8 8 8 10 10 10 11 11 10 10 9 7 6 6 5
3 4 6 8 1 2 3 3 5 6 9 10 7 4 3 3 3 4 2 3 4 4 1 3 8 12 10 9 8 9 8 9 10 10 11 10 9 9 8 6 5 5 4 4
2 4 3 0 5 4 3 4 4 6 9 9 4 4 4 4 3 5 7 3 4 2 3 7 10 11 10 9 9 11 12 11 11 10 10 9 7 6 6 5 4 4 3 3
4 4 3 2 1 4 3 3 3 8 9 4 3 6 5 4 4 4 3 1 3 7 8 8 10 11 11 13 14 14 13 13 12 10 9 8 6 6 5 4 3 2 2 1

GFSNW_925_spd_111.txt.gz
Wind_Speed
10 7 5 4 5 5 5 4 2 6 4 3 2 2 2 8 9 5 4 3 3 4 11 5 5 7 9 17 9 5 3 2 1 3 8 3 4 2 6 2 3 2 2 4
10 7 4 4 4 4 4 2 3 5 4 2 3 5 6 5 4 6 6 4 4 4 4 5 3 9 13 17 10 2 3 1 2 2 2 5 4 5 7 3 3 3 1 4
9 7 5 5 3 3 3 2 2 2 1 2 0 4 4 8 6 4 9 8 5 4 3 3 4 10 8 13 12 10 6 4 6 3 3 4 1 12 10 5 1 4 6 10
10 7 6 5 3 3 2 2 3 5 2 1 2 3 4 6 6 2 5 5 10 7 4 6 4 5 10 10 15 8 5 6 8 13 10 14 10 15 9 9 7 7 8 17
10 8 7 6 4 2 2 3 0 2 2 5 4 2 3 5 6 3 6 5 11 11 4 5 12 13 3 4 7 6 5 4 8 13 16 20 15 22 19 19 15 10 13 10
11 7 7 6 4 4 4 3 1 3 2 2 2 5 2 6 8 4 8 6 8 9 9 16 17 15 11 9 2 5 4 2 1 4 11 10 13 19 21 22 20 12 10 6
11 6 8 7 4 6 4 6 4 2 3 1 0 5 5 7 9 6 5 8 5 8 14 18 9 6 10 4 4 4 0 5 2 2 6 5 7 15 21 24 19 18 15 10
11 8 8 7 4 6 1 6 4 3 2 3 7 7 5 7 8 8 7 5 6 9 9 3 4 2 6 7 6 5 5 2 2 3 3 5 11 14 9 5 12 18 15 13
13 10 8 7 5 6 2 5 5 2 2 3 9 4 5 3 5 7 5 12 8 8 2 3 4 3 4 4 8 12 8 9 3 1 4 4 6 19 14 5 7 14 14 14
14 9 8 7 5 6 3 4 4 3 2 3 5 3 3 4 5 4 5 9 8 6 4 3 3 3 7 4 7 8 5 5 7 5 4 3 14 19 13 3 3 7 10 11
14 10 9 8 5 6 6 2 1 4 2 4 4 5 3 4 4 2 5 5 5 4 6 4 4 3 3 1 6 4 5 5 4 4 4 4 20 7 6 4 6 8 8 9
15 13 10 9 7 6 7 3 4 2 2 4 8 13 15 9 4 0 4 3 5 2 3 3 3 3 4 4 3 8 4 3 3 5 4 4 8 10 10 8 6 6 7 7
16 13 12 9 8 6 6 4 4 4 3 4 2 3 0 7 11 6 2 3 4 3 1 1 2 2 3 3 2 3 3 4 4 3 5 8 8 8 9 7 5 6 8 10
17 15 11 10 8 7 5 3 2 2 1 1 4 3 3 4 2 5 6 3 6 4 1 2 2 2 3 2 3 4 4 4 3 5 8 9 7 7 6 8 8 10 10 11
18 15 12 9 8 8 5 2 2 3 2 2 4 16 5 5 2 2 3 4 1 2 3 1 2 2 3 3 3 3 4 3 1 2 5 5 5 5 6 6 7 9 9 10
17 16 13 8 7 10 4 2 5 10 4 1 3 6 3 7 3 4 5 3 2 0 1 2 3 1 2 2 2 5 7 4 4 4 8 10 7 3 3 6 7 14 13 15
17 16 12 7 9 13 4 2 2 12 10 1 2 2 3 4 1 2 2 3 1 2 2 2 2 2 2 2 2 7 7 5 8 7 8 6 5 4 4 6 14 19 18 17
18 14 7 8 7 7 9 12 3 19 4 1 1 3 1 2 1 1 1 1 2 2 2 2 1 2 2 1 9 9 9 8 8 8 9 8 7 6 7 13 17 12 10 13
19 12 10 6 3 3 4 5 8 11 2 2 2 1 3 2 1 1 1 1 1 3 1 2 2 2 1 3 11 11 10 7 9 9 7 6 7 9 10 11 10 11 9 13
17 12 5 2 6 7 17 5 2 2 1 1 3 2 2 3 1 0 0 1 2 1 4 1 2 1 1 4 8 7 7 12 10 7 7 8 9 9 9 9 11 13 12 13
6 4 3 3 17 4 1 3 3 3 3 3 4 5 3 2 3 2 3 2 2 1 3 3 2 3 2 7 9 7 10 15 14 14 14 15 14 9 9 10 14 14 12 10
9 8 4 7 3 2 3 4 4 4 5 4 3 4 4 1 2 2 1 2 3 3 1 3 2 2 8 8 8 8 13 17 17 19 17 18 18 18 17 15 13 12 10 9
7 1 1 2 3 5 4 6 3 3 3 4 3 2 3 3 2 2 1 1 3 1 1 3 1 6 7 8 10 10 17 19 18 17 20 21 19 18 16 14 13 10 10 8
2 3 4 4 4 4 4 4 5 4 4 5 4 2 3 1 2 2 3 3 1 2 2 3 4 8 7 9 7 10 9 15 15 15 17 16 17 17 15 13 10 10 10 8
2 2 4 5 3 1 2 3 2 1 4 5 3 3 3 1 2 2 3 2 3 5 3 2 7 9 11 10 10 9 8 12 13 16 17 17 17 16 14 9 9 8 7 6
2 3 3 2 1 1 2 2 3 1 3 3 3 3 3 4 3 4 6 3 5 2 2 5 9 10 9 9 9 14 18 18 17 17 16 15 14 13 12 7 5 4 3 4
2 3 2 1 1 2 1 1 2 3 4 3 3 5 6 3 2 4 4 4 1 5 6 6 9 10 9 13 16 18 19 19 18 16 14 13 10 10 9 8 7 6 6 5

GFSNW_925_spd_114.txt.gz
Wind_Speed
16 12 11 9 7 5 3 3 2 6 5 3 1 2 3 2 1 6 4 2 4 5 4 5 4 5 7 12 11 7 3 2 7 6 10 2 1 2 4 4 1 3 3 3
15 13 10 7 6 4 5 3 1 2 2 2 2 4 3 2 2 1 2 3 6 4 2 2 5 7 9 14 10 4 2 1 4 1 4 5 3 2 2 8 2 1 3 4
15 12 10 7 5 3 4 2 2 3 2 1 4 1 2 4 1 1 3 5 2 4 3 5 5 4 8 17 6 13 4 3 5 3 4 2 4 8 5 6 4 6 8 6
14 12 9 7 5 3 3 2 3 4 3 2 3 2 1 2 3 2 3 4 3 2 3 6 3 4 11 8 6 6 3 6 8 2 3 13 10 8 10 12 9 4 8 8
14 11 9 6 5 3 2 3 3 2 2 6 4 1 2 1 4 3 6 2 8 2 3 5 9 8 3 6 9 6 6 3 7 12 17 22 20 24 20 16 13 13 13 9
13 10 9 6 5 4 1 2 2 3 2 3 4 4 3 2 3 6 4 2 4 6 5 11 18 13 11 12 5 5 5 3 3 2 7 1 15 16 21 20 18 7 5 6
14 9 8 6 5 6 3 3 1 3 1 2 4 5 2 3 4 3 3 5 4 6 14 13 7 7 6 5 5 5 6 6 2 2 7 6 4 9 19 22 16 14 10 10
14 10 9 7 6 7 3 4 1 2 2 2 6 7 3 4 6 4 2 5 4 9 6 5 5 4 6 5 1 10 3 4 3 1 6 7 8 9 6 5 11 11 10 4
13 10 10 9 7 8 3 4 4 3 4 3 5 3 3 2 4 6 3 5 9 6 3 3 3 3 4 5 10 8 7 11 4 1 4 3 4 17 11 6 8 11 11 12
14 11 11 9 8 10 5 4 6 4 3 2 2 2 1 1 2 1 3 6 7 5 4 4 3 3 3 4 6 7 4 4 6 5 4 4 13 17 6 3 3 7 9 10
16 12 11 10 9 11 6 6 6 3 2 4 3 3 1 3 3 2 4 4 4 4 5 3 2 2 3 2 4 4 6 4 4 3 4 3 18 4 5 5 6 8 8 8
17 13 13 11 9 10 7 5 5 4 4 4 5 14 14 7 4 3 3 1 2 2 3 1 2 2 3 4 3 6 4 3 2 5 3 4 6 10 8 5 5 5 7 5
16 16 13 12 10 9 10 9 5 3 3 3 3 3 3 4 9 6 3 3 1 2 3 1 1 2 2 3 2 3 3 1 3 3 4 8 7 8 7 6 6 8 9 11
18 15 15 12 10 9 9 6 5 5 3 2 3 8 2 3 4 9 5 3 2 0 2 1 1 1 0 1 2 3 2 4 3 4 7 8 7 7 5 8 10 11 13 13
19 17 14 13 11 9 8 7 5 3 2 2 3 12 1 4 4 4 4 2 1 2 2 2 1 1 3 2 2 2 3 2 0 2 7 5 5 6 6 9 10 10 11 12
20 18 14 12 12 11 5 3 4 6 2 1 2 5 3 5 3 2 2 1 1 2 2 2 2 2 3 2 1 3 5 7 0 3 6 10 7 5 8 10 11 15 15 14
20 17 13 9 12 12 4 3 2 9 4 1 2 2 2 1 1 2 3 3 1 2 1 1 1 2 3 2 2 7 6 6 7 8 9 7 4 3 8 17 18 20 19 18
20 16 11 10 10 8 2 2 5 14 4 1 1 3 3 1 1 2 1 2 3 2 2 2 0 3 2 2 8 10 9 9 8 7 7 8 12 13 16 18 17 12 10 12
21 15 14 10 3 3 3 4 8 3 2 1 1 2 3 1 2 0 1 1 1 2 1 2 2 2 0 3 9 11 11 8 9 8 9 10 12 10 10 11 10 11 8 10
20 15 3 2 5 13 14 5 1 1 1 1 2 1 1 3 1 1 1 1 2 0 3 1 2 1 2 2 5 7 8 11 10 11 8 9 7 8 9 10 12 11 10 10
5 3 2 3 18 5 2 2 2 2 2 3 4 4 2 1 2 2 2 2 1 1 3 3 1 2 1 7 9 8 11 12 9 7 9 10 13 11 10 10 12 11 10 9
8 7 5 7 2 2 3 3 3 4 4 3 4 4 4 1 3 3 0 1 2 3 0 3 3 1 6 11 10 9 14 17 15 17 17 17 17 17 16 13 12 11 10 9
7 2 2 2 1 4 4 6 3 2 3 4 2 1 3 2 3 2 1 1 3 1 1 3 2 4 7 10 11 10 15 19 18 17 19 19 17 15 15 14 13 13 11 9
2 2 4 4 4 4 4 4 4 4 3 5 3 2 2 1 3 1 3 4 1 2 2 4 3 10 11 9 9 12 8 12 14 14 16 17 18 16 14 14 13 13 12 9
1 1 3 4 3 3 1 1 1 2 4 4 3 3 3 1 3 2 3 0 3 4 4 3 6 10 12 10 8 10 9 12 13 18 18 19 19 18 16 13 12 11 10 9
2 1 2 2 1 2 1 2 1 1 4 2 3 2 3 2 3 3 5 3 5 4 2 2 8 10 9 10 9 12 17 19 19 20 21 20 18 17 14 12 10 9 7 6
1 2 0 1 2 1 1 1 1 1 3 2 3 4 6 2 2 4 5 5 3 2 2 2 5 10 9 11 15 17 20 20 21 21 19 18 15 14 13 12 11 10 10 7

GFSNW_925_spd_117.txt.gz
Wind_Speed
26 24 21 18 16 13 10 6 2 6 6 3 2 2 4 2 3 3 3 3 4 5 2 3 3 4 5 8 13 9 3 3 4 4 11 7 3 5 4 3 3 2 3 3
22 20 18 16 16 15 7 3 2 3 1 3 0 3 0 3 2 2 3 2 5 2 3 2 4 5 7 13 9 4 3 2 6 3 2 3 3 3 4 6 2 4 0 3
20 18 17 16 15 13 5 3 3 3 3 1 4 3 1 2 1 2 2 3 2 2 1 3 4 4 7 15 5 13 1 2 6 4 4 7 5 5 9 6 4 3 5 6
19 17 15 14 12 12 4 2 2 3 2 2 3 2 2 2 1 1 1 2 2 2 2 3 4 4 8 8 4 7 3 5 11 20 16 20 16 4 10 14 9 5 5 6
17 15 14 13 11 10 3 3 4 2 2 4 5 1 4 3 2 3 3 1 5 3 4 7 7 4 2 7 7 6 3 1 3 6 12 25 23 23 18 21 15 11 10 9
18 16 13 12 11 5 4 2 3 3 2 3 4 3 4 3 2 1 2 1 2 2 8 8 16 12 9 9 6 4 3 3 2 4 5 7 14 16 16 16 16 5 6 5
18 15 12 10 11 6 10 5 4 3 1 3 4 4 3 0 0 2 1 2 1 5 9 13 5 5 8 8 6 10 6 5 2 1 2 6 2 11 10 20 15 12 12 8
16 14 13 12 12 12 17 8 3 3 2 1 5 5 3 2 4 3 1 2 3 8 5 4 5 5 4 1 5 8 6 1 2 2 5 5 4 8 6 7 9 12 8 8
16 14 14 13 13 13 15 13 7 4 4 1 1 3 2 1 2 5 3 4 6 5 3 3 3 3 4 4 8 5 6 11 3 2 3 2 4 12 9 6 5 9 9 9
16 15 15 14 15 13 10 9 6 5 3 2 2 2 2 2 2 0 3 6 7 4 3 3 3 2 4 3 5 5 5 4 6 4 3 3 11 12 4 1 1 5 7 9
15 16 15 15 16 14 9 11 8 4 2 2 1 1 2 1 2 2 3 3 3 4 4 2 2 2 2 1 2 4 4 4 4 3 4 3 14 2 3 6 5 5 7 7
18 16 15 15 16 14 11 6 7 6 5 3 2 7 9 3 5 4 2 2 1 2 3 1 1 2 2 2 3 5 4 3 2 5 3 4 6 10 7 4 4 3 5 10
16 17 15 14 14 13 9 11 6 5 3 3 3 3 5 4 12 5 3 2 1 2 2 1 1 2 1 2 1 2 2 1 3 2 4 7 7 6 6 9 7 7 9 10
18 18 17 15 14 13 11 8 8 6 4 3 1 5 2 1 6 7 2 2 3 3 2 1 0 1 1 1 1 2 1 3 3 4 6 7 8 5 6 8 9 11 11 10
19 17 16 15 14 14 13 12 8 6 3 3 2 5 2 3 5 5 3 3 3 2 2 2 1 1 1 1 2 2 2 1 1 2 7 5 5 5 7 7 7 7 10 9
20 18 16 15 14 14 8 3 1 3 3 3 2 3 3 2 3 3 2 2 2 2 2 2 2 3 2 2 1 1 2 5 1 3 4 9 9 7 8 9 8 11 12 11
21 18 16 15 13 7 6 3 3 7 3 2 2 1 1 1 2 3 3 4 1 2 1 1 1 2 3 2 2 6 5 6 8 11 11 6 5 5 11 15 14 14 15 13
20 17 13 13 11 8 4 5 8 9 4 3 2 1 2 3 2 1 1 2 2 2 1 2 1 2 1 1 3 9 9 9 6 4 5 6 13 15 12 14 13 10 8 9
21 17 17 13 4 3 2 9 10 4 3 1 2 3 3 1 2 1 2 1 2 2 0 1 2 2 2 2 9 8 10 8 9 10 10 10 12 10 8 9 7 8 7 8
22 16 4 2 4 17 12 3 1 2 1 1 2 1 2 2 2 1 2 2 1 1 3 1 2 2 2 3 9 8 8 8 10 11 7 8 8 8 6 5 7 8 8 8
6 3 2 7 20 5 2 2 1 2 2 3 3 4 2 1 3 2 1 2 1 1 3 2 2 3 2 3 7 5 9 12 9 6 7 9 10 9 9 9 10 10 9 9
8 9 9 6 2 1 2 3 2 3 4 3 4 4 4 1 2 3 0 2 2 2 1 1 3 3 5 7 10 8 11 13 9 12 15 15 14 14 14 12 11 11 12 11
6 3 3 3 1 3 6 5 3 3 3 3 3 1 3 2 3 2 1 2 3 1 1 3 4 4 5 7 9 9 11 14 15 15 15 18 16 15 15 14 13 14 13 10
2 2 4 3 3 4 4 3 3 3 3 4 3 2 2 1 3 1 3 3 0 2 2 5 3 8 9 8 7 10 8 10 13 14 17 18 18 15 14 15 15 13 12 9
2 1 3 3 3 2 1 1 2 1 3 3 3 3 3 2 3 1 2 2 3 4 4 3 3 9 10 8 6 7 8 10 12 17 17 18 19 19 17 13 11 10 11 9
2 1 1 2 1 1 2 1 2 1 3 2 3 3 3 1 4 3 4 2 5 4 3 2 4 9 7 7 6 10 15 17 19 19 20 19 19 18 15 13 11 10 9 8
1 1 1 2 1 2 1 1 1 2 3 2 3 4 5 1 2 2 3 5 4 3 2 1 3 9 8 9 13 17 19 19 20 19 19 18 15 13 12 11 12 11 9 7

GFSNW_925_spd_120.txt.gz
Wind_Speed
35 32 34 32 31 28 20 6 4 9 14 3 1 4 4 5 4 4 4 3 3 5 3 1 1 3 2 6 7 10 4 4 4 11 5 5 4 5 5 3 4 2 3 3
32 30 29 29 28 27 10 3 3 3 5 4 1 2 3 3 4 3 4 3 3 2 4 2 3 3 6 7 6 3 5 3 5 6 2 1 3 2 1 2 2 3 2 3
28 25 22 23 25 16 4 4 3 3 2 0 6 5 3 4 3 3 3 3 5 3 2 1 2 3 5 5 3 11 0 2 7 5 7 8 6 6 3 3 3 4 4 5
22 20 19 19 19 14 2 3 2 3 3 1 5 4 3 5 4 3 2 2 3 4 0 3 3 4 6 3 3 5 1 2 2 5 17 14 17 11 10 12 7 4 4 5
19 18 16 15 14 11 2 4 4 2 3 6 7 2 2 5 3 4 0 4 2 5 5 6 4 3 2 3 6 4 1 3 3 3 3 13 20 21 17 16 13 11 11 7
17 15 14 13 13 6 4 3 1 4 2 3 4 4 5 5 5 2 3 3 1 2 7 7 9 8 6 7 4 3 2 4 3 3 11 5 8 15 15 15 16 5 5 4
17 14 13 11 9 3 5 4 3 4 2 4 4 5 3 4 3 5 2 2 1 2 6 8 2 3 6 8 10 7 4 3 2 3 2 5 1 7 9 18 13 10 9 6
16 14 12 10 7 8 13 5 2 3 3 3 5 7 5 4 3 2 2 1 1 5 5 4 2 3 2 2 2 4 2 3 0 2 4 3 2 6 5 5 8 10 5 5
15 15 13 12 12 13 15 12 8 5 6 0 4 4 3 3 1 2 2 3 5 5 2 3 2 1 0 3 7 3 4 10 1 1 2 2 2 9 6 7 3 8 7 6
15 15 13 12 11 9 8 8 8 7 4 0 2 3 4 4 3 1 2 5 6 3 2 2 2 1 2 2 4 5 4 3 6 4 3 3 7 11 3 2 1 7 7 7
14 16 13 13 12 13 8 11 9 5 3 1 2 2 4 3 2 3 2 3 3 3 3 2 1 1 1 2 2 3 3 4 3 2 2 1 12 2 2 5 5 7 5 7
14 16 13 14 12 13 10 7 11 13 4 3 3 3 3 4 6 4 1 4 1 2 3 1 2 1 2 1 1 3 2 2 2 4 2 3 6 9 7 5 4 2 6 7
17 16 13 14 12 9 7 13 9 7 3 4 4 3 7 8 6 3 3 2 2 1 2 2 2 3 1 2 0 2 2 1 3 3 3 5 5 7 6 6 6 6 7 7
18 16 13 14 12 9 11 9 9 6 4 3 0 4 4 4 7 5 3 4 3 4 2 2 1 2 1 1 2 2 1 2 3 4 6 8 5 5 7 8 8 10 10 8
18 17 16 14 14 14 16 16 12 7 4 3 2 1 4 5 6 6 4 4 3 2 2 2 0 0 2 1 2 2 1 3 2 3 8 3 5 6 7 8 7 7 9 8
20 19 17 17 19 19 6 3 5 7 5 4 2 3 2 4 6 7 5 3 3 2 2 1 1 2 2 2 1 3 2 2 1 4 3 6 10 7 6 9 7 11 12 12
21 19 17 14 10 6 7 3 5 6 5 3 2 3 2 3 3 3 3 4 2 2 1 1 0 1 3 2 2 4 4 6 8 12 12 7 7 4 9 15 14 15 14 13
22 19 16 15 15 13 8 9 9 6 7 4 3 1 1 4 2 1 2 2 2 3 1 1 0 1 1 1 2 7 8 9 7 3 4 6 13 14 10 14 14 9 7 9
21 19 18 12 5 3 4 13 9 10 6 3 2 5 3 2 1 1 2 2 2 2 1 1 2 1 2 3 9 8 9 8 8 8 10 10 11 10 9 9 7 7 6 7
26 14 5 2 4 19 13 3 3 4 2 2 1 1 2 3 1 1 2 1 1 1 2 1 1 3 2 1 7 8 8 12 12 10 6 7 8 8 7 5 6 8 8 8
4 3 2 7 15 3 2 2 2 1 1 2 2 3 2 1 3 2 1 2 1 1 3 2 2 3 3 1 7 8 10 15 9 6 6 10 10 10 8 7 9 11 12 11
6 12 9 5 2 2 3 2 2 2 4 3 4 3 3 1 2 3 1 2 2 2 0 1 3 3 3 5 5 7 11 13 9 9 12 14 14 15 14 13 13 12 12 11
11 4 2 3 1 2 5 6 2 3 3 3 2 2 3 2 3 3 2 3 3 1 1 3 4 2 4 5 5 6 8 12 13 12 15 17 16 16 16 15 14 14 13 11
3 3 3 4 3 2 3 2 2 2 3 4 3 2 2 1 3 1 4 3 2 3 1 4 3 6 7 6 5 7 6 9 12 13 17 18 18 16 14 16 17 16 14 12
2 2 2 3 2 2 2 2 0 1 3 3 3 3 2 2 3 1 3 4 2 5 4 3 3 4 8 7 4 6 6 9 11 16 17 19 19 18 17 16 14 12 12 10
2 2 2 2 0 1 1 1 2 2 2 2 3 3 3 1 3 3 4 4 5 4 3 3 1 5 5 6 5 9 13 15 17 19 20 19 19 20 18 16 12 10 8 7
2 2 1 0 1 1 1 2 2 3 2 2 3 4 5 2 2 1 3 4 4 3 3 1 3 5 6 8 12 15 17 17 19 18 18 18 17 17 16 14 13 10 7 6

GFSNW_925_spd_123.txt.gz
Wind_Speed
42 47 49 53 51 48 40 6 5 15 23 3 1 3 6 6 6 4 3 4 3 4 5 3 3 2 3 3 1 4 1 4 6 11 16 3 2 4 9 4 3 1 1 3
30 32 36 41 43 35 15 4 4 7 3 4 3 2 3 4 4 4 4 3 2 3 4 3 3 3 5 4 1 1 3 2 6 8 3 5 4 2 4 7 1 2 2 3
34 38 40 38 41 15 7 4 4 2 1 1 5 7 5 5 4 4 4 5 4 3 2 0 2 2 3 3 3 5 4 1 1 3 4 8 8 10 6 2 2 5 4 5
28 30 32 34 29 9 2 2 3 4 4 3 5 4 4 10 5 3 3 2 3 4 3 2 2 3 4 2 0 2 1 2 4 7 11 16 15 17 11 7 4 4 6 6
25 25 24 25 17 9 2 4 4 3 3 7 10 3 4 6 4 4 2 5 6 5 4 4 3 3 2 2 3 3 1 1 2 2 4 8 16 17 9 13 15 12 11 8
21 21 20 16 12 4 3 2 2 4 1 3 5 3 5 6 7 4 5 6 3 3 3 5 7 6 4 4 3 3 1 3 2 0 5 3 5 10 11 14 14 4 4 4
15 16 15 13 11 1 2 2 3 4 3 3 4 7 7 8 4 6 4 4 3 2 3 2 3 2 5 6 8 7 4 2 2 2 3 3 3 4 11 15 11 9 9 7
14 12 11 10 7 5 3 3 3 3 4 5 8 11 7 7 5 4 4 1 2 2 2 2 3 1 2 3 4 2 7 2 1 2 3 3 4 3 3 4 7 8 3 8
14 12 11 10 8 9 8 13 6 4 7 1 5 6 4 4 3 2 2 3 2 2 2 2 2 2 2 2 1 4 2 4 2 2 3 4 3 6 5 5 3 6 4 1
13 12 11 10 8 9 7 8 5 7 4 1 2 3 4 4 4 3 1 2 2 1 2 2 1 2 1 1 2 3 2 3 4 3 2 2 6 9 3 2 3 6 6 7
14 12 12 10 9 6 10 9 9 4 3 2 2 2 4 3 2 3 3 2 1 2 3 2 2 2 2 2 2 2 1 0 2 0 1 2 8 1 1 6 8 7 7 9
14 12 12 11 7 9 7 7 15 15 6 3 5 9 7 6 6 5 1 3 2 2 3 1 2 2 1 2 2 2 1 1 2 2 2 3 4 8 6 5 8 6 8 8
14 13 13 11 8 5 5 12 9 12 4 4 4 4 5 8 9 7 4 0 3 2 1 2 2 3 2 2 1 2 2 1 3 4 3 4 6 7 6 7 10 10 10 9
15 13 14 11 8 8 11 9 7 8 3 3 1 3 4 6 8 12 10 7 5 4 1 2 2 2 1 2 2 1 0 1 5 3 7 6 3 5 9 10 12 12 12 11
16 14 15 12 9 11 16 17 14 9 4 3 3 2 5 9 10 12 9 9 3 1 2 2 1 2 2 2 2 1 2 4 3 3 9 3 5 8 8 9 9 9 11 11
17 16 16 15 18 18 6 3 8 9 8 4 2 1 1 6 12 13 10 6 3 2 2 1 1 0 1 2 1 3 3 1 0 2 6 4 11 8 6 9 8 10 12 12
21 19 18 16 8 7 7 3 3 6 4 3 3 2 2 3 4 3 3 4 2 2 1 1 1 1 2 2 2 8 5 6 9 12 13 8 9 5 9 13 13 13 13 12
22 20 18 19 17 13 9 11 9 6 8 3 3 2 2 4 2 2 2 2 2 3 1 1 1 1 0 2 4 9 9 11 11 5 2 7 13 15 12 13 14 10 8 10
22 21 18 11 6 4 5 8 9 11 6 3 2 4 3 2 2 1 2 2 1 1 0 1 1 0 3 3 13 13 14 10 10 8 10 12 14 13 12 12 10 9 8 9
25 16 5 2 2 17 8 3 3 4 3 2 2 0 3 2 0 1 1 1 1 1 1 1 1 3 1 2 10 12 12 12 14 13 8 9 11 12 12 11 10 9 11 11
4 3 2 8 9 3 2 2 2 0 2 1 2 1 4 1 3 2 0 2 0 1 1 1 1 3 2 5 9 10 12 16 13 6 10 13 12 13 11 10 11 12 12 11
6 13 9 5 2 2 3 1 1 1 3 2 4 2 2 2 1 3 1 2 1 1 0 1 2 3 2 5 9 11 13 14 10 9 12 13 14 15 14 13 12 12 12 13
8 4 3 2 1 3 4 5 2 3 3 4 3 2 2 2 2 3 2 2 2 0 1 2 4 1 3 6 7 9 11 13 12 11 12 13 14 13 14 14 13 16 15 12
3 3 4 2 1 2 3 1 2 1 3 5 2 3 2 1 3 1 3 0 0 2 1 4 2 3 5 7 6 8 8 10 12 12 14 16 17 16 16 17 19 19 17 15
3 3 3 1 2 0 1 1 2 1 3 3 3 3 2 2 3 1 3 2 2 4 3 2 2 2 6 7 5 6 7 8 10 14 15 18 20 19 17 17 17 15 16 15
2 3 2 0 1 1 1 1 2 2 2 2 3 3 3 2 3 2 3 5 4 3 2 1 3 2 5 5 5 8 12 13 14 16 19 20 21 21 20 18 16 15 15 14
3 2 1 1 2 1 2 2 2 3 1 2 2 4 3 3 2 1 3 4 3 2 1 1 2 4 5 6 10 13 15 15 16 18 18 18 17 19 18 14 15 15 13 11

GFSNW_925_spd_129.txt.gz
Wind_Speed
30 16 29 56 77 65 44 6 5 29 41 7 3 5 10 11 18 11 4 7 7 15 13 13 13 10 9 11 9 10 5 2 4 7 5 2 4 9 11 8 8 7 6 2
17 49 65 73 66 52 22 4 5 24 23 6 10 13 11 14 23 16 12 9 8 7 6 3 2 10 6 8 10 7 9 5 5 8 8 7 3 5 8 9 7 14 6 4
31 40 48 39 27 30 16 5 6 3 2 3 18 20 19 16 17 13 11 11 10 10 4 2 7 10 9 8 6 6 3 4 5 5 4 4 5 10 13 15 6 4 4 7
23 20 18 21 20 15 10 2 6 10 7 7 17 16 18 19 15 8 12 6 11 11 5 7 5 11 10 8 8 6 3 4 1 7 8 5 3 7 10 4 3 3 7 6
20 20 20 19 17 13 7 4 7 12 16 17 18 10 16 21 13 13 14 11 17 12 11 7 12 9 12 8 10 7 6 3 5 7 7 5 6 6 2 8 10 9 12 7
27 19 12 8 13 12 5 3 12 8 12 14 13 11 18 19 12 7 9 15 15 11 10 8 9 3 3 4 7 8 7 5 6 3 11 8 5 3 6 6 7 3 4 7
23 21 17 5 2 9 8 18 9 8 11 13 13 21 22 20 16 11 13 16 11 8 8 8 6 4 5 5 5 2 6 6 3 5 9 5 6 7 7 9 7 10 13 9
25 23 9 8 2 2 6 6 5 6 13 16 17 19 18 18 10 15 15 8 9 9 7 7 8 5 5 7 8 7 5 4 4 4 7 6 8 8 7 5 4 3 8 10
19 12 13 4 6 2 7 8 9 5 11 13 17 18 19 15 14 13 6 6 5 4 5 5 7 6 8 7 5 6 6 5 4 4 5 5 10 11 4 3 6 8 9 11
12 10 6 3 4 5 4 1 3 7 6 12 17 13 16 11 11 7 11 7 5 3 6 7 6 5 2 7 8 7 8 8 8 7 6 5 7 11 7 4 5 8 8 9
13 8 5 3 4 4 4 3 5 5 8 9 7 7 9 7 8 8 12 6 3 4 7 7 4 3 5 3 3 3 5 4 4 3 4 4 6 9 4 7 12 11 10 10
13 9 5 4 2 2 5 6 5 15 5 10 18 17 13 9 7 6 11 1 14 6 6 3 3 2 2 8 4 3 3 3 3 5 3 4 3 4 9 10 11 10 12 13
13 11 6 2 3 5 14 19 23 28 11 10 9 9 13 13 7 4 5 2 4 3 4 2 0 4 5 4 2 5 3 2 2 7 4 6 7 6 8 10 11 11 11 12
14 10 6 4 9 17 16 13 2 13 6 5 5 8 10 7 9 6 4 11 4 5 4 2 3 2 3 2 2 4 3 7 6 4 7 8 8 9 9 11 11 11 10 10
14 11 8 10 14 16 18 13 10 6 1 6 8 14 10 9 10 12 12 10 8 5 3 2 2 2 2 2 0 4 6 6 5 2 13 5 13 12 13 13 11 11 11 11
16 13 11 14 13 9 6 4 10 14 25 8 3 6 7 9 11 11 9 6 3 1 1 2 2 2 4 4 4 4 5 3 2 4 14 9 15 14 14 13 12 12 12 12
16 14 13 7 5 8 3 3 5 7 7 4 6 5 4 5 5 4 5 4 3 2 2 0 2 4 3 1 2 7 6 7 7 13 12 14 15 13 14 15 15 14 13 13
18 17 17 18 17 12 9 9 7 4 5 3 4 3 6 4 3 3 1 3 1 2 2 1 2 3 2 2 6 9 9 10 11 14 5 13 12 16 15 17 17 13 12 13
24 20 15 9 6 3 4 6 8 7 3 3 2 7 4 4 3 2 2 1 2 0 1 1 2 3 3 1 7 10 11 11 12 11 9 15 14 15 14 13 13 12 12 14
20 7 6 3 3 6 5 2 2 2 2 2 3 4 4 5 4 2 3 1 2 3 2 2 2 2 3 1 4 8 10 7 14 13 13 15 15 15 15 13 13 12 14 14
5 3 2 4 3 2 2 2 0 1 3 3 3 6 7 2 3 4 2 2 1 2 3 2 2 2 4 3 5 8 9 9 11 11 12 14 15 14 14 13 14 15 16 15
4 12 9 3 1 1 3 3 1 3 3 4 7 7 5 3 1 3 2 2 1 1 2 1 2 3 3 5 7 9 9 11 11 10 11 12 15 17 16 16 15 16 16 16
6 4 3 2 1 2 4 6 3 4 4 4 6 6 3 3 2 3 2 3 2 1 2 2 1 5 3 5 7 9 10 11 11 10 13 13 15 15 16 16 15 17 16 15
2 3 4 2 3 3 1 1 4 3 6 9 7 4 3 2 2 1 3 2 3 3 3 2 4 4 2 4 7 10 9 8 9 11 12 12 13 11 14 16 18 18 17 16
2 1 3 2 2 4 3 4 4 3 7 7 6 3 3 2 3 2 3 3 4 4 2 3 4 1 3 6 5 8 8 6 9 13 13 14 14 13 13 12 15 14 15 15
2 3 3 3 4 3 2 3 4 3 5 3 2 3 3 2 4 3 3 3 3 3 3 3 3 3 3 6 5 6 10 11 11 11 13 14 14 14 14 14 13 13 15 15
2 3 3 2 4 4 2 2 4 5 4 2 2 3 2 3 3 4 1 1 3 4 4 3 3 1 4 5 8 9 11 12 12 11 12 13 13 14 15 14 12 12 11 11

GFSNW_925_spd_132.txt.gz
Wind_Speed
41 45 47 41 31 31 44 15 6 38 49 10 7 12 18 16 18 22 17 16 12 13 17 15 8 12 6 8 12 11 4 3 4 11 8 8 8 9 10 5 7 7 5 2
18 23 31 22 36 72 32 6 4 26 41 12 10 11 14 14 21 17 13 11 8 4 3 5 3 6 3 9 9 4 6 4 3 6 6 6 5 5 5 5 3 9 5 3
18 22 34 27 39 31 15 5 6 4 7 3 17 16 16 14 20 18 10 7 6 5 3 2 6 8 6 7 6 6 3 5 10 3 3 2 2 4 8 11 6 5 1 7
11 19 16 18 12 6 3 1 5 8 11 7 16 20 15 23 19 15 19 9 10 10 4 5 5 11 10 8 9 5 3 5 1 4 3 6 3 2 5 5 5 5 8 7
6 7 15 18 14 7 5 1 6 10 17 15 15 18 21 23 21 18 23 10 18 16 8 9 9 13 12 7 11 9 6 3 3 3 5 2 3 5 7 1 4 7 11 7
10 8 9 10 17 11 4 6 14 9 14 18 11 11 18 17 13 11 14 7 12 17 9 12 13 12 10 4 13 11 6 6 6 5 9 9 7 6 2 4 4 7 8 8
21 13 6 7 4 10 3 5 5 5 12 13 13 18 18 19 14 8 9 10 9 6 12 11 10 6 7 6 10 10 9 11 7 2 8 6 2 7 6 7 6 10 15 13
16 12 9 5 4 5 5 5 3 2 6 11 11 16 14 15 9 7 14 10 9 9 10 6 8 4 5 8 10 9 8 5 3 3 9 4 4 10 9 9 6 10 12 13
16 18 12 8 9 4 2 6 3 3 6 9 19 19 20 11 14 10 9 9 6 6 4 6 6 6 8 8 8 10 7 8 4 6 5 3 6 12 10 5 6 11 13 13
19 12 9 5 4 9 5 4 7 5 3 13 18 15 16 15 9 6 8 6 4 4 4 6 5 6 11 7 10 8 9 8 10 7 6 4 5 9 3 5 3 13 13 13
11 8 2 4 3 8 7 4 7 6 2 5 14 14 16 12 7 7 11 6 4 2 5 5 4 1 4 3 1 10 9 6 6 6 7 4 9 6 4 4 9 8 10 9
9 7 2 5 9 9 8 7 6 8 6 9 24 23 16 11 12 7 11 3 10 5 4 4 4 2 0 6 3 2 1 3 2 4 2 2 5 2 8 8 9 8 11 12
11 6 4 6 8 6 7 8 18 22 7 8 8 9 16 13 12 10 4 2 4 2 3 1 2 2 2 3 2 5 4 2 4 6 4 6 5 5 6 9 10 11 12 13
11 8 5 5 0 1 11 16 5 14 5 4 6 10 13 8 8 9 10 9 4 3 2 1 2 2 0 2 2 2 3 7 8 4 7 7 7 8 9 10 11 11 12 12
11 7 2 5 9 11 13 13 9 5 2 6 9 15 11 10 11 11 10 9 6 4 2 1 2 2 2 2 3 2 6 6 4 2 13 6 13 12 13 12 11 10 11 11
12 7 6 10 11 7 4 5 11 17 23 7 3 7 9 10 11 11 8 4 2 2 2 2 3 2 2 2 3 5 7 7 5 3 13 7 14 14 17 15 14 14 13 14
14 9 7 5 4 4 2 3 2 5 9 4 5 4 2 7 8 7 5 3 2 1 2 0 3 2 2 1 1 5 6 7 6 14 13 12 16 13 14 15 16 16 15 14
14 12 14 12 11 10 8 8 6 6 1 3 3 4 5 3 5 3 2 3 2 4 3 1 1 2 1 1 7 8 8 10 10 10 9 13 14 15 14 16 16 13 11 13
19 16 10 7 7 3 4 5 7 6 2 2 2 6 4 3 3 3 2 1 2 1 1 2 1 3 2 1 5 9 9 8 11 9 12 14 12 14 14 14 13 12 11 12
15 3 4 3 3 5 5 2 2 3 2 2 3 4 4 5 4 2 2 2 3 3 2 3 1 1 5 1 1 8 9 7 12 10 12 13 13 12 13 12 13 12 12 13
4 2 2 2 5 2 2 1 1 2 2 2 3 7 6 2 3 2 3 2 1 2 3 2 3 2 3 3 3 8 8 6 10 9 9 11 12 10 10 10 12 14 16 14
3 10 10 4 1 1 2 2 0 3 4 4 6 7 5 2 2 3 1 2 2 3 2 1 1 3 6 4 6 8 7 8 8 9 12 13 15 15 13 13 12 14 15 16
5 5 3 1 2 2 3 3 2 4 3 3 5 5 3 2 3 2 2 2 2 2 1 2 2 5 4 5 6 7 8 8 7 8 9 10 13 15 14 13 13 16 18 19
2 2 3 2 2 2 3 3 4 2 4 7 6 4 3 2 3 1 3 2 1 3 3 3 6 6 3 3 4 7 6 5 5 7 10 10 12 11 13 17 20 20 17 16
3 2 2 1 3 4 4 2 2 2 5 6 4 3 3 2 3 1 3 2 3 3 1 3 5 3 1 3 6 7 7 6 6 13 12 14 16 16 15 17 17 17 17 17
3 4 2 2 4 2 1 3 2 3 3 3 1 3 2 2 4 3 3 4 2 2 4 4 5 4 3 4 6 5 7 12 11 11 12 13 14 13 12 12 12 13 15 16
2 2 3 2 4 4 2 1 2 1 2 1 1 2 2 2 2 3 1 2 4 5 5 5 4 3 4 4 6 8 8 11 11 10 10 10 11 13 13 11 9 11 11 13

GFSNW_925_spd_135.txt.gz
Wind_Speed
20 20 20 33 42 27 27 11 9 33 46 9 8 16 27 16 11 22 16 9 12 6 9 6 7 7 2 4 7 6 2 4 2 6 8 9 10 5 3 4 4 1 3 3
16 15 18 31 38 24 22 6 3 35 45 15 14 13 23 21 16 18 12 13 11 2 7 4 5 1 4 6 6 5 5 2 1 4 7 5 2 6 2 4 3 5 1 3
9 11 14 21 17 28 20 4 4 3 12 13 25 25 17 26 20 17 18 5 6 4 3 5 5 4 4 6 5 9 7 1 5 2 1 3 3 5 6 3 1 2 4 7
5 7 9 12 13 10 8 1 5 8 11 16 6 22 16 18 15 23 11 3 6 6 4 3 4 3 2 2 9 4 5 3 2 1 6 5 1 3 2 2 3 5 5 7
9 1 6 13 9 5 3 2 2 5 11 10 6 18 17 21 22 18 13 6 9 6 7 7 6 6 6 5 2 5 4 2 3 2 4 5 3 5 5 5 3 4 8 3
14 5 3 7 10 6 2 5 3 3 12 10 7 10 18 18 21 8 16 13 12 13 11 11 8 13 11 6 9 7 6 4 3 4 5 4 6 9 9 4 2 7 7 6
19 18 2 4 4 5 4 4 2 3 5 13 14 15 13 16 15 5 10 7 12 7 6 8 6 7 7 4 10 7 6 6 4 1 5 4 4 2 7 5 5 6 10 14
16 19 17 5 1 2 3 5 4 2 3 13 14 18 17 13 6 2 5 3 5 6 8 6 5 2 2 4 7 7 5 5 1 3 5 0 2 6 6 7 6 9 12 12
14 13 11 10 3 2 5 6 5 2 3 11 12 13 15 12 5 5 5 3 2 3 3 4 5 4 5 6 5 14 12 6 4 3 1 4 2 6 7 9 4 15 13 14
14 15 16 10 4 5 2 3 11 2 2 4 10 6 11 7 5 4 4 4 3 3 2 3 3 4 8 7 7 6 4 2 5 2 3 2 3 7 4 4 4 13 15 15
14 9 10 7 6 2 6 9 8 5 2 8 7 9 9 10 6 5 7 4 2 2 2 3 3 2 1 4 1 6 6 5 3 3 2 4 3 4 3 3 3 7 12 14
12 7 4 3 9 6 6 5 7 6 4 3 19 20 3 12 9 5 6 6 4 5 2 1 1 2 3 3 3 4 1 3 5 2 1 2 3 3 4 6 5 5 11 12
12 6 3 7 8 8 7 3 12 10 6 6 5 4 13 13 12 23 5 1 3 3 3 2 1 3 3 2 1 4 3 5 4 4 2 3 2 3 5 8 10 11 13 14
14 8 6 10 9 5 12 10 20 3 3 3 3 12 8 8 15 15 13 6 5 3 2 2 2 3 2 1 2 4 1 4 5 3 4 5 3 3 9 11 12 14 13 14
15 9 8 4 6 14 16 15 8 4 5 3 4 10 12 11 12 14 13 10 4 2 2 2 1 2 4 2 3 2 3 5 4 5 9 5 7 7 9 9 10 11 13 13
7 5 1 3 8 3 3 5 18 23 24 4 3 2 5 11 11 10 5 1 0 1 3 1 2 2 3 2 2 2 8 6 3 4 11 4 12 11 8 7 6 11 12 15
9 3 5 7 6 4 5 4 3 13 13 3 3 2 2 7 5 4 4 6 2 2 1 3 3 1 2 2 2 4 7 7 8 11 14 9 10 7 12 12 13 15 14 15
10 10 13 10 10 10 8 11 12 6 2 4 3 2 3 4 2 2 2 2 3 5 1 3 3 2 2 3 7 10 9 11 10 7 5 7 12 15 11 16 14 8 7 10
13 10 8 8 9 4 2 7 7 7 2 3 3 4 3 1 2 2 4 2 3 2 1 0 3 1 1 2 10 11 12 6 7 6 11 8 10 11 10 10 8 8 7 11
8 4 7 3 3 3 5 4 4 4 3 3 3 2 2 4 2 1 2 1 2 2 2 1 2 0 2 4 6 10 9 11 8 8 8 8 8 9 10 9 9 11 11 16
3 2 2 3 5 5 3 2 3 1 3 2 1 3 3 3 3 2 1 2 0 3 3 3 1 1 2 3 8 8 8 10 8 8 7 10 10 10 8 7 13 19 20 16
5 10 7 5 3 3 4 2 3 2 3 1 4 3 2 2 2 3 2 2 2 2 1 3 1 3 3 4 8 8 7 8 8 15 10 15 16 20 17 16 15 22 22 22
5 5 4 3 3 4 3 3 2 2 1 1 3 2 3 3 3 2 3 3 0 1 3 3 2 2 4 6 7 8 11 10 8 10 16 18 20 22 21 17 19 24 23 23
3 3 3 2 1 1 3 3 2 2 3 5 3 2 3 1 3 1 4 1 2 2 2 3 2 2 2 4 6 8 7 8 8 10 15 15 17 13 17 22 24 25 24 23
3 3 2 2 2 3 2 3 2 3 3 4 3 3 3 2 3 1 3 3 2 3 3 2 2 1 4 5 4 7 8 7 6 15 14 17 19 20 18 20 21 21 21 20
3 5 2 1 4 1 2 2 2 3 1 1 2 2 3 1 4 2 3 4 3 1 2 1 2 3 4 6 6 6 7 13 15 17 17 18 19 20 19 16 15 16 17 18
3 2 2 1 4 3 2 1 2 3 3 1 2 3 2 3 2 1 3 2 2 3 4 4 4 3 3 4 8 8 9 14 15 17 15 15 15 18 17 15 11 11 12 13

GFSNW_925_spd_138.txt.gz
Wind_Speed
15 12 9 9 12 16 18 6 6 19 39 9 7 18 24 14 6 17 7 2 4 7 7 8 9 10 6 2 7 9 3 3 4 8 8 6 5 8 7 4 4 2 4 4
14 11 12 12 16 22 21 6 6 30 31 10 14 18 23 22 10 9 8 9 7 4 6 1 5 7 4 7 4 7 5 1 1 4 3 8 11 3 3 6 3 4 3 4
12 11 10 11 14 24 29 4 5 4 10 8 19 20 26 28 17 21 18 7 7 3 2 2 5 4 2 5 4 8 6 4 5 4 3 2 2 4 4 3 3 2 5 5
14 13 7 6 4 12 13 3 4 4 8 16 21 24 13 28 23 24 9 8 12 8 4 3 4 4 2 5 7 3 4 2 2 6 5 3 2 2 1 4 3 4 4 6
16 15 9 3 5 8 2 4 3 2 3 16 21 21 23 23 23 17 29 17 11 9 10 8 7 6 3 3 5 4 4 3 3 5 6 6 4 5 7 3 3 2 4 4
19 16 12 7 10 11 3 5 8 2 3 7 9 13 23 23 20 17 22 28 12 11 7 5 9 5 7 4 7 6 6 5 3 3 5 3 4 10 8 5 5 6 7 5
20 20 16 12 9 12 8 6 4 2 3 9 12 11 14 20 22 15 20 15 17 6 7 5 6 4 2 11 11 7 6 5 3 1 3 5 4 2 6 7 4 4 4 9
18 24 22 15 10 8 6 7 4 3 3 8 6 14 17 13 15 8 5 4 8 8 8 3 4 1 1 6 9 8 7 5 3 4 5 3 2 4 5 6 7 7 9 10
19 20 26 23 15 14 12 15 14 3 1 8 12 12 18 7 7 3 3 3 6 4 4 3 5 5 5 6 4 3 4 2 3 1 3 4 2 3 6 4 4 11 12 14
18 18 19 14 15 11 14 9 17 2 2 3 10 13 10 5 6 5 2 2 5 5 3 6 4 4 6 7 8 5 4 2 5 3 2 3 1 6 7 3 5 12 15 16
18 19 20 17 15 9 6 8 16 7 2 3 0 3 6 6 4 7 6 5 2 1 4 4 4 3 4 4 3 6 6 6 3 3 2 6 3 3 6 3 3 11 11 14
18 16 16 15 12 8 3 5 11 17 2 1 4 6 10 3 5 6 3 3 8 5 3 1 1 1 1 4 1 5 1 3 5 4 3 1 2 2 2 3 5 5 10 12
16 14 11 8 14 9 10 10 9 7 2 4 3 3 7 13 7 18 4 2 5 4 4 4 2 2 3 3 3 4 2 2 4 2 2 2 2 2 4 4 7 7 9 15
17 12 10 7 9 14 15 12 23 5 4 3 1 9 6 11 26 29 23 4 3 5 3 2 2 3 1 2 4 3 3 4 5 2 1 2 4 3 9 9 11 12 11 13
14 14 11 11 13 6 18 25 16 14 3 3 3 10 7 7 23 19 15 10 4 2 3 3 1 0 3 2 3 2 3 6 4 4 8 4 4 7 12 13 10 12 12 11
18 14 5 7 3 17 7 1 6 15 22 4 3 2 4 9 12 13 6 3 3 3 3 2 1 1 3 3 2 2 1 4 4 3 9 3 8 9 9 9 9 10 11 14
16 5 8 3 14 7 3 4 6 14 10 3 3 2 4 5 7 3 4 5 2 3 2 2 2 2 3 2 2 4 4 5 7 11 11 6 5 5 10 12 14 17 15 15
10 4 12 9 10 6 7 13 10 7 8 3 3 1 3 4 3 3 3 3 3 4 2 2 2 3 2 2 4 6 7 9 9 6 4 6 9 13 9 14 12 8 7 11
5 7 8 1 4 4 4 8 11 11 5 3 3 4 3 1 2 2 3 3 3 3 2 1 3 2 1 5 10 10 12 6 8 6 8 10 10 9 8 8 8 9 7 11
3 1 4 3 3 5 6 5 4 4 3 3 2 1 2 3 1 2 2 2 2 1 2 1 3 2 3 6 11 11 9 9 11 9 6 7 7 10 9 8 8 11 11 13
1 2 2 1 5 5 3 3 3 2 3 2 1 3 4 2 3 2 1 2 1 2 3 3 1 1 3 1 8 7 7 10 11 11 9 11 12 11 8 7 13 18 20 16
3 10 7 4 4 3 4 2 3 3 3 1 4 2 3 2 3 3 2 2 2 2 1 3 0 3 2 6 7 6 7 7 8 13 10 14 16 18 16 15 16 20 23 21
5 5 4 3 3 6 4 2 1 2 0 1 2 3 2 3 4 3 3 4 2 1 3 3 3 2 3 6 6 6 7 11 11 7 15 18 17 21 21 16 19 22 22 22
3 3 3 2 3 2 1 1 1 2 3 5 4 2 3 1 3 1 4 2 2 3 2 4 2 2 3 4 4 8 5 7 8 8 13 15 18 16 17 22 22 24 23 24
3 4 2 1 1 3 3 2 2 3 2 4 3 3 3 2 4 1 3 3 1 3 4 2 2 1 4 4 3 6 7 6 5 12 13 16 18 18 16 18 24 25 23 23
3 5 3 2 3 1 3 3 2 3 1 2 3 3 3 0 4 2 3 4 3 3 1 1 1 3 4 4 4 5 5 10 12 15 18 18 19 19 18 16 16 19 22 22
3 2 2 2 3 2 1 2 2 3 3 1 2 3 3 2 2 2 1 2 1 4 3 3 3 3 4 5 6 6 7 11 14 15 16 15 16 19 18 14 14 15 15 15